<?xml version="1.0" encoding="UTF-8" standalone="no" ?>
<gpx xmlns="http://www.topografix.com/GPX/1/1" xmlns:xsi="http://www.w3.org/2001/XMLSchema-instance" xsi:schemaLocation="http://www.topografix.com/GPX/1/1 http://www.topografix.com/GPX/1/1/gpx.xsd" version="1.1" creator="VisuGPX - https://www.visugpx.com">
  <metadata>
    <name>lundi 2015 12 - 2015 11</name>
    <desc><![CDATA[cumul 2 mois]]></desc>
  </metadata>
  <trk>
    <name><![CDATA[lundi 2015 12 28]]></name>
    <extensions>
      <line xmlns="http://www.topografix.com/GPX/gpx_style/0/2">
        <color>000000</color>
      </line>
    </extensions>
    <trkseg>
      <trkpt lat="48.85739" lon="2.34731">
        <ele>40.400001525879</ele>
        <time>2015-12-28T19:20:28Z</time>
      </trkpt>
      <trkpt lat="48.85742" lon="2.3474">
        <ele>40.400001525879</ele>
        <time>2015-12-28T19:20:44Z</time>
      </trkpt>
      <trkpt lat="48.85759" lon="2.34752">
        <ele>40</ele>
        <time>2015-12-28T19:20:55Z</time>
      </trkpt>
      <trkpt lat="48.85774" lon="2.34768">
        <ele>39.599998474121</ele>
        <time>2015-12-28T19:21:06Z</time>
      </trkpt>
      <trkpt lat="48.85787" lon="2.34786">
        <ele>40.79999923706</ele>
        <time>2015-12-28T19:21:14Z</time>
      </trkpt>
      <trkpt lat="48.85804" lon="2.34797">
        <ele>42.599998474121</ele>
        <time>2015-12-28T19:21:18Z</time>
      </trkpt>
      <trkpt lat="48.85821" lon="2.34806">
        <ele>44.400001525879</ele>
        <time>2015-12-28T19:21:23Z</time>
      </trkpt>
      <trkpt lat="48.85838" lon="2.34816">
        <ele>46.20000076294</ele>
        <time>2015-12-28T19:21:30Z</time>
      </trkpt>
      <trkpt lat="48.85838" lon="2.34827">
        <ele>46</ele>
        <time>2015-12-28T19:21:48Z</time>
      </trkpt>
      <trkpt lat="48.85859" lon="2.34834">
        <ele>48</ele>
        <time>2015-12-28T19:22:08Z</time>
      </trkpt>
      <trkpt lat="48.8588" lon="2.34843">
        <ele>48</ele>
        <time>2015-12-28T19:22:14Z</time>
      </trkpt>
      <trkpt lat="48.859" lon="2.3485">
        <ele>48</ele>
        <time>2015-12-28T19:22:19Z</time>
      </trkpt>
      <trkpt lat="48.85921" lon="2.34859">
        <ele>48</ele>
        <time>2015-12-28T19:22:24Z</time>
      </trkpt>
      <trkpt lat="48.85938" lon="2.34867">
        <ele>48</ele>
        <time>2015-12-28T19:22:29Z</time>
      </trkpt>
      <trkpt lat="48.8596" lon="2.34877">
        <ele>48.20000076294</ele>
        <time>2015-12-28T19:22:34Z</time>
      </trkpt>
      <trkpt lat="48.85978" lon="2.34888">
        <ele>48.400001525879</ele>
        <time>2015-12-28T19:22:38Z</time>
      </trkpt>
      <trkpt lat="48.85998" lon="2.34901">
        <ele>48.79999923706</ele>
        <time>2015-12-28T19:22:43Z</time>
      </trkpt>
      <trkpt lat="48.86016" lon="2.34911">
        <ele>49</ele>
        <time>2015-12-28T19:22:47Z</time>
      </trkpt>
      <trkpt lat="48.86034" lon="2.34918">
        <ele>48.599998474121</ele>
        <time>2015-12-28T19:22:51Z</time>
      </trkpt>
      <trkpt lat="48.86039" lon="2.3492">
        <ele>48.599998474121</ele>
        <time>2015-12-28T19:22:52Z</time>
      </trkpt>
      <trkpt lat="48.86056" lon="2.3493">
        <ele>48</ele>
        <time>2015-12-28T19:22:56Z</time>
      </trkpt>
      <trkpt lat="48.86075" lon="2.3494">
        <ele>47.400001525879</ele>
        <time>2015-12-28T19:23:00Z</time>
      </trkpt>
      <trkpt lat="48.86096" lon="2.3495">
        <ele>46.79999923706</ele>
        <time>2015-12-28T19:23:04Z</time>
      </trkpt>
      <trkpt lat="48.86117" lon="2.34959">
        <ele>46.599998474121</ele>
        <time>2015-12-28T19:23:08Z</time>
      </trkpt>
      <trkpt lat="48.86137" lon="2.34972">
        <ele>46.599998474121</ele>
        <time>2015-12-28T19:23:12Z</time>
      </trkpt>
      <trkpt lat="48.86157" lon="2.34984">
        <ele>46.79999923706</ele>
        <time>2015-12-28T19:23:16Z</time>
      </trkpt>
      <trkpt lat="48.86176" lon="2.34994">
        <ele>46.79999923706</ele>
        <time>2015-12-28T19:23:20Z</time>
      </trkpt>
      <trkpt lat="48.86184" lon="2.34997">
        <ele>47</ele>
        <time>2015-12-28T19:23:22Z</time>
      </trkpt>
      <trkpt lat="48.86202" lon="2.35008">
        <ele>47.20000076294</ele>
        <time>2015-12-28T19:23:26Z</time>
      </trkpt>
      <trkpt lat="48.86221" lon="2.35017">
        <ele>47.599998474121</ele>
        <time>2015-12-28T19:23:30Z</time>
      </trkpt>
      <trkpt lat="48.86241" lon="2.35024">
        <ele>48</ele>
        <time>2015-12-28T19:23:35Z</time>
      </trkpt>
      <trkpt lat="48.86245" lon="2.35025">
        <ele>48</ele>
        <time>2015-12-28T19:23:36Z</time>
      </trkpt>
      <trkpt lat="48.86263" lon="2.35033">
        <ele>48.400001525879</ele>
        <time>2015-12-28T19:23:41Z</time>
      </trkpt>
      <trkpt lat="48.86269" lon="2.35036">
        <ele>48.400001525879</ele>
        <time>2015-12-28T19:23:43Z</time>
      </trkpt>
      <trkpt lat="48.86277" lon="2.3504">
        <ele>48.400001525879</ele>
        <time>2015-12-28T19:23:45Z</time>
      </trkpt>
      <trkpt lat="48.86295" lon="2.35056">
        <ele>48.400001525879</ele>
        <time>2015-12-28T19:23:50Z</time>
      </trkpt>
      <trkpt lat="48.86314" lon="2.35066">
        <ele>48.400001525879</ele>
        <time>2015-12-28T19:23:55Z</time>
      </trkpt>
      <trkpt lat="48.86321" lon="2.35068">
        <ele>48.20000076294</ele>
        <time>2015-12-28T19:23:57Z</time>
      </trkpt>
      <trkpt lat="48.86338" lon="2.35083">
        <ele>48.20000076294</ele>
        <time>2015-12-28T19:24:02Z</time>
      </trkpt>
      <trkpt lat="48.86356" lon="2.35092">
        <ele>47.79999923706</ele>
        <time>2015-12-28T19:24:06Z</time>
      </trkpt>
      <trkpt lat="48.86375" lon="2.35103">
        <ele>47.79999923706</ele>
        <time>2015-12-28T19:24:10Z</time>
      </trkpt>
      <trkpt lat="48.86394" lon="2.35114">
        <ele>47.400001525879</ele>
        <time>2015-12-28T19:24:14Z</time>
      </trkpt>
      <trkpt lat="48.86406" lon="2.35119">
        <ele>47.20000076294</ele>
        <time>2015-12-28T19:24:17Z</time>
      </trkpt>
      <trkpt lat="48.86426" lon="2.35134">
        <ele>47</ele>
        <time>2015-12-28T19:24:22Z</time>
      </trkpt>
      <trkpt lat="48.86428" lon="2.35136">
        <ele>47</ele>
        <time>2015-12-28T19:24:23Z</time>
      </trkpt>
      <trkpt lat="48.86432" lon="2.3514">
        <ele>46.79999923706</ele>
        <time>2015-12-28T19:24:25Z</time>
      </trkpt>
      <trkpt lat="48.86443" lon="2.35152">
        <ele>46.79999923706</ele>
        <time>2015-12-28T19:24:30Z</time>
      </trkpt>
      <trkpt lat="48.86446" lon="2.35154">
        <ele>46.79999923706</ele>
        <time>2015-12-28T19:24:31Z</time>
      </trkpt>
      <trkpt lat="48.86465" lon="2.35168">
        <ele>46.599998474121</ele>
        <time>2015-12-28T19:24:36Z</time>
      </trkpt>
      <trkpt lat="48.86482" lon="2.35178">
        <ele>46.400001525879</ele>
        <time>2015-12-28T19:24:41Z</time>
      </trkpt>
      <trkpt lat="48.86503" lon="2.35187">
        <ele>46.20000076294</ele>
        <time>2015-12-28T19:24:46Z</time>
      </trkpt>
      <trkpt lat="48.8652" lon="2.35199">
        <ele>46.400001525879</ele>
        <time>2015-12-28T19:24:50Z</time>
      </trkpt>
      <trkpt lat="48.86537" lon="2.35209">
        <ele>46.79999923706</ele>
        <time>2015-12-28T19:24:54Z</time>
      </trkpt>
      <trkpt lat="48.86557" lon="2.35218">
        <ele>47.400001525879</ele>
        <time>2015-12-28T19:24:58Z</time>
      </trkpt>
      <trkpt lat="48.86576" lon="2.35229">
        <ele>48</ele>
        <time>2015-12-28T19:25:02Z</time>
      </trkpt>
      <trkpt lat="48.86594" lon="2.35239">
        <ele>48.599998474121</ele>
        <time>2015-12-28T19:25:06Z</time>
      </trkpt>
      <trkpt lat="48.86598" lon="2.35242">
        <ele>48.79999923706</ele>
        <time>2015-12-28T19:25:07Z</time>
      </trkpt>
      <trkpt lat="48.86603" lon="2.3527">
        <ele>48.599998474121</ele>
        <time>2015-12-28T19:25:12Z</time>
      </trkpt>
      <trkpt lat="48.86602" lon="2.35277">
        <ele>48.599998474121</ele>
        <time>2015-12-28T19:25:13Z</time>
      </trkpt>
      <trkpt lat="48.86599" lon="2.35298">
        <ele>48.400001525879</ele>
        <time>2015-12-28T19:25:16Z</time>
      </trkpt>
      <trkpt lat="48.86592" lon="2.35327">
        <ele>47.599998474121</ele>
        <time>2015-12-28T19:25:20Z</time>
      </trkpt>
      <trkpt lat="48.86595" lon="2.35359">
        <ele>47.599998474121</ele>
        <time>2015-12-28T19:25:24Z</time>
      </trkpt>
      <trkpt lat="48.86597" lon="2.35364">
        <ele>47.599998474121</ele>
        <time>2015-12-28T19:25:25Z</time>
      </trkpt>
      <trkpt lat="48.86598" lon="2.35371">
        <ele>47.79999923706</ele>
        <time>2015-12-28T19:25:27Z</time>
      </trkpt>
      <trkpt lat="48.86593" lon="2.35399">
        <ele>47.599998474121</ele>
        <time>2015-12-28T19:25:33Z</time>
      </trkpt>
      <trkpt lat="48.86588" lon="2.35418">
        <ele>48.20000076294</ele>
        <time>2015-12-28T19:25:36Z</time>
      </trkpt>
      <trkpt lat="48.86584" lon="2.35446">
        <ele>47.400001525879</ele>
        <time>2015-12-28T19:25:40Z</time>
      </trkpt>
      <trkpt lat="48.86581" lon="2.35461">
        <ele>47.20000076294</ele>
        <time>2015-12-28T19:25:42Z</time>
      </trkpt>
      <trkpt lat="48.86577" lon="2.35492">
        <ele>47</ele>
        <time>2015-12-28T19:25:46Z</time>
      </trkpt>
      <trkpt lat="48.86571" lon="2.35524">
        <ele>45.599998474121</ele>
        <time>2015-12-28T19:25:50Z</time>
      </trkpt>
      <trkpt lat="48.86566" lon="2.35556">
        <ele>44.400001525879</ele>
        <time>2015-12-28T19:25:54Z</time>
      </trkpt>
      <trkpt lat="48.86564" lon="2.35564">
        <ele>44.20000076294</ele>
        <time>2015-12-28T19:25:55Z</time>
      </trkpt>
      <trkpt lat="48.86559" lon="2.35587">
        <ele>44</ele>
        <time>2015-12-28T19:25:58Z</time>
      </trkpt>
      <trkpt lat="48.8655" lon="2.35619">
        <ele>45</ele>
        <time>2015-12-28T19:26:02Z</time>
      </trkpt>
      <trkpt lat="48.86549" lon="2.35627">
        <ele>45</ele>
        <time>2015-12-28T19:26:03Z</time>
      </trkpt>
      <trkpt lat="48.86542" lon="2.3566">
        <ele>45.400001525879</ele>
        <time>2015-12-28T19:26:07Z</time>
      </trkpt>
      <trkpt lat="48.86536" lon="2.35686">
        <ele>45.79999923706</ele>
        <time>2015-12-28T19:26:10Z</time>
      </trkpt>
      <trkpt lat="48.86529" lon="2.3572">
        <ele>45.400001525879</ele>
        <time>2015-12-28T19:26:14Z</time>
      </trkpt>
      <trkpt lat="48.86523" lon="2.35746">
        <ele>45</ele>
        <time>2015-12-28T19:26:17Z</time>
      </trkpt>
      <trkpt lat="48.86517" lon="2.35775">
        <ele>45.400001525879</ele>
        <time>2015-12-28T19:26:20Z</time>
      </trkpt>
      <trkpt lat="48.8651" lon="2.35803">
        <ele>45.599998474121</ele>
        <time>2015-12-28T19:26:23Z</time>
      </trkpt>
      <trkpt lat="48.86502" lon="2.35831">
        <ele>46</ele>
        <time>2015-12-28T19:26:26Z</time>
      </trkpt>
      <trkpt lat="48.86497" lon="2.3586">
        <ele>45.400001525879</ele>
        <time>2015-12-28T19:26:29Z</time>
      </trkpt>
      <trkpt lat="48.8649" lon="2.35888">
        <ele>44.79999923706</ele>
        <time>2015-12-28T19:26:32Z</time>
      </trkpt>
      <trkpt lat="48.86483" lon="2.35914">
        <ele>45</ele>
        <time>2015-12-28T19:26:35Z</time>
      </trkpt>
      <trkpt lat="48.86478" lon="2.35936">
        <ele>45.400001525879</ele>
        <time>2015-12-28T19:26:38Z</time>
      </trkpt>
      <trkpt lat="48.86474" lon="2.35962">
        <ele>45.20000076294</ele>
        <time>2015-12-28T19:26:42Z</time>
      </trkpt>
      <trkpt lat="48.86473" lon="2.35975">
        <ele>45</ele>
        <time>2015-12-28T19:26:45Z</time>
      </trkpt>
      <trkpt lat="48.86477" lon="2.35982">
        <ele>44.79999923706</ele>
        <time>2015-12-28T19:27:05Z</time>
      </trkpt>
      <trkpt lat="48.86494" lon="2.35997">
        <ele>44.599998474121</ele>
        <time>2015-12-28T19:27:15Z</time>
      </trkpt>
      <trkpt lat="48.86512" lon="2.36015">
        <ele>44.599998474121</ele>
        <time>2015-12-28T19:27:19Z</time>
      </trkpt>
      <trkpt lat="48.86529" lon="2.36029">
        <ele>44.599998474121</ele>
        <time>2015-12-28T19:27:22Z</time>
      </trkpt>
      <trkpt lat="48.86548" lon="2.36047">
        <ele>44.20000076294</ele>
        <time>2015-12-28T19:27:26Z</time>
      </trkpt>
      <trkpt lat="48.86567" lon="2.36067">
        <ele>43.599998474121</ele>
        <time>2015-12-28T19:27:30Z</time>
      </trkpt>
      <trkpt lat="48.86586" lon="2.36085">
        <ele>43.20000076294</ele>
        <time>2015-12-28T19:27:34Z</time>
      </trkpt>
      <trkpt lat="48.86602" lon="2.36099">
        <ele>43.20000076294</ele>
        <time>2015-12-28T19:27:37Z</time>
      </trkpt>
      <trkpt lat="48.86617" lon="2.36114">
        <ele>43.599998474121</ele>
        <time>2015-12-28T19:27:40Z</time>
      </trkpt>
      <trkpt lat="48.86636" lon="2.36134">
        <ele>44.400001525879</ele>
        <time>2015-12-28T19:27:44Z</time>
      </trkpt>
      <trkpt lat="48.86653" lon="2.36155">
        <ele>45</ele>
        <time>2015-12-28T19:27:48Z</time>
      </trkpt>
      <trkpt lat="48.86664" lon="2.36177">
        <ele>45.599998474121</ele>
        <time>2015-12-28T19:27:51Z</time>
      </trkpt>
      <trkpt lat="48.86673" lon="2.36201">
        <ele>46</ele>
        <time>2015-12-28T19:27:54Z</time>
      </trkpt>
      <trkpt lat="48.86681" lon="2.3623">
        <ele>46.599998474121</ele>
        <time>2015-12-28T19:27:58Z</time>
      </trkpt>
      <trkpt lat="48.86684" lon="2.36237">
        <ele>46.79999923706</ele>
        <time>2015-12-28T19:27:59Z</time>
      </trkpt>
      <trkpt lat="48.86692" lon="2.36257">
        <ele>47</ele>
        <time>2015-12-28T19:28:02Z</time>
      </trkpt>
      <trkpt lat="48.867" lon="2.36282">
        <ele>46.79999923706</ele>
        <time>2015-12-28T19:28:06Z</time>
      </trkpt>
      <trkpt lat="48.86702" lon="2.36287">
        <ele>46.79999923706</ele>
        <time>2015-12-28T19:28:07Z</time>
      </trkpt>
      <trkpt lat="48.86712" lon="2.3631">
        <ele>46.400001525879</ele>
        <time>2015-12-28T19:28:13Z</time>
      </trkpt>
      <trkpt lat="48.86715" lon="2.36315">
        <ele>46.20000076294</ele>
        <time>2015-12-28T19:28:15Z</time>
      </trkpt>
      <trkpt lat="48.86717" lon="2.36324">
        <ele>46.20000076294</ele>
        <time>2015-12-28T19:28:19Z</time>
      </trkpt>
      <trkpt lat="48.86719" lon="2.36349">
        <ele>45.79999923706</ele>
        <time>2015-12-28T19:28:55Z</time>
      </trkpt>
      <trkpt lat="48.86708" lon="2.36371">
        <ele>45.20000076294</ele>
        <time>2015-12-28T19:29:00Z</time>
      </trkpt>
      <trkpt lat="48.86696" lon="2.36394">
        <ele>44.20000076294</ele>
        <time>2015-12-28T19:29:04Z</time>
      </trkpt>
      <trkpt lat="48.86684" lon="2.36417">
        <ele>43.400001525879</ele>
        <time>2015-12-28T19:29:08Z</time>
      </trkpt>
      <trkpt lat="48.86671" lon="2.36441">
        <ele>43.599998474121</ele>
        <time>2015-12-28T19:29:12Z</time>
      </trkpt>
      <trkpt lat="48.86657" lon="2.36467">
        <ele>43.79999923706</ele>
        <time>2015-12-28T19:29:16Z</time>
      </trkpt>
      <trkpt lat="48.86653" lon="2.36481">
        <ele>44</ele>
        <time>2015-12-28T19:29:18Z</time>
      </trkpt>
      <trkpt lat="48.86654" lon="2.3651">
        <ele>44</ele>
        <time>2015-12-28T19:29:22Z</time>
      </trkpt>
      <trkpt lat="48.86656" lon="2.36525">
        <ele>44.599998474121</ele>
        <time>2015-12-28T19:29:24Z</time>
      </trkpt>
      <trkpt lat="48.86648" lon="2.36554">
        <ele>45.79999923706</ele>
        <time>2015-12-28T19:29:28Z</time>
      </trkpt>
      <trkpt lat="48.86634" lon="2.36579">
        <ele>46</ele>
        <time>2015-12-28T19:29:33Z</time>
      </trkpt>
      <trkpt lat="48.86619" lon="2.36603">
        <ele>46.599998474121</ele>
        <time>2015-12-28T19:29:38Z</time>
      </trkpt>
      <trkpt lat="48.86605" lon="2.36626">
        <ele>46.400001525879</ele>
        <time>2015-12-28T19:29:43Z</time>
      </trkpt>
      <trkpt lat="48.86598" lon="2.36644">
        <ele>46.20000076294</ele>
        <time>2015-12-28T19:29:46Z</time>
      </trkpt>
      <trkpt lat="48.86585" lon="2.36664">
        <ele>45.79999923706</ele>
        <time>2015-12-28T19:29:50Z</time>
      </trkpt>
      <trkpt lat="48.86571" lon="2.36685">
        <ele>45.79999923706</ele>
        <time>2015-12-28T19:29:54Z</time>
      </trkpt>
      <trkpt lat="48.86561" lon="2.3671">
        <ele>46</ele>
        <time>2015-12-28T19:29:58Z</time>
      </trkpt>
      <trkpt lat="48.86549" lon="2.36731">
        <ele>46.20000076294</ele>
        <time>2015-12-28T19:30:02Z</time>
      </trkpt>
      <trkpt lat="48.86535" lon="2.36756">
        <ele>46.20000076294</ele>
        <time>2015-12-28T19:30:07Z</time>
      </trkpt>
      <trkpt lat="48.86529" lon="2.36767">
        <ele>46.400001525879</ele>
        <time>2015-12-28T19:30:10Z</time>
      </trkpt>
      <trkpt lat="48.86515" lon="2.3679">
        <ele>47</ele>
        <time>2015-12-28T19:30:16Z</time>
      </trkpt>
      <trkpt lat="48.86501" lon="2.36815">
        <ele>47.400001525879</ele>
        <time>2015-12-28T19:30:21Z</time>
      </trkpt>
      <trkpt lat="48.86486" lon="2.3684">
        <ele>47</ele>
        <time>2015-12-28T19:30:26Z</time>
      </trkpt>
      <trkpt lat="48.8647" lon="2.36864">
        <ele>46.400001525879</ele>
        <time>2015-12-28T19:30:31Z</time>
      </trkpt>
      <trkpt lat="48.86464" lon="2.36875">
        <ele>46.20000076294</ele>
        <time>2015-12-28T19:30:33Z</time>
      </trkpt>
      <trkpt lat="48.8645" lon="2.36896">
        <ele>46.20000076294</ele>
        <time>2015-12-28T19:30:37Z</time>
      </trkpt>
      <trkpt lat="48.86436" lon="2.36921">
        <ele>45.79999923706</ele>
        <time>2015-12-28T19:30:41Z</time>
      </trkpt>
      <trkpt lat="48.86425" lon="2.36939">
        <ele>45.20000076294</ele>
        <time>2015-12-28T19:30:44Z</time>
      </trkpt>
      <trkpt lat="48.86411" lon="2.36962">
        <ele>44.599998474121</ele>
        <time>2015-12-28T19:30:48Z</time>
      </trkpt>
      <trkpt lat="48.864" lon="2.36984">
        <ele>44.79999923706</ele>
        <time>2015-12-28T19:30:52Z</time>
      </trkpt>
      <trkpt lat="48.86389" lon="2.36999">
        <ele>45.20000076294</ele>
        <time>2015-12-28T19:30:56Z</time>
      </trkpt>
      <trkpt lat="48.86383" lon="2.37004">
        <ele>45.20000076294</ele>
        <time>2015-12-28T19:30:59Z</time>
      </trkpt>
      <trkpt lat="48.86369" lon="2.37026">
        <ele>44.79999923706</ele>
        <time>2015-12-28T19:31:05Z</time>
      </trkpt>
      <trkpt lat="48.86366" lon="2.3703">
        <ele>44.79999923706</ele>
        <time>2015-12-28T19:31:06Z</time>
      </trkpt>
      <trkpt lat="48.86356" lon="2.37048">
        <ele>44.79999923706</ele>
        <time>2015-12-28T19:31:10Z</time>
      </trkpt>
      <trkpt lat="48.8635" lon="2.37062">
        <ele>44.20000076294</ele>
        <time>2015-12-28T19:31:14Z</time>
      </trkpt>
      <trkpt lat="48.86338" lon="2.37084">
        <ele>43.79999923706</ele>
        <time>2015-12-28T19:31:19Z</time>
      </trkpt>
      <trkpt lat="48.86324" lon="2.37113">
        <ele>43.599998474121</ele>
        <time>2015-12-28T19:31:24Z</time>
      </trkpt>
      <trkpt lat="48.86317" lon="2.37124">
        <ele>43.599998474121</ele>
        <time>2015-12-28T19:31:26Z</time>
      </trkpt>
      <trkpt lat="48.8631" lon="2.37135">
        <ele>43.599998474121</ele>
        <time>2015-12-28T19:31:28Z</time>
      </trkpt>
      <trkpt lat="48.86294" lon="2.37159">
        <ele>44</ele>
        <time>2015-12-28T19:31:32Z</time>
      </trkpt>
      <trkpt lat="48.86279" lon="2.37182">
        <ele>44.20000076294</ele>
        <time>2015-12-28T19:31:36Z</time>
      </trkpt>
      <trkpt lat="48.86263" lon="2.37207">
        <ele>44.599998474121</ele>
        <time>2015-12-28T19:31:40Z</time>
      </trkpt>
      <trkpt lat="48.86246" lon="2.37231">
        <ele>44.79999923706</ele>
        <time>2015-12-28T19:31:44Z</time>
      </trkpt>
      <trkpt lat="48.86238" lon="2.37242">
        <ele>45</ele>
        <time>2015-12-28T19:31:46Z</time>
      </trkpt>
      <trkpt lat="48.86229" lon="2.37266">
        <ele>45.20000076294</ele>
        <time>2015-12-28T19:31:50Z</time>
      </trkpt>
      <trkpt lat="48.86224" lon="2.37276">
        <ele>45.400001525879</ele>
        <time>2015-12-28T19:31:52Z</time>
      </trkpt>
      <trkpt lat="48.86211" lon="2.37301">
        <ele>46</ele>
        <time>2015-12-28T19:31:57Z</time>
      </trkpt>
      <trkpt lat="48.86208" lon="2.37306">
        <ele>46.20000076294</ele>
        <time>2015-12-28T19:31:58Z</time>
      </trkpt>
      <trkpt lat="48.86198" lon="2.37322">
        <ele>46.599998474121</ele>
        <time>2015-12-28T19:32:01Z</time>
      </trkpt>
      <trkpt lat="48.86192" lon="2.37333">
        <ele>47</ele>
        <time>2015-12-28T19:32:03Z</time>
      </trkpt>
      <trkpt lat="48.86178" lon="2.37358">
        <ele>46</ele>
        <time>2015-12-28T19:32:08Z</time>
      </trkpt>
      <trkpt lat="48.86166" lon="2.37381">
        <ele>45.20000076294</ele>
        <time>2015-12-28T19:32:12Z</time>
      </trkpt>
      <trkpt lat="48.86157" lon="2.37397">
        <ele>44.79999923706</ele>
        <time>2015-12-28T19:32:15Z</time>
      </trkpt>
      <trkpt lat="48.86144" lon="2.37419">
        <ele>44.400001525879</ele>
        <time>2015-12-28T19:32:19Z</time>
      </trkpt>
      <trkpt lat="48.8613" lon="2.37441">
        <ele>44.20000076294</ele>
        <time>2015-12-28T19:32:23Z</time>
      </trkpt>
      <trkpt lat="48.86115" lon="2.37462">
        <ele>43.20000076294</ele>
        <time>2015-12-28T19:32:27Z</time>
      </trkpt>
      <trkpt lat="48.86101" lon="2.37478">
        <ele>42.400001525879</ele>
        <time>2015-12-28T19:32:31Z</time>
      </trkpt>
      <trkpt lat="48.86086" lon="2.37498">
        <ele>42.400001525879</ele>
        <time>2015-12-28T19:32:35Z</time>
      </trkpt>
      <trkpt lat="48.86073" lon="2.37519">
        <ele>43</ele>
        <time>2015-12-28T19:32:39Z</time>
      </trkpt>
      <trkpt lat="48.86058" lon="2.37538">
        <ele>43.79999923706</ele>
        <time>2015-12-28T19:32:43Z</time>
      </trkpt>
      <trkpt lat="48.86046" lon="2.37553">
        <ele>44.79999923706</ele>
        <time>2015-12-28T19:32:46Z</time>
      </trkpt>
      <trkpt lat="48.86032" lon="2.37575">
        <ele>46.400001525879</ele>
        <time>2015-12-28T19:32:50Z</time>
      </trkpt>
      <trkpt lat="48.86018" lon="2.37599">
        <ele>47</ele>
        <time>2015-12-28T19:32:54Z</time>
      </trkpt>
      <trkpt lat="48.86004" lon="2.37621">
        <ele>46.400001525879</ele>
        <time>2015-12-28T19:32:58Z</time>
      </trkpt>
      <trkpt lat="48.85992" lon="2.37646">
        <ele>46</ele>
        <time>2015-12-28T19:33:02Z</time>
      </trkpt>
      <trkpt lat="48.85983" lon="2.37671">
        <ele>46.20000076294</ele>
        <time>2015-12-28T19:33:06Z</time>
      </trkpt>
      <trkpt lat="48.85969" lon="2.37693">
        <ele>46</ele>
        <time>2015-12-28T19:33:10Z</time>
      </trkpt>
      <trkpt lat="48.85957" lon="2.37719">
        <ele>46.599998474121</ele>
        <time>2015-12-28T19:33:14Z</time>
      </trkpt>
      <trkpt lat="48.85945" lon="2.37746">
        <ele>47.20000076294</ele>
        <time>2015-12-28T19:33:18Z</time>
      </trkpt>
      <trkpt lat="48.85943" lon="2.37754">
        <ele>47.20000076294</ele>
        <time>2015-12-28T19:33:19Z</time>
      </trkpt>
      <trkpt lat="48.85929" lon="2.3778">
        <ele>46.79999923706</ele>
        <time>2015-12-28T19:33:23Z</time>
      </trkpt>
      <trkpt lat="48.85916" lon="2.37805">
        <ele>46.400001525879</ele>
        <time>2015-12-28T19:33:27Z</time>
      </trkpt>
      <trkpt lat="48.85903" lon="2.37826">
        <ele>46.599998474121</ele>
        <time>2015-12-28T19:33:31Z</time>
      </trkpt>
      <trkpt lat="48.85889" lon="2.37845">
        <ele>46.599998474121</ele>
        <time>2015-12-28T19:33:35Z</time>
      </trkpt>
      <trkpt lat="48.85874" lon="2.37863">
        <ele>46.400001525879</ele>
        <time>2015-12-28T19:33:39Z</time>
      </trkpt>
      <trkpt lat="48.85859" lon="2.37887">
        <ele>46</ele>
        <time>2015-12-28T19:33:44Z</time>
      </trkpt>
      <trkpt lat="48.85851" lon="2.37902">
        <ele>45.79999923706</ele>
        <time>2015-12-28T19:33:47Z</time>
      </trkpt>
      <trkpt lat="48.85839" lon="2.37923">
        <ele>45.20000076294</ele>
        <time>2015-12-28T19:33:51Z</time>
      </trkpt>
      <trkpt lat="48.85826" lon="2.37943">
        <ele>44.20000076294</ele>
        <time>2015-12-28T19:33:56Z</time>
      </trkpt>
      <trkpt lat="48.85814" lon="2.37967">
        <ele>43.599998474121</ele>
        <time>2015-12-28T19:34:03Z</time>
      </trkpt>
      <trkpt lat="48.85801" lon="2.37991">
        <ele>44</ele>
        <time>2015-12-28T19:34:09Z</time>
      </trkpt>
      <trkpt lat="48.85799" lon="2.37996">
        <ele>44</ele>
        <time>2015-12-28T19:34:10Z</time>
      </trkpt>
      <trkpt lat="48.85781" lon="2.38012">
        <ele>44.400001525879</ele>
        <time>2015-12-28T19:34:15Z</time>
      </trkpt>
      <trkpt lat="48.85771" lon="2.38017">
        <ele>44.79999923706</ele>
        <time>2015-12-28T19:34:22Z</time>
      </trkpt>
      <trkpt lat="48.85771" lon="2.38017">
        <ele>44.599998474121</ele>
        <time>2015-12-28T19:34:23Z</time>
      </trkpt>
      <trkpt lat="48.85761" lon="2.38039">
        <ele>45.599998474121</ele>
        <time>2015-12-28T19:34:36Z</time>
      </trkpt>
      <trkpt lat="48.85747" lon="2.38064">
        <ele>46.400001525879</ele>
        <time>2015-12-28T19:34:42Z</time>
      </trkpt>
      <trkpt lat="48.85732" lon="2.38085">
        <ele>46.599998474121</ele>
        <time>2015-12-28T19:34:47Z</time>
      </trkpt>
      <trkpt lat="48.85715" lon="2.38105">
        <ele>46.599998474121</ele>
        <time>2015-12-28T19:34:51Z</time>
      </trkpt>
      <trkpt lat="48.85699" lon="2.38128">
        <ele>47.20000076294</ele>
        <time>2015-12-28T19:34:55Z</time>
      </trkpt>
      <trkpt lat="48.85685" lon="2.38152">
        <ele>47.599998474121</ele>
        <time>2015-12-28T19:34:59Z</time>
      </trkpt>
      <trkpt lat="48.85671" lon="2.38174">
        <ele>48</ele>
        <time>2015-12-28T19:35:03Z</time>
      </trkpt>
      <trkpt lat="48.85656" lon="2.38199">
        <ele>48</ele>
        <time>2015-12-28T19:35:07Z</time>
      </trkpt>
      <trkpt lat="48.8565" lon="2.38213">
        <ele>47.79999923706</ele>
        <time>2015-12-28T19:35:09Z</time>
      </trkpt>
      <trkpt lat="48.85635" lon="2.38238">
        <ele>47</ele>
        <time>2015-12-28T19:35:13Z</time>
      </trkpt>
      <trkpt lat="48.8562" lon="2.38262">
        <ele>46.400001525879</ele>
        <time>2015-12-28T19:35:17Z</time>
      </trkpt>
      <trkpt lat="48.8561" lon="2.38283">
        <ele>45.400001525879</ele>
        <time>2015-12-28T19:35:20Z</time>
      </trkpt>
      <trkpt lat="48.856" lon="2.38304">
        <ele>44.599998474121</ele>
        <time>2015-12-28T19:35:23Z</time>
      </trkpt>
      <trkpt lat="48.85587" lon="2.38333">
        <ele>45</ele>
        <time>2015-12-28T19:35:27Z</time>
      </trkpt>
      <trkpt lat="48.85572" lon="2.38361">
        <ele>45.599998474121</ele>
        <time>2015-12-28T19:35:31Z</time>
      </trkpt>
      <trkpt lat="48.85558" lon="2.38383">
        <ele>46.20000076294</ele>
        <time>2015-12-28T19:35:34Z</time>
      </trkpt>
      <trkpt lat="48.85545" lon="2.38403">
        <ele>47</ele>
        <time>2015-12-28T19:35:37Z</time>
      </trkpt>
      <trkpt lat="48.85528" lon="2.38428">
        <ele>48</ele>
        <time>2015-12-28T19:35:41Z</time>
      </trkpt>
      <trkpt lat="48.8552" lon="2.3844">
        <ele>48.20000076294</ele>
        <time>2015-12-28T19:35:43Z</time>
      </trkpt>
      <trkpt lat="48.85507" lon="2.38465">
        <ele>48.20000076294</ele>
        <time>2015-12-28T19:35:47Z</time>
      </trkpt>
      <trkpt lat="48.85491" lon="2.38487">
        <ele>47.79999923706</ele>
        <time>2015-12-28T19:35:52Z</time>
      </trkpt>
      <trkpt lat="48.85476" lon="2.38506">
        <ele>47.400001525879</ele>
        <time>2015-12-28T19:35:57Z</time>
      </trkpt>
      <trkpt lat="48.85472" lon="2.38512">
        <ele>47.20000076294</ele>
        <time>2015-12-28T19:35:59Z</time>
      </trkpt>
      <trkpt lat="48.85472" lon="2.38529">
        <ele>47.20000076294</ele>
        <time>2015-12-28T19:36:03Z</time>
      </trkpt>
      <trkpt lat="48.85471" lon="2.38532">
        <ele>47.20000076294</ele>
        <time>2015-12-28T19:36:04Z</time>
      </trkpt>
      <trkpt lat="48.85472" lon="2.38536">
        <ele>47.20000076294</ele>
        <time>2015-12-28T19:36:06Z</time>
      </trkpt>
      <trkpt lat="48.85476" lon="2.38544">
        <ele>47.400001525879</ele>
        <time>2015-12-28T19:36:10Z</time>
      </trkpt>
      <trkpt lat="48.85476" lon="2.38546">
        <ele>47.400001525879</ele>
        <time>2015-12-28T19:36:11Z</time>
      </trkpt>
      <trkpt lat="48.85483" lon="2.38566">
        <ele>47.79999923706</ele>
        <time>2015-12-28T19:36:15Z</time>
      </trkpt>
      <trkpt lat="48.85489" lon="2.3859">
        <ele>48.20000076294</ele>
        <time>2015-12-28T19:36:19Z</time>
      </trkpt>
      <trkpt lat="48.85494" lon="2.38616">
        <ele>48.400001525879</ele>
        <time>2015-12-28T19:36:23Z</time>
      </trkpt>
      <trkpt lat="48.855" lon="2.38642">
        <ele>48.400001525879</ele>
        <time>2015-12-28T19:36:27Z</time>
      </trkpt>
      <trkpt lat="48.85505" lon="2.38673">
        <ele>48.599998474121</ele>
        <time>2015-12-28T19:36:32Z</time>
      </trkpt>
      <trkpt lat="48.85512" lon="2.38705">
        <ele>49.20000076294</ele>
        <time>2015-12-28T19:36:37Z</time>
      </trkpt>
      <trkpt lat="48.85513" lon="2.38737">
        <ele>49.599998474121</ele>
        <time>2015-12-28T19:36:42Z</time>
      </trkpt>
      <trkpt lat="48.85514" lon="2.38763">
        <ele>50</ele>
        <time>2015-12-28T19:36:46Z</time>
      </trkpt>
      <trkpt lat="48.85518" lon="2.38787">
        <ele>51.20000076294</ele>
        <time>2015-12-28T19:36:50Z</time>
      </trkpt>
      <trkpt lat="48.8552" lon="2.38798">
        <ele>51.599998474121</ele>
        <time>2015-12-28T19:36:52Z</time>
      </trkpt>
      <trkpt lat="48.85526" lon="2.38828">
        <ele>52.79999923706</ele>
        <time>2015-12-28T19:36:57Z</time>
      </trkpt>
      <trkpt lat="48.8553" lon="2.3886">
        <ele>53.400001525879</ele>
        <time>2015-12-28T19:37:02Z</time>
      </trkpt>
      <trkpt lat="48.85533" lon="2.38871">
        <ele>53.400001525879</ele>
        <time>2015-12-28T19:37:04Z</time>
      </trkpt>
      <trkpt lat="48.8554" lon="2.38898">
        <ele>53.79999923706</ele>
        <time>2015-12-28T19:37:09Z</time>
      </trkpt>
      <trkpt lat="48.85541" lon="2.38904">
        <ele>53.79999923706</ele>
        <time>2015-12-28T19:37:10Z</time>
      </trkpt>
      <trkpt lat="48.85548" lon="2.38932">
        <ele>54</ele>
        <time>2015-12-28T19:37:15Z</time>
      </trkpt>
      <trkpt lat="48.85555" lon="2.38959">
        <ele>54.599998474121</ele>
        <time>2015-12-28T19:37:20Z</time>
      </trkpt>
      <trkpt lat="48.85559" lon="2.38988">
        <ele>55.79999923706</ele>
        <time>2015-12-28T19:37:25Z</time>
      </trkpt>
      <trkpt lat="48.85564" lon="2.39015">
        <ele>56.20000076294</ele>
        <time>2015-12-28T19:37:30Z</time>
      </trkpt>
      <trkpt lat="48.85569" lon="2.39043">
        <ele>56.400001525879</ele>
        <time>2015-12-28T19:37:35Z</time>
      </trkpt>
      <trkpt lat="48.85576" lon="2.39074">
        <ele>55.79999923706</ele>
        <time>2015-12-28T19:37:41Z</time>
      </trkpt>
      <trkpt lat="48.8558" lon="2.39102">
        <ele>56.400001525879</ele>
        <time>2015-12-28T19:37:49Z</time>
      </trkpt>
      <trkpt lat="48.85582" lon="2.3911">
        <ele>56.599998474121</ele>
        <time>2015-12-28T19:37:53Z</time>
      </trkpt>
      <trkpt lat="48.85573" lon="2.39134">
        <ele>57.599998474121</ele>
        <time>2015-12-28T19:38:34Z</time>
      </trkpt>
      <trkpt lat="48.85559" lon="2.39154">
        <ele>58.400001525879</ele>
        <time>2015-12-28T19:38:43Z</time>
      </trkpt>
      <trkpt lat="48.85541" lon="2.3917">
        <ele>58.79999923706</ele>
        <time>2015-12-28T19:38:50Z</time>
      </trkpt>
      <trkpt lat="48.85524" lon="2.39187">
        <ele>60</ele>
        <time>2015-12-28T19:38:56Z</time>
      </trkpt>
      <trkpt lat="48.85507" lon="2.39202">
        <ele>60.400001525879</ele>
        <time>2015-12-28T19:39:01Z</time>
      </trkpt>
      <trkpt lat="48.85489" lon="2.39213">
        <ele>60.400001525879</ele>
        <time>2015-12-28T19:39:05Z</time>
      </trkpt>
      <trkpt lat="48.85469" lon="2.39219">
        <ele>60.79999923706</ele>
        <time>2015-12-28T19:39:09Z</time>
      </trkpt>
      <trkpt lat="48.8545" lon="2.39229">
        <ele>61.599998474121</ele>
        <time>2015-12-28T19:39:13Z</time>
      </trkpt>
      <trkpt lat="48.85432" lon="2.39238">
        <ele>62.400001525879</ele>
        <time>2015-12-28T19:39:16Z</time>
      </trkpt>
      <trkpt lat="48.85407" lon="2.39239">
        <ele>61</ele>
        <time>2015-12-28T19:39:19Z</time>
      </trkpt>
      <trkpt lat="48.85389" lon="2.39251">
        <ele>59.79999923706</ele>
        <time>2015-12-28T19:39:22Z</time>
      </trkpt>
      <trkpt lat="48.85369" lon="2.39261">
        <ele>58.400001525879</ele>
        <time>2015-12-28T19:39:25Z</time>
      </trkpt>
      <trkpt lat="48.85357" lon="2.3927">
        <ele>57.20000076294</ele>
        <time>2015-12-28T19:39:27Z</time>
      </trkpt>
      <trkpt lat="48.85339" lon="2.39282">
        <ele>56.400001525879</ele>
        <time>2015-12-28T19:39:30Z</time>
      </trkpt>
      <trkpt lat="48.85321" lon="2.39295">
        <ele>55.400001525879</ele>
        <time>2015-12-28T19:39:33Z</time>
      </trkpt>
      <trkpt lat="48.85303" lon="2.39307">
        <ele>56</ele>
        <time>2015-12-28T19:39:36Z</time>
      </trkpt>
      <trkpt lat="48.85297" lon="2.39311">
        <ele>56.20000076294</ele>
        <time>2015-12-28T19:39:37Z</time>
      </trkpt>
      <trkpt lat="48.8528" lon="2.39324">
        <ele>56.79999923706</ele>
        <time>2015-12-28T19:39:40Z</time>
      </trkpt>
      <trkpt lat="48.85262" lon="2.39337">
        <ele>56.79999923706</ele>
        <time>2015-12-28T19:39:43Z</time>
      </trkpt>
      <trkpt lat="48.85245" lon="2.39352">
        <ele>56.79999923706</ele>
        <time>2015-12-28T19:39:46Z</time>
      </trkpt>
      <trkpt lat="48.8523" lon="2.3937">
        <ele>56.79999923706</ele>
        <time>2015-12-28T19:39:49Z</time>
      </trkpt>
      <trkpt lat="48.8522" lon="2.39381">
        <ele>57</ele>
        <time>2015-12-28T19:39:51Z</time>
      </trkpt>
      <trkpt lat="48.85205" lon="2.394">
        <ele>57</ele>
        <time>2015-12-28T19:39:54Z</time>
      </trkpt>
      <trkpt lat="48.852" lon="2.39407">
        <ele>57</ele>
        <time>2015-12-28T19:39:55Z</time>
      </trkpt>
      <trkpt lat="48.85187" lon="2.39419">
        <ele>57</ele>
        <time>2015-12-28T19:39:57Z</time>
      </trkpt>
      <trkpt lat="48.8517" lon="2.39434">
        <ele>56.599998474121</ele>
        <time>2015-12-28T19:40:00Z</time>
      </trkpt>
      <trkpt lat="48.8515" lon="2.39443">
        <ele>56</ele>
        <time>2015-12-28T19:40:03Z</time>
      </trkpt>
      <trkpt lat="48.85131" lon="2.39453">
        <ele>55.79999923706</ele>
        <time>2015-12-28T19:40:06Z</time>
      </trkpt>
      <trkpt lat="48.85115" lon="2.39453">
        <ele>55.79999923706</ele>
        <time>2015-12-28T19:40:08Z</time>
      </trkpt>
      <trkpt lat="48.85096" lon="2.3946">
        <ele>56.20000076294</ele>
        <time>2015-12-28T19:40:11Z</time>
      </trkpt>
      <trkpt lat="48.85076" lon="2.39474">
        <ele>56.79999923706</ele>
        <time>2015-12-28T19:40:15Z</time>
      </trkpt>
      <trkpt lat="48.85067" lon="2.3948">
        <ele>56.79999923706</ele>
        <time>2015-12-28T19:40:17Z</time>
      </trkpt>
      <trkpt lat="48.85049" lon="2.39492">
        <ele>57</ele>
        <time>2015-12-28T19:40:22Z</time>
      </trkpt>
      <trkpt lat="48.8503" lon="2.39503">
        <ele>57</ele>
        <time>2015-12-28T19:40:28Z</time>
      </trkpt>
      <trkpt lat="48.85011" lon="2.39517">
        <ele>56</ele>
        <time>2015-12-28T19:40:34Z</time>
      </trkpt>
      <trkpt lat="48.84992" lon="2.39528">
        <ele>54.79999923706</ele>
        <time>2015-12-28T19:40:39Z</time>
      </trkpt>
      <trkpt lat="48.84976" lon="2.39536">
        <ele>54</ele>
        <time>2015-12-28T19:40:43Z</time>
      </trkpt>
      <trkpt lat="48.8497" lon="2.39541">
        <ele>53.79999923706</ele>
        <time>2015-12-28T19:40:45Z</time>
      </trkpt>
      <trkpt lat="48.84964" lon="2.39546">
        <ele>53.79999923706</ele>
        <time>2015-12-28T19:40:47Z</time>
      </trkpt>
      <trkpt lat="48.84945" lon="2.39547">
        <ele>53.599998474121</ele>
        <time>2015-12-28T19:40:53Z</time>
      </trkpt>
      <trkpt lat="48.84943" lon="2.39546">
        <ele>53.599998474121</ele>
        <time>2015-12-28T19:40:57Z</time>
      </trkpt>
      <trkpt lat="48.8493" lon="2.39536">
        <ele>53.20000076294</ele>
        <time>2015-12-28T19:42:31Z</time>
      </trkpt>
      <trkpt lat="48.84918" lon="2.39554">
        <ele>53.20000076294</ele>
        <time>2015-12-28T19:43:14Z</time>
      </trkpt>
      <trkpt lat="48.849" lon="2.39561">
        <ele>52.599998474121</ele>
        <time>2015-12-28T19:43:26Z</time>
      </trkpt>
      <trkpt lat="48.84899" lon="2.39561">
        <ele>52.599998474121</ele>
        <time>2015-12-28T19:43:27Z</time>
      </trkpt>
      <trkpt lat="48.84886" lon="2.39543">
        <ele>52</ele>
        <time>2015-12-28T19:43:36Z</time>
      </trkpt>
      <trkpt lat="48.8487" lon="2.39527">
        <ele>51.400001525879</ele>
        <time>2015-12-28T19:43:43Z</time>
      </trkpt>
      <trkpt lat="48.84848" lon="2.39525">
        <ele>51.599998474121</ele>
        <time>2015-12-28T19:43:49Z</time>
      </trkpt>
      <trkpt lat="48.84828" lon="2.39528">
        <ele>53.400001525879</ele>
        <time>2015-12-28T19:43:54Z</time>
      </trkpt>
      <trkpt lat="48.8481" lon="2.3954">
        <ele>54.79999923706</ele>
        <time>2015-12-28T19:43:59Z</time>
      </trkpt>
      <trkpt lat="48.84796" lon="2.39563">
        <ele>55.599998474121</ele>
        <time>2015-12-28T19:44:04Z</time>
      </trkpt>
      <trkpt lat="48.84791" lon="2.39594">
        <ele>55.79999923706</ele>
        <time>2015-12-28T19:44:09Z</time>
      </trkpt>
      <trkpt lat="48.84795" lon="2.39626">
        <ele>55.400001525879</ele>
        <time>2015-12-28T19:44:14Z</time>
      </trkpt>
      <trkpt lat="48.84805" lon="2.39649">
        <ele>54.599998474121</ele>
        <time>2015-12-28T19:44:18Z</time>
      </trkpt>
      <trkpt lat="48.84821" lon="2.39663">
        <ele>53.599998474121</ele>
        <time>2015-12-28T19:44:22Z</time>
      </trkpt>
      <trkpt lat="48.84831" lon="2.39666">
        <ele>53.20000076294</ele>
        <time>2015-12-28T19:44:24Z</time>
      </trkpt>
      <trkpt lat="48.84852" lon="2.39661">
        <ele>52.20000076294</ele>
        <time>2015-12-28T19:44:28Z</time>
      </trkpt>
      <trkpt lat="48.84857" lon="2.39658">
        <ele>52</ele>
        <time>2015-12-28T19:44:29Z</time>
      </trkpt>
      <trkpt lat="48.84862" lon="2.39654">
        <ele>52.400001525879</ele>
        <time>2015-12-28T19:44:30Z</time>
      </trkpt>
      <trkpt lat="48.84875" lon="2.39631">
        <ele>53</ele>
        <time>2015-12-28T19:44:34Z</time>
      </trkpt>
      <trkpt lat="48.8488" lon="2.39617">
        <ele>53.20000076294</ele>
        <time>2015-12-28T19:44:36Z</time>
      </trkpt>
      <trkpt lat="48.84883" lon="2.39589">
        <ele>52.20000076294</ele>
        <time>2015-12-28T19:44:40Z</time>
      </trkpt>
      <trkpt lat="48.84881" lon="2.39575">
        <ele>52</ele>
        <time>2015-12-28T19:44:42Z</time>
      </trkpt>
      <trkpt lat="48.8488" lon="2.39569">
        <ele>51.79999923706</ele>
        <time>2015-12-28T19:44:43Z</time>
      </trkpt>
      <trkpt lat="48.84872" lon="2.39551">
        <ele>51.599998474121</ele>
        <time>2015-12-28T19:44:47Z</time>
      </trkpt>
      <trkpt lat="48.8487" lon="2.39547">
        <ele>51.599998474121</ele>
        <time>2015-12-28T19:44:48Z</time>
      </trkpt>
      <trkpt lat="48.84854" lon="2.39532">
        <ele>51.20000076294</ele>
        <time>2015-12-28T19:44:52Z</time>
      </trkpt>
      <trkpt lat="48.84837" lon="2.39528">
        <ele>52.599998474121</ele>
        <time>2015-12-28T19:44:56Z</time>
      </trkpt>
      <trkpt lat="48.84817" lon="2.39535">
        <ele>54.20000076294</ele>
        <time>2015-12-28T19:45:00Z</time>
      </trkpt>
      <trkpt lat="48.84804" lon="2.39554">
        <ele>55</ele>
        <time>2015-12-28T19:45:04Z</time>
      </trkpt>
      <trkpt lat="48.84801" lon="2.3956">
        <ele>55.20000076294</ele>
        <time>2015-12-28T19:45:05Z</time>
      </trkpt>
      <trkpt lat="48.848" lon="2.39566">
        <ele>55.20000076294</ele>
        <time>2015-12-28T19:45:06Z</time>
      </trkpt>
      <trkpt lat="48.84797" lon="2.39595">
        <ele>55.400001525879</ele>
        <time>2015-12-28T19:45:10Z</time>
      </trkpt>
      <trkpt lat="48.84797" lon="2.39603">
        <ele>55.599998474121</ele>
        <time>2015-12-28T19:45:11Z</time>
      </trkpt>
      <trkpt lat="48.84802" lon="2.39633">
        <ele>55</ele>
        <time>2015-12-28T19:45:15Z</time>
      </trkpt>
      <trkpt lat="48.8481" lon="2.39661">
        <ele>54.20000076294</ele>
        <time>2015-12-28T19:45:19Z</time>
      </trkpt>
      <trkpt lat="48.84812" lon="2.39668">
        <ele>54.20000076294</ele>
        <time>2015-12-28T19:45:20Z</time>
      </trkpt>
      <trkpt lat="48.84816" lon="2.39701">
        <ele>55.599998474121</ele>
        <time>2015-12-28T19:45:24Z</time>
      </trkpt>
      <trkpt lat="48.84816" lon="2.39733">
        <ele>56.599998474121</ele>
        <time>2015-12-28T19:45:28Z</time>
      </trkpt>
      <trkpt lat="48.84815" lon="2.39763">
        <ele>57.400001525879</ele>
        <time>2015-12-28T19:45:32Z</time>
      </trkpt>
      <trkpt lat="48.84813" lon="2.39794">
        <ele>58.20000076294</ele>
        <time>2015-12-28T19:45:36Z</time>
      </trkpt>
      <trkpt lat="48.84812" lon="2.39825">
        <ele>59</ele>
        <time>2015-12-28T19:45:40Z</time>
      </trkpt>
      <trkpt lat="48.8481" lon="2.39853">
        <ele>58</ele>
        <time>2015-12-28T19:45:44Z</time>
      </trkpt>
      <trkpt lat="48.84809" lon="2.39885">
        <ele>56</ele>
        <time>2015-12-28T19:45:49Z</time>
      </trkpt>
      <trkpt lat="48.84809" lon="2.39897">
        <ele>55</ele>
        <time>2015-12-28T19:45:51Z</time>
      </trkpt>
      <trkpt lat="48.84807" lon="2.39927">
        <ele>53.599998474121</ele>
        <time>2015-12-28T19:45:56Z</time>
      </trkpt>
      <trkpt lat="48.84804" lon="2.39955">
        <ele>54</ele>
        <time>2015-12-28T19:46:00Z</time>
      </trkpt>
      <trkpt lat="48.84802" lon="2.39986">
        <ele>54.599998474121</ele>
        <time>2015-12-28T19:46:04Z</time>
      </trkpt>
      <trkpt lat="48.84799" lon="2.40018">
        <ele>55.400001525879</ele>
        <time>2015-12-28T19:46:08Z</time>
      </trkpt>
      <trkpt lat="48.84797" lon="2.40052">
        <ele>57</ele>
        <time>2015-12-28T19:46:12Z</time>
      </trkpt>
      <trkpt lat="48.84794" lon="2.40086">
        <ele>58.400001525879</ele>
        <time>2015-12-28T19:46:16Z</time>
      </trkpt>
      <trkpt lat="48.84793" lon="2.4012">
        <ele>58.20000076294</ele>
        <time>2015-12-28T19:46:20Z</time>
      </trkpt>
      <trkpt lat="48.8479" lon="2.40154">
        <ele>58</ele>
        <time>2015-12-28T19:46:24Z</time>
      </trkpt>
      <trkpt lat="48.84788" lon="2.40189">
        <ele>57.400001525879</ele>
        <time>2015-12-28T19:46:28Z</time>
      </trkpt>
      <trkpt lat="48.84785" lon="2.40225">
        <ele>57.599998474121</ele>
        <time>2015-12-28T19:46:32Z</time>
      </trkpt>
      <trkpt lat="48.84782" lon="2.4026">
        <ele>58</ele>
        <time>2015-12-28T19:46:36Z</time>
      </trkpt>
      <trkpt lat="48.84779" lon="2.40295">
        <ele>59.400001525879</ele>
        <time>2015-12-28T19:46:40Z</time>
      </trkpt>
      <trkpt lat="48.84776" lon="2.40329">
        <ele>60.79999923706</ele>
        <time>2015-12-28T19:46:44Z</time>
      </trkpt>
      <trkpt lat="48.84775" lon="2.40356">
        <ele>60</ele>
        <time>2015-12-28T19:46:47Z</time>
      </trkpt>
      <trkpt lat="48.84772" lon="2.40385">
        <ele>59</ele>
        <time>2015-12-28T19:46:50Z</time>
      </trkpt>
      <trkpt lat="48.84769" lon="2.40414">
        <ele>58</ele>
        <time>2015-12-28T19:46:53Z</time>
      </trkpt>
      <trkpt lat="48.84766" lon="2.40443">
        <ele>56.400001525879</ele>
        <time>2015-12-28T19:46:56Z</time>
      </trkpt>
      <trkpt lat="48.84762" lon="2.40473">
        <ele>54.599998474121</ele>
        <time>2015-12-28T19:46:59Z</time>
      </trkpt>
      <trkpt lat="48.84758" lon="2.40502">
        <ele>53.79999923706</ele>
        <time>2015-12-28T19:47:02Z</time>
      </trkpt>
      <trkpt lat="48.84754" lon="2.40535">
        <ele>54.400001525879</ele>
        <time>2015-12-28T19:47:06Z</time>
      </trkpt>
      <trkpt lat="48.84751" lon="2.40563">
        <ele>54.79999923706</ele>
        <time>2015-12-28T19:47:10Z</time>
      </trkpt>
      <trkpt lat="48.84744" lon="2.40587">
        <ele>54.599998474121</ele>
        <time>2015-12-28T19:47:14Z</time>
      </trkpt>
      <trkpt lat="48.84742" lon="2.40599">
        <ele>54.400001525879</ele>
        <time>2015-12-28T19:47:16Z</time>
      </trkpt>
      <trkpt lat="48.84738" lon="2.40633">
        <ele>53.599998474121</ele>
        <time>2015-12-28T19:47:21Z</time>
      </trkpt>
      <trkpt lat="48.84733" lon="2.40665">
        <ele>53.400001525879</ele>
        <time>2015-12-28T19:47:26Z</time>
      </trkpt>
      <trkpt lat="48.84733" lon="2.40671">
        <ele>53.599998474121</ele>
        <time>2015-12-28T19:47:27Z</time>
      </trkpt>
      <trkpt lat="48.84731" lon="2.40692">
        <ele>53.79999923706</ele>
        <time>2015-12-28T19:47:30Z</time>
      </trkpt>
      <trkpt lat="48.8473" lon="2.40707">
        <ele>54</ele>
        <time>2015-12-28T19:47:32Z</time>
      </trkpt>
      <trkpt lat="48.84727" lon="2.40739">
        <ele>53.20000076294</ele>
        <time>2015-12-28T19:47:36Z</time>
      </trkpt>
      <trkpt lat="48.84725" lon="2.40772">
        <ele>53</ele>
        <time>2015-12-28T19:47:40Z</time>
      </trkpt>
      <trkpt lat="48.84721" lon="2.40806">
        <ele>52.599998474121</ele>
        <time>2015-12-28T19:47:44Z</time>
      </trkpt>
      <trkpt lat="48.84719" lon="2.40841">
        <ele>52.599998474121</ele>
        <time>2015-12-28T19:47:48Z</time>
      </trkpt>
      <trkpt lat="48.84716" lon="2.40875">
        <ele>54.20000076294</ele>
        <time>2015-12-28T19:47:52Z</time>
      </trkpt>
      <trkpt lat="48.84713" lon="2.40909">
        <ele>56.400001525879</ele>
        <time>2015-12-28T19:47:56Z</time>
      </trkpt>
      <trkpt lat="48.84709" lon="2.40942">
        <ele>55.79999923706</ele>
        <time>2015-12-28T19:48:00Z</time>
      </trkpt>
      <trkpt lat="48.84708" lon="2.40975">
        <ele>55.20000076294</ele>
        <time>2015-12-28T19:48:04Z</time>
      </trkpt>
      <trkpt lat="48.84705" lon="2.41009">
        <ele>54.79999923706</ele>
        <time>2015-12-28T19:48:08Z</time>
      </trkpt>
      <trkpt lat="48.84703" lon="2.41041">
        <ele>54.599998474121</ele>
        <time>2015-12-28T19:48:12Z</time>
      </trkpt>
      <trkpt lat="48.84704" lon="2.41069">
        <ele>54.400001525879</ele>
        <time>2015-12-28T19:48:16Z</time>
      </trkpt>
      <trkpt lat="48.84704" lon="2.41075">
        <ele>54.20000076294</ele>
        <time>2015-12-28T19:48:17Z</time>
      </trkpt>
      <trkpt lat="48.84704" lon="2.41088">
        <ele>54.400001525879</ele>
        <time>2015-12-28T19:48:20Z</time>
      </trkpt>
      <trkpt lat="48.84698" lon="2.41112">
        <ele>54.400001525879</ele>
        <time>2015-12-28T19:48:26Z</time>
      </trkpt>
      <trkpt lat="48.84697" lon="2.41116">
        <ele>54.20000076294</ele>
        <time>2015-12-28T19:48:27Z</time>
      </trkpt>
      <trkpt lat="48.84695" lon="2.41126">
        <ele>54.20000076294</ele>
        <time>2015-12-28T19:48:29Z</time>
      </trkpt>
      <trkpt lat="48.84706" lon="2.41141">
        <ele>54.599998474121</ele>
        <time>2015-12-28T19:48:35Z</time>
      </trkpt>
      <trkpt lat="48.84709" lon="2.4114">
        <ele>54.79999923706</ele>
        <time>2015-12-28T19:48:36Z</time>
      </trkpt>
      <trkpt lat="48.84729" lon="2.41137">
        <ele>55.400001525879</ele>
        <time>2015-12-28T19:48:41Z</time>
      </trkpt>
      <trkpt lat="48.8475" lon="2.41135">
        <ele>56</ele>
        <time>2015-12-28T19:48:46Z</time>
      </trkpt>
      <trkpt lat="48.84768" lon="2.41136">
        <ele>56.20000076294</ele>
        <time>2015-12-28T19:48:50Z</time>
      </trkpt>
      <trkpt lat="48.84783" lon="2.41135">
        <ele>56.400001525879</ele>
        <time>2015-12-28T19:48:53Z</time>
      </trkpt>
      <trkpt lat="48.84803" lon="2.41134">
        <ele>56.599998474121</ele>
        <time>2015-12-28T19:48:57Z</time>
      </trkpt>
      <trkpt lat="48.84825" lon="2.41136">
        <ele>57</ele>
        <time>2015-12-28T19:49:01Z</time>
      </trkpt>
      <trkpt lat="48.84845" lon="2.41134">
        <ele>57.599998474121</ele>
        <time>2015-12-28T19:49:05Z</time>
      </trkpt>
      <trkpt lat="48.84866" lon="2.4113">
        <ele>57.79999923706</ele>
        <time>2015-12-28T19:49:10Z</time>
      </trkpt>
      <trkpt lat="48.8487" lon="2.4113">
        <ele>57.599998474121</ele>
        <time>2015-12-28T19:49:11Z</time>
      </trkpt>
      <trkpt lat="48.84885" lon="2.41125">
        <ele>57.400001525879</ele>
        <time>2015-12-28T19:49:15Z</time>
      </trkpt>
      <trkpt lat="48.84891" lon="2.41123">
        <ele>57.20000076294</ele>
        <time>2015-12-28T19:49:17Z</time>
      </trkpt>
      <trkpt lat="48.84897" lon="2.41121">
        <ele>57.20000076294</ele>
        <time>2015-12-28T19:49:19Z</time>
      </trkpt>
      <trkpt lat="48.84907" lon="2.41103">
        <ele>58.20000076294</ele>
        <time>2015-12-28T19:49:28Z</time>
      </trkpt>
      <trkpt lat="48.84906" lon="2.41098">
        <ele>58.400001525879</ele>
        <time>2015-12-28T19:49:30Z</time>
      </trkpt>
      <trkpt lat="48.84908" lon="2.41071">
        <ele>59.20000076294</ele>
        <time>2015-12-28T19:49:49Z</time>
      </trkpt>
      <trkpt lat="48.84907" lon="2.41048">
        <ele>58.79999923706</ele>
        <time>2015-12-28T19:50:15Z</time>
      </trkpt>
      <trkpt lat="48.84905" lon="2.41018">
        <ele>59.20000076294</ele>
        <time>2015-12-28T19:50:21Z</time>
      </trkpt>
      <trkpt lat="48.849" lon="2.40991">
        <ele>58.79999923706</ele>
        <time>2015-12-28T19:50:26Z</time>
      </trkpt>
      <trkpt lat="48.84898" lon="2.4096">
        <ele>57.20000076294</ele>
        <time>2015-12-28T19:50:31Z</time>
      </trkpt>
      <trkpt lat="48.84898" lon="2.40945">
        <ele>56.400001525879</ele>
        <time>2015-12-28T19:50:36Z</time>
      </trkpt>
      <trkpt lat="48.849" lon="2.40937">
        <ele>56</ele>
        <time>2015-12-28T19:50:40Z</time>
      </trkpt>
      <trkpt lat="48.84891" lon="2.40931">
        <ele>55.20000076294</ele>
        <time>2015-12-28T19:52:04Z</time>
      </trkpt>
      <trkpt lat="48.84888" lon="2.4093">
        <ele>55</ele>
        <time>2015-12-28T19:52:06Z</time>
      </trkpt>
      <trkpt lat="48.84869" lon="2.40927">
        <ele>54.20000076294</ele>
        <time>2015-12-28T19:52:17Z</time>
      </trkpt>
      <trkpt lat="48.84851" lon="2.40925">
        <ele>53.599998474121</ele>
        <time>2015-12-28T19:52:24Z</time>
      </trkpt>
      <trkpt lat="48.84831" lon="2.40927">
        <ele>54.400001525879</ele>
        <time>2015-12-28T19:52:32Z</time>
      </trkpt>
      <trkpt lat="48.84811" lon="2.40927">
        <ele>55.20000076294</ele>
        <time>2015-12-28T19:52:38Z</time>
      </trkpt>
      <trkpt lat="48.84793" lon="2.40924">
        <ele>55.79999923706</ele>
        <time>2015-12-28T19:52:43Z</time>
      </trkpt>
      <trkpt lat="48.84774" lon="2.40924">
        <ele>55.79999923706</ele>
        <time>2015-12-28T19:52:49Z</time>
      </trkpt>
      <trkpt lat="48.84761" lon="2.40925">
        <ele>55.79999923706</ele>
        <time>2015-12-28T19:52:55Z</time>
      </trkpt>
      <trkpt lat="48.84745" lon="2.40914">
        <ele>56.20000076294</ele>
        <time>2015-12-28T19:53:03Z</time>
      </trkpt>
      <trkpt lat="48.84736" lon="2.40899">
        <ele>55.400001525879</ele>
        <time>2015-12-28T19:53:21Z</time>
      </trkpt>
      <trkpt lat="48.84723" lon="2.40896">
        <ele>55.400001525879</ele>
        <time>2015-12-28T19:53:39Z</time>
      </trkpt>
      <trkpt lat="48.84717" lon="2.40921">
        <ele>56.400001525879</ele>
        <time>2015-12-28T19:53:45Z</time>
      </trkpt>
      <trkpt lat="48.84717" lon="2.40927">
        <ele>56.20000076294</ele>
        <time>2015-12-28T19:53:46Z</time>
      </trkpt>
      <trkpt lat="48.84714" lon="2.40958">
        <ele>55.400001525879</ele>
        <time>2015-12-28T19:53:51Z</time>
      </trkpt>
      <trkpt lat="48.84712" lon="2.40992">
        <ele>54.599998474121</ele>
        <time>2015-12-28T19:53:56Z</time>
      </trkpt>
      <trkpt lat="48.8471" lon="2.41024">
        <ele>55</ele>
        <time>2015-12-28T19:54:01Z</time>
      </trkpt>
      <trkpt lat="48.84708" lon="2.41055">
        <ele>54.599998474121</ele>
        <time>2015-12-28T19:54:06Z</time>
      </trkpt>
      <trkpt lat="48.84706" lon="2.41086">
        <ele>54.400001525879</ele>
        <time>2015-12-28T19:54:12Z</time>
      </trkpt>
      <trkpt lat="48.84699" lon="2.41114">
        <ele>54.400001525879</ele>
        <time>2015-12-28T19:54:21Z</time>
      </trkpt>
      <trkpt lat="48.84697" lon="2.41142">
        <ele>54.20000076294</ele>
        <time>2015-12-28T19:54:28Z</time>
      </trkpt>
      <trkpt lat="48.84695" lon="2.41171">
        <ele>54</ele>
        <time>2015-12-28T19:54:34Z</time>
      </trkpt>
      <trkpt lat="48.84693" lon="2.41202">
        <ele>54</ele>
        <time>2015-12-28T19:54:39Z</time>
      </trkpt>
      <trkpt lat="48.84692" lon="2.41229">
        <ele>54</ele>
        <time>2015-12-28T19:54:43Z</time>
      </trkpt>
      <trkpt lat="48.84691" lon="2.41258">
        <ele>53.79999923706</ele>
        <time>2015-12-28T19:54:47Z</time>
      </trkpt>
      <trkpt lat="48.84687" lon="2.41286">
        <ele>53.20000076294</ele>
        <time>2015-12-28T19:54:51Z</time>
      </trkpt>
      <trkpt lat="48.84684" lon="2.41314">
        <ele>52.599998474121</ele>
        <time>2015-12-28T19:54:55Z</time>
      </trkpt>
      <trkpt lat="48.8468" lon="2.41346">
        <ele>51</ele>
        <time>2015-12-28T19:55:00Z</time>
      </trkpt>
      <trkpt lat="48.84679" lon="2.41352">
        <ele>50.599998474121</ele>
        <time>2015-12-28T19:55:01Z</time>
      </trkpt>
      <trkpt lat="48.84676" lon="2.41363">
        <ele>50</ele>
        <time>2015-12-28T19:55:03Z</time>
      </trkpt>
      <trkpt lat="48.84665" lon="2.41391">
        <ele>48.20000076294</ele>
        <time>2015-12-28T19:55:08Z</time>
      </trkpt>
      <trkpt lat="48.84663" lon="2.41396">
        <ele>48.20000076294</ele>
        <time>2015-12-28T19:55:09Z</time>
      </trkpt>
      <trkpt lat="48.84652" lon="2.41419">
        <ele>48.400001525879</ele>
        <time>2015-12-28T19:55:13Z</time>
      </trkpt>
      <trkpt lat="48.8465" lon="2.41425">
        <ele>48.79999923706</ele>
        <time>2015-12-28T19:55:14Z</time>
      </trkpt>
      <trkpt lat="48.84646" lon="2.41437">
        <ele>49.400001525879</ele>
        <time>2015-12-28T19:55:16Z</time>
      </trkpt>
      <trkpt lat="48.84644" lon="2.41449">
        <ele>49.79999923706</ele>
        <time>2015-12-28T19:55:18Z</time>
      </trkpt>
      <trkpt lat="48.84643" lon="2.4148">
        <ele>51.599998474121</ele>
        <time>2015-12-28T19:55:24Z</time>
      </trkpt>
      <trkpt lat="48.84648" lon="2.41504">
        <ele>52.599998474121</ele>
        <time>2015-12-28T19:55:48Z</time>
      </trkpt>
      <trkpt lat="48.84657" lon="2.4153">
        <ele>53</ele>
        <time>2015-12-28T19:55:54Z</time>
      </trkpt>
      <trkpt lat="48.84659" lon="2.41549">
        <ele>53.599998474121</ele>
        <time>2015-12-28T19:55:57Z</time>
      </trkpt>
      <trkpt lat="48.84658" lon="2.41577">
        <ele>56.400001525879</ele>
        <time>2015-12-28T19:56:01Z</time>
      </trkpt>
      <trkpt lat="48.84656" lon="2.41607">
        <ele>56</ele>
        <time>2015-12-28T19:56:05Z</time>
      </trkpt>
      <trkpt lat="48.84655" lon="2.41639">
        <ele>55.400001525879</ele>
        <time>2015-12-28T19:56:09Z</time>
      </trkpt>
      <trkpt lat="48.84652" lon="2.41668">
        <ele>55.79999923706</ele>
        <time>2015-12-28T19:56:13Z</time>
      </trkpt>
      <trkpt lat="48.8465" lon="2.41699">
        <ele>57.599998474121</ele>
        <time>2015-12-28T19:56:18Z</time>
      </trkpt>
      <trkpt lat="48.8465" lon="2.41711">
        <ele>58.20000076294</ele>
        <time>2015-12-28T19:56:20Z</time>
      </trkpt>
      <trkpt lat="48.84647" lon="2.41727">
        <ele>57.400001525879</ele>
        <time>2015-12-28T19:56:24Z</time>
      </trkpt>
      <trkpt lat="48.84647" lon="2.4173">
        <ele>57.20000076294</ele>
        <time>2015-12-28T19:56:25Z</time>
      </trkpt>
      <trkpt lat="48.84638" lon="2.41752">
        <ele>56.599998474121</ele>
        <time>2015-12-28T19:56:34Z</time>
      </trkpt>
      <trkpt lat="48.84631" lon="2.41751">
        <ele>57</ele>
        <time>2015-12-28T19:56:39Z</time>
      </trkpt>
      <trkpt lat="48.84626" lon="2.4175">
        <ele>57</ele>
        <time>2015-12-28T19:58:20Z</time>
      </trkpt>
      <trkpt lat="48.84607" lon="2.41755">
        <ele>58</ele>
        <time>2015-12-28T19:58:36Z</time>
      </trkpt>
      <trkpt lat="48.84586" lon="2.41757">
        <ele>58</ele>
        <time>2015-12-28T19:58:42Z</time>
      </trkpt>
      <trkpt lat="48.84568" lon="2.41758">
        <ele>58.20000076294</ele>
        <time>2015-12-28T19:58:47Z</time>
      </trkpt>
      <trkpt lat="48.84547" lon="2.4176">
        <ele>58.20000076294</ele>
        <time>2015-12-28T19:58:52Z</time>
      </trkpt>
      <trkpt lat="48.84525" lon="2.41763">
        <ele>58.400001525879</ele>
        <time>2015-12-28T19:58:57Z</time>
      </trkpt>
      <trkpt lat="48.84505" lon="2.41764">
        <ele>57.599998474121</ele>
        <time>2015-12-28T19:59:01Z</time>
      </trkpt>
      <trkpt lat="48.84483" lon="2.41768">
        <ele>56.599998474121</ele>
        <time>2015-12-28T19:59:06Z</time>
      </trkpt>
      <trkpt lat="48.84463" lon="2.41769">
        <ele>55.599998474121</ele>
        <time>2015-12-28T19:59:10Z</time>
      </trkpt>
      <trkpt lat="48.84443" lon="2.41771">
        <ele>54.79999923706</ele>
        <time>2015-12-28T19:59:14Z</time>
      </trkpt>
      <trkpt lat="48.84432" lon="2.41772">
        <ele>54.20000076294</ele>
        <time>2015-12-28T19:59:16Z</time>
      </trkpt>
      <trkpt lat="48.84412" lon="2.41772">
        <ele>53.599998474121</ele>
        <time>2015-12-28T19:59:20Z</time>
      </trkpt>
      <trkpt lat="48.84393" lon="2.41779">
        <ele>53</ele>
        <time>2015-12-28T19:59:24Z</time>
      </trkpt>
      <trkpt lat="48.84379" lon="2.41785">
        <ele>52.79999923706</ele>
        <time>2015-12-28T19:59:27Z</time>
      </trkpt>
      <trkpt lat="48.84358" lon="2.41788">
        <ele>52</ele>
        <time>2015-12-28T19:59:32Z</time>
      </trkpt>
      <trkpt lat="48.84345" lon="2.4179">
        <ele>52.20000076294</ele>
        <time>2015-12-28T19:59:35Z</time>
      </trkpt>
      <trkpt lat="48.84325" lon="2.41789">
        <ele>52.400001525879</ele>
        <time>2015-12-28T19:59:39Z</time>
      </trkpt>
      <trkpt lat="48.84308" lon="2.41783">
        <ele>52.400001525879</ele>
        <time>2015-12-28T19:59:43Z</time>
      </trkpt>
      <trkpt lat="48.84287" lon="2.4178">
        <ele>52.400001525879</ele>
        <time>2015-12-28T19:59:47Z</time>
      </trkpt>
      <trkpt lat="48.84264" lon="2.41779">
        <ele>52.20000076294</ele>
        <time>2015-12-28T19:59:51Z</time>
      </trkpt>
      <trkpt lat="48.84246" lon="2.41779">
        <ele>51.79999923706</ele>
        <time>2015-12-28T19:59:54Z</time>
      </trkpt>
      <trkpt lat="48.84227" lon="2.41779">
        <ele>51.20000076294</ele>
        <time>2015-12-28T19:59:57Z</time>
      </trkpt>
      <trkpt lat="48.84208" lon="2.41779">
        <ele>50.599998474121</ele>
        <time>2015-12-28T20:00:00Z</time>
      </trkpt>
      <trkpt lat="48.84185" lon="2.41782">
        <ele>50.20000076294</ele>
        <time>2015-12-28T20:00:04Z</time>
      </trkpt>
      <trkpt lat="48.84164" lon="2.41783">
        <ele>51.20000076294</ele>
        <time>2015-12-28T20:00:08Z</time>
      </trkpt>
      <trkpt lat="48.84141" lon="2.41781">
        <ele>52.400001525879</ele>
        <time>2015-12-28T20:00:12Z</time>
      </trkpt>
      <trkpt lat="48.8412" lon="2.41776">
        <ele>53.20000076294</ele>
        <time>2015-12-28T20:00:16Z</time>
      </trkpt>
      <trkpt lat="48.84101" lon="2.41774">
        <ele>53.599998474121</ele>
        <time>2015-12-28T20:00:19Z</time>
      </trkpt>
      <trkpt lat="48.84085" lon="2.41777">
        <ele>53.599998474121</ele>
        <time>2015-12-28T20:00:22Z</time>
      </trkpt>
      <trkpt lat="48.84062" lon="2.41778">
        <ele>53.599998474121</ele>
        <time>2015-12-28T20:00:26Z</time>
      </trkpt>
      <trkpt lat="48.8404" lon="2.41783">
        <ele>54</ele>
        <time>2015-12-28T20:00:30Z</time>
      </trkpt>
      <trkpt lat="48.84021" lon="2.41779">
        <ele>54.400001525879</ele>
        <time>2015-12-28T20:00:33Z</time>
      </trkpt>
      <trkpt lat="48.84002" lon="2.41776">
        <ele>54.599998474121</ele>
        <time>2015-12-28T20:00:36Z</time>
      </trkpt>
      <trkpt lat="48.83996" lon="2.41775">
        <ele>54.599998474121</ele>
        <time>2015-12-28T20:00:37Z</time>
      </trkpt>
      <trkpt lat="48.83978" lon="2.4177">
        <ele>54.79999923706</ele>
        <time>2015-12-28T20:00:40Z</time>
      </trkpt>
      <trkpt lat="48.83957" lon="2.41768">
        <ele>55</ele>
        <time>2015-12-28T20:00:44Z</time>
      </trkpt>
      <trkpt lat="48.83942" lon="2.41763">
        <ele>55</ele>
        <time>2015-12-28T20:00:47Z</time>
      </trkpt>
      <trkpt lat="48.83928" lon="2.4176">
        <ele>55.20000076294</ele>
        <time>2015-12-28T20:00:50Z</time>
      </trkpt>
      <trkpt lat="48.83918" lon="2.41759">
        <ele>55.599998474121</ele>
        <time>2015-12-28T20:00:52Z</time>
      </trkpt>
      <trkpt lat="48.83902" lon="2.41757">
        <ele>55.79999923706</ele>
        <time>2015-12-28T20:00:56Z</time>
      </trkpt>
      <trkpt lat="48.83893" lon="2.41756">
        <ele>56</ele>
        <time>2015-12-28T20:00:59Z</time>
      </trkpt>
      <trkpt lat="48.83878" lon="2.41761">
        <ele>56.400001525879</ele>
        <time>2015-12-28T20:01:03Z</time>
      </trkpt>
      <trkpt lat="48.83859" lon="2.4177">
        <ele>57</ele>
        <time>2015-12-28T20:01:08Z</time>
      </trkpt>
      <trkpt lat="48.83837" lon="2.41777">
        <ele>56.79999923706</ele>
        <time>2015-12-28T20:01:13Z</time>
      </trkpt>
      <trkpt lat="48.83815" lon="2.41785">
        <ele>56.599998474121</ele>
        <time>2015-12-28T20:01:18Z</time>
      </trkpt>
      <trkpt lat="48.83795" lon="2.41793">
        <ele>56.599998474121</ele>
        <time>2015-12-28T20:01:22Z</time>
      </trkpt>
      <trkpt lat="48.83792" lon="2.41795">
        <ele>56.599998474121</ele>
        <time>2015-12-28T20:01:23Z</time>
      </trkpt>
      <trkpt lat="48.83773" lon="2.41808">
        <ele>56.79999923706</ele>
        <time>2015-12-28T20:01:28Z</time>
      </trkpt>
      <trkpt lat="48.83753" lon="2.41816">
        <ele>56.79999923706</ele>
        <time>2015-12-28T20:01:33Z</time>
      </trkpt>
      <trkpt lat="48.83736" lon="2.41827">
        <ele>57.400001525879</ele>
        <time>2015-12-28T20:01:37Z</time>
      </trkpt>
      <trkpt lat="48.83717" lon="2.41836">
        <ele>57.599998474121</ele>
        <time>2015-12-28T20:01:41Z</time>
      </trkpt>
      <trkpt lat="48.83712" lon="2.41839">
        <ele>57.79999923706</ele>
        <time>2015-12-28T20:01:42Z</time>
      </trkpt>
      <trkpt lat="48.83693" lon="2.41852">
        <ele>58</ele>
        <time>2015-12-28T20:01:46Z</time>
      </trkpt>
      <trkpt lat="48.83679" lon="2.41863">
        <ele>57.79999923706</ele>
        <time>2015-12-28T20:01:49Z</time>
      </trkpt>
      <trkpt lat="48.83662" lon="2.41876">
        <ele>57.599998474121</ele>
        <time>2015-12-28T20:01:53Z</time>
      </trkpt>
      <trkpt lat="48.83647" lon="2.41885">
        <ele>57.599998474121</ele>
        <time>2015-12-28T20:01:56Z</time>
      </trkpt>
      <trkpt lat="48.83628" lon="2.41896">
        <ele>57.20000076294</ele>
        <time>2015-12-28T20:02:00Z</time>
      </trkpt>
      <trkpt lat="48.83606" lon="2.4191">
        <ele>57</ele>
        <time>2015-12-28T20:02:04Z</time>
      </trkpt>
      <trkpt lat="48.83585" lon="2.41923">
        <ele>56.20000076294</ele>
        <time>2015-12-28T20:02:08Z</time>
      </trkpt>
      <trkpt lat="48.83565" lon="2.41937">
        <ele>55.599998474121</ele>
        <time>2015-12-28T20:02:12Z</time>
      </trkpt>
      <trkpt lat="48.83546" lon="2.41949">
        <ele>55</ele>
        <time>2015-12-28T20:02:16Z</time>
      </trkpt>
      <trkpt lat="48.83527" lon="2.4196">
        <ele>54.599998474121</ele>
        <time>2015-12-28T20:02:20Z</time>
      </trkpt>
      <trkpt lat="48.83507" lon="2.41971">
        <ele>54.599998474121</ele>
        <time>2015-12-28T20:02:25Z</time>
      </trkpt>
      <trkpt lat="48.83493" lon="2.41976">
        <ele>54.79999923706</ele>
        <time>2015-12-28T20:02:29Z</time>
      </trkpt>
      <trkpt lat="48.83481" lon="2.41992">
        <ele>55</ele>
        <time>2015-12-28T20:02:52Z</time>
      </trkpt>
      <trkpt lat="48.83465" lon="2.42004">
        <ele>55</ele>
        <time>2015-12-28T20:02:59Z</time>
      </trkpt>
      <trkpt lat="48.83448" lon="2.42015">
        <ele>54.599998474121</ele>
        <time>2015-12-28T20:03:05Z</time>
      </trkpt>
      <trkpt lat="48.83428" lon="2.42027">
        <ele>53.79999923706</ele>
        <time>2015-12-28T20:03:11Z</time>
      </trkpt>
      <trkpt lat="48.83408" lon="2.42036">
        <ele>53.20000076294</ele>
        <time>2015-12-28T20:03:16Z</time>
      </trkpt>
      <trkpt lat="48.83389" lon="2.4204">
        <ele>53.20000076294</ele>
        <time>2015-12-28T20:03:20Z</time>
      </trkpt>
      <trkpt lat="48.83368" lon="2.42042">
        <ele>53.400001525879</ele>
        <time>2015-12-28T20:03:24Z</time>
      </trkpt>
      <trkpt lat="48.8335" lon="2.42042">
        <ele>53.400001525879</ele>
        <time>2015-12-28T20:03:27Z</time>
      </trkpt>
      <trkpt lat="48.83331" lon="2.42041">
        <ele>53</ele>
        <time>2015-12-28T20:03:30Z</time>
      </trkpt>
      <trkpt lat="48.83312" lon="2.4204">
        <ele>52.400001525879</ele>
        <time>2015-12-28T20:03:33Z</time>
      </trkpt>
      <trkpt lat="48.8329" lon="2.42041">
        <ele>52.20000076294</ele>
        <time>2015-12-28T20:03:36Z</time>
      </trkpt>
      <trkpt lat="48.8327" lon="2.42042">
        <ele>52</ele>
        <time>2015-12-28T20:03:39Z</time>
      </trkpt>
      <trkpt lat="48.83247" lon="2.42046">
        <ele>52.400001525879</ele>
        <time>2015-12-28T20:03:43Z</time>
      </trkpt>
      <trkpt lat="48.83229" lon="2.42051">
        <ele>53</ele>
        <time>2015-12-28T20:03:46Z</time>
      </trkpt>
      <trkpt lat="48.83209" lon="2.42056">
        <ele>54</ele>
        <time>2015-12-28T20:03:49Z</time>
      </trkpt>
      <trkpt lat="48.83195" lon="2.42059">
        <ele>54.79999923706</ele>
        <time>2015-12-28T20:03:51Z</time>
      </trkpt>
      <trkpt lat="48.83173" lon="2.42062">
        <ele>55.20000076294</ele>
        <time>2015-12-28T20:03:54Z</time>
      </trkpt>
      <trkpt lat="48.8315" lon="2.42063">
        <ele>55</ele>
        <time>2015-12-28T20:03:57Z</time>
      </trkpt>
      <trkpt lat="48.83126" lon="2.42065">
        <ele>54.79999923706</ele>
        <time>2015-12-28T20:04:00Z</time>
      </trkpt>
      <trkpt lat="48.83104" lon="2.42065">
        <ele>54.599998474121</ele>
        <time>2015-12-28T20:04:03Z</time>
      </trkpt>
      <trkpt lat="48.83081" lon="2.42064">
        <ele>54.400001525879</ele>
        <time>2015-12-28T20:04:06Z</time>
      </trkpt>
      <trkpt lat="48.83058" lon="2.42061">
        <ele>54.20000076294</ele>
        <time>2015-12-28T20:04:09Z</time>
      </trkpt>
      <trkpt lat="48.83034" lon="2.42057">
        <ele>53.79999923706</ele>
        <time>2015-12-28T20:04:12Z</time>
      </trkpt>
      <trkpt lat="48.83011" lon="2.42051">
        <ele>53.599998474121</ele>
        <time>2015-12-28T20:04:15Z</time>
      </trkpt>
      <trkpt lat="48.82987" lon="2.42041">
        <ele>53.599998474121</ele>
        <time>2015-12-28T20:04:18Z</time>
      </trkpt>
      <trkpt lat="48.82963" lon="2.4203">
        <ele>53.400001525879</ele>
        <time>2015-12-28T20:04:21Z</time>
      </trkpt>
      <trkpt lat="48.8294" lon="2.42016">
        <ele>53.20000076294</ele>
        <time>2015-12-28T20:04:24Z</time>
      </trkpt>
      <trkpt lat="48.82918" lon="2.42002">
        <ele>53.20000076294</ele>
        <time>2015-12-28T20:04:27Z</time>
      </trkpt>
      <trkpt lat="48.82899" lon="2.41991">
        <ele>53.20000076294</ele>
        <time>2015-12-28T20:04:30Z</time>
      </trkpt>
      <trkpt lat="48.82877" lon="2.4198">
        <ele>53.20000076294</ele>
        <time>2015-12-28T20:04:34Z</time>
      </trkpt>
      <trkpt lat="48.82869" lon="2.41974">
        <ele>53.20000076294</ele>
        <time>2015-12-28T20:04:36Z</time>
      </trkpt>
      <trkpt lat="48.8286" lon="2.41956">
        <ele>53</ele>
        <time>2015-12-28T20:04:40Z</time>
      </trkpt>
      <trkpt lat="48.82858" lon="2.41952">
        <ele>52.79999923706</ele>
        <time>2015-12-28T20:04:41Z</time>
      </trkpt>
      <trkpt lat="48.82844" lon="2.41946">
        <ele>52.79999923706</ele>
        <time>2015-12-28T20:04:46Z</time>
      </trkpt>
      <trkpt lat="48.8283" lon="2.41945">
        <ele>53</ele>
        <time>2015-12-28T20:04:52Z</time>
      </trkpt>
      <trkpt lat="48.82822" lon="2.41943">
        <ele>53</ele>
        <time>2015-12-28T20:04:57Z</time>
      </trkpt>
      <trkpt lat="48.82819" lon="2.41943">
        <ele>53.20000076294</ele>
        <time>2015-12-28T20:05:00Z</time>
      </trkpt>
      <trkpt lat="48.82808" lon="2.41932">
        <ele>53</ele>
        <time>2015-12-28T20:05:38Z</time>
      </trkpt>
      <trkpt lat="48.82789" lon="2.41937">
        <ele>53.400001525879</ele>
        <time>2015-12-28T20:05:43Z</time>
      </trkpt>
      <trkpt lat="48.82779" lon="2.41937">
        <ele>53.400001525879</ele>
        <time>2015-12-28T20:05:45Z</time>
      </trkpt>
      <trkpt lat="48.82757" lon="2.41939">
        <ele>53</ele>
        <time>2015-12-28T20:05:49Z</time>
      </trkpt>
      <trkpt lat="48.82752" lon="2.41939">
        <ele>52.79999923706</ele>
        <time>2015-12-28T20:05:50Z</time>
      </trkpt>
      <trkpt lat="48.82729" lon="2.41946">
        <ele>52.20000076294</ele>
        <time>2015-12-28T20:05:54Z</time>
      </trkpt>
      <trkpt lat="48.82711" lon="2.41952">
        <ele>51.599998474121</ele>
        <time>2015-12-28T20:05:57Z</time>
      </trkpt>
      <trkpt lat="48.82692" lon="2.4196">
        <ele>51.20000076294</ele>
        <time>2015-12-28T20:06:00Z</time>
      </trkpt>
      <trkpt lat="48.82673" lon="2.41965">
        <ele>51.599998474121</ele>
        <time>2015-12-28T20:06:03Z</time>
      </trkpt>
      <trkpt lat="48.82652" lon="2.4197">
        <ele>52.20000076294</ele>
        <time>2015-12-28T20:06:06Z</time>
      </trkpt>
      <trkpt lat="48.82629" lon="2.41976">
        <ele>52.400001525879</ele>
        <time>2015-12-28T20:06:09Z</time>
      </trkpt>
      <trkpt lat="48.82606" lon="2.41982">
        <ele>52.79999923706</ele>
        <time>2015-12-28T20:06:12Z</time>
      </trkpt>
      <trkpt lat="48.82583" lon="2.41985">
        <ele>53.400001525879</ele>
        <time>2015-12-28T20:06:15Z</time>
      </trkpt>
      <trkpt lat="48.82563" lon="2.41988">
        <ele>53.599998474121</ele>
        <time>2015-12-28T20:06:18Z</time>
      </trkpt>
      <trkpt lat="48.82539" lon="2.4199">
        <ele>54</ele>
        <time>2015-12-28T20:06:22Z</time>
      </trkpt>
      <trkpt lat="48.82517" lon="2.41993">
        <ele>54.20000076294</ele>
        <time>2015-12-28T20:06:26Z</time>
      </trkpt>
      <trkpt lat="48.82496" lon="2.41997">
        <ele>54.599998474121</ele>
        <time>2015-12-28T20:06:30Z</time>
      </trkpt>
      <trkpt lat="48.82476" lon="2.41999">
        <ele>55.20000076294</ele>
        <time>2015-12-28T20:06:34Z</time>
      </trkpt>
      <trkpt lat="48.82458" lon="2.41999">
        <ele>55.599998474121</ele>
        <time>2015-12-28T20:06:38Z</time>
      </trkpt>
      <trkpt lat="48.82437" lon="2.41999">
        <ele>56</ele>
        <time>2015-12-28T20:06:43Z</time>
      </trkpt>
      <trkpt lat="48.82423" lon="2.42">
        <ele>56.599998474121</ele>
        <time>2015-12-28T20:06:47Z</time>
      </trkpt>
      <trkpt lat="48.82412" lon="2.41997">
        <ele>57</ele>
        <time>2015-12-28T20:06:51Z</time>
      </trkpt>
      <trkpt lat="48.82407" lon="2.41997">
        <ele>57.20000076294</ele>
        <time>2015-12-28T20:06:54Z</time>
      </trkpt>
      <trkpt lat="48.82407" lon="2.41989">
        <ele>57</ele>
        <time>2015-12-28T20:06:59Z</time>
      </trkpt>
      <trkpt lat="48.824" lon="2.41988">
        <ele>57.20000076294</ele>
        <time>2015-12-28T20:07:20Z</time>
      </trkpt>
      <trkpt lat="48.8238" lon="2.41989">
        <ele>58</ele>
        <time>2015-12-28T20:07:26Z</time>
      </trkpt>
      <trkpt lat="48.8236" lon="2.41993">
        <ele>58.79999923706</ele>
        <time>2015-12-28T20:07:31Z</time>
      </trkpt>
      <trkpt lat="48.8234" lon="2.41998">
        <ele>58.79999923706</ele>
        <time>2015-12-28T20:07:37Z</time>
      </trkpt>
      <trkpt lat="48.82321" lon="2.42001">
        <ele>58.599998474121</ele>
        <time>2015-12-28T20:07:42Z</time>
      </trkpt>
      <trkpt lat="48.82301" lon="2.42">
        <ele>58.400001525879</ele>
        <time>2015-12-28T20:07:48Z</time>
      </trkpt>
      <trkpt lat="48.82282" lon="2.42">
        <ele>58.20000076294</ele>
        <time>2015-12-28T20:07:54Z</time>
      </trkpt>
      <trkpt lat="48.82264" lon="2.42002">
        <ele>57.79999923706</ele>
        <time>2015-12-28T20:07:59Z</time>
      </trkpt>
      <trkpt lat="48.82244" lon="2.42008">
        <ele>57.400001525879</ele>
        <time>2015-12-28T20:08:03Z</time>
      </trkpt>
      <trkpt lat="48.82225" lon="2.42006">
        <ele>56.79999923706</ele>
        <time>2015-12-28T20:08:06Z</time>
      </trkpt>
      <trkpt lat="48.82204" lon="2.42002">
        <ele>56.400001525879</ele>
        <time>2015-12-28T20:08:10Z</time>
      </trkpt>
      <trkpt lat="48.82194" lon="2.42">
        <ele>56.20000076294</ele>
        <time>2015-12-28T20:08:12Z</time>
      </trkpt>
      <trkpt lat="48.82176" lon="2.41997">
        <ele>55.79999923706</ele>
        <time>2015-12-28T20:08:16Z</time>
      </trkpt>
      <trkpt lat="48.82165" lon="2.41996">
        <ele>55.79999923706</ele>
        <time>2015-12-28T20:08:19Z</time>
      </trkpt>
      <trkpt lat="48.82144" lon="2.41995">
        <ele>55.599998474121</ele>
        <time>2015-12-28T20:08:25Z</time>
      </trkpt>
      <trkpt lat="48.82124" lon="2.4199">
        <ele>55.400001525879</ele>
        <time>2015-12-28T20:08:31Z</time>
      </trkpt>
      <trkpt lat="48.82119" lon="2.41989">
        <ele>55.20000076294</ele>
        <time>2015-12-28T20:08:33Z</time>
      </trkpt>
      <trkpt lat="48.82101" lon="2.41986">
        <ele>55.20000076294</ele>
        <time>2015-12-28T20:08:39Z</time>
      </trkpt>
      <trkpt lat="48.82083" lon="2.41987">
        <ele>55.20000076294</ele>
        <time>2015-12-28T20:08:45Z</time>
      </trkpt>
      <trkpt lat="48.82064" lon="2.41998">
        <ele>55</ele>
        <time>2015-12-28T20:08:51Z</time>
      </trkpt>
      <trkpt lat="48.82042" lon="2.41996">
        <ele>55</ele>
        <time>2015-12-28T20:08:57Z</time>
      </trkpt>
      <trkpt lat="48.82022" lon="2.41998">
        <ele>55</ele>
        <time>2015-12-28T20:09:02Z</time>
      </trkpt>
      <trkpt lat="48.82004" lon="2.42009">
        <ele>54.400001525879</ele>
        <time>2015-12-28T20:09:08Z</time>
      </trkpt>
      <trkpt lat="48.82003" lon="2.42038">
        <ele>55</ele>
        <time>2015-12-28T20:09:13Z</time>
      </trkpt>
      <trkpt lat="48.82003" lon="2.42068">
        <ele>55.79999923706</ele>
        <time>2015-12-28T20:09:18Z</time>
      </trkpt>
      <trkpt lat="48.82005" lon="2.42097">
        <ele>56.400001525879</ele>
        <time>2015-12-28T20:09:23Z</time>
      </trkpt>
      <trkpt lat="48.82007" lon="2.4213">
        <ele>56.400001525879</ele>
        <time>2015-12-28T20:09:29Z</time>
      </trkpt>
      <trkpt lat="48.82009" lon="2.42157">
        <ele>56.599998474121</ele>
        <time>2015-12-28T20:09:35Z</time>
      </trkpt>
      <trkpt lat="48.82005" lon="2.42163">
        <ele>56.400001525879</ele>
        <time>2015-12-28T20:09:38Z</time>
      </trkpt>
      <trkpt lat="48.81991" lon="2.42168">
        <ele>55.79999923706</ele>
        <time>2015-12-28T20:09:42Z</time>
      </trkpt>
      <trkpt lat="48.8197" lon="2.42171">
        <ele>55</ele>
        <time>2015-12-28T20:09:47Z</time>
      </trkpt>
      <trkpt lat="48.81949" lon="2.42176">
        <ele>54.20000076294</ele>
        <time>2015-12-28T20:09:53Z</time>
      </trkpt>
      <trkpt lat="48.81934" lon="2.42179">
        <ele>53.20000076294</ele>
        <time>2015-12-28T20:09:59Z</time>
      </trkpt>
      <trkpt lat="48.81929" lon="2.42178">
        <ele>52.599998474121</ele>
        <time>2015-12-28T20:10:03Z</time>
      </trkpt>
      <trkpt lat="48.81934" lon="2.42205">
        <ele>52.20000076294</ele>
        <time>2015-12-28T20:10:27Z</time>
      </trkpt>
      <trkpt lat="48.81937" lon="2.42234">
        <ele>51.400001525879</ele>
        <time>2015-12-28T20:10:32Z</time>
      </trkpt>
      <trkpt lat="48.81942" lon="2.42262">
        <ele>51.20000076294</ele>
        <time>2015-12-28T20:10:38Z</time>
      </trkpt>
      <trkpt lat="48.8196" lon="2.4227">
        <ele>52.79999923706</ele>
        <time>2015-12-28T20:10:47Z</time>
      </trkpt>
      <trkpt lat="48.81978" lon="2.4227">
        <ele>53.79999923706</ele>
        <time>2015-12-28T20:10:55Z</time>
      </trkpt>
      <trkpt lat="48.81986" lon="2.42271">
        <ele>54.400001525879</ele>
        <time>2015-12-28T20:10:58Z</time>
      </trkpt>
      <trkpt lat="48.82003" lon="2.42275">
        <ele>55.400001525879</ele>
        <time>2015-12-28T20:11:06Z</time>
      </trkpt>
      <trkpt lat="48.82005" lon="2.4228">
        <ele>55.79999923706</ele>
        <time>2015-12-28T20:11:08Z</time>
      </trkpt>
      <trkpt lat="48.82009" lon="2.42309">
        <ele>56.599998474121</ele>
        <time>2015-12-28T20:11:16Z</time>
      </trkpt>
      <trkpt lat="48.82011" lon="2.42315">
        <ele>57</ele>
        <time>2015-12-28T20:11:20Z</time>
      </trkpt>
      <trkpt lat="48.82003" lon="2.42323">
        <ele>56.20000076294</ele>
        <time>2015-12-28T20:11:33Z</time>
      </trkpt>
      <trkpt lat="48.81982" lon="2.42323">
        <ele>54.400001525879</ele>
        <time>2015-12-28T20:11:41Z</time>
      </trkpt>
      <trkpt lat="48.81964" lon="2.42318">
        <ele>52.599998474121</ele>
        <time>2015-12-28T20:11:45Z</time>
      </trkpt>
      <trkpt lat="48.81955" lon="2.42319">
        <ele>51.79999923706</ele>
        <time>2015-12-28T20:11:47Z</time>
      </trkpt>
      <trkpt lat="48.81936" lon="2.42327">
        <ele>49.79999923706</ele>
        <time>2015-12-28T20:11:52Z</time>
      </trkpt>
      <trkpt lat="48.81929" lon="2.42355">
        <ele>48.599998474121</ele>
        <time>2015-12-28T20:11:56Z</time>
      </trkpt>
      <trkpt lat="48.8192" lon="2.42382">
        <ele>47.400001525879</ele>
        <time>2015-12-28T20:12:00Z</time>
      </trkpt>
      <trkpt lat="48.81909" lon="2.42406">
        <ele>46</ele>
        <time>2015-12-28T20:12:04Z</time>
      </trkpt>
      <trkpt lat="48.81896" lon="2.42429">
        <ele>44.79999923706</ele>
        <time>2015-12-28T20:12:09Z</time>
      </trkpt>
      <trkpt lat="48.81891" lon="2.42439">
        <ele>44.599998474121</ele>
        <time>2015-12-28T20:12:11Z</time>
      </trkpt>
      <trkpt lat="48.81884" lon="2.42444">
        <ele>43.79999923706</ele>
        <time>2015-12-28T20:12:13Z</time>
      </trkpt>
      <trkpt lat="48.81865" lon="2.42442">
        <ele>41.79999923706</ele>
        <time>2015-12-28T20:12:18Z</time>
      </trkpt>
      <trkpt lat="48.81858" lon="2.42443">
        <ele>41.20000076294</ele>
        <time>2015-12-28T20:12:20Z</time>
      </trkpt>
      <trkpt lat="48.81837" lon="2.42445">
        <ele>39.599998474121</ele>
        <time>2015-12-28T20:12:26Z</time>
      </trkpt>
      <trkpt lat="48.81834" lon="2.42445">
        <ele>39.400001525879</ele>
        <time>2015-12-28T20:12:27Z</time>
      </trkpt>
      <trkpt lat="48.81816" lon="2.42442">
        <ele>37.599998474121</ele>
        <time>2015-12-28T20:12:32Z</time>
      </trkpt>
      <trkpt lat="48.81798" lon="2.42433">
        <ele>35.400001525879</ele>
        <time>2015-12-28T20:12:40Z</time>
      </trkpt>
      <trkpt lat="48.818" lon="2.42435">
        <ele>35.79999923706</ele>
        <time>2015-12-28T20:13:32Z</time>
      </trkpt>
      <trkpt lat="48.81801" lon="2.42443">
        <ele>36.400001525879</ele>
        <time>2015-12-28T20:13:36Z</time>
      </trkpt>
      <trkpt lat="48.81805" lon="2.42434">
        <ele>36.20000076294</ele>
        <time>2015-12-28T20:14:38Z</time>
      </trkpt>
      <trkpt lat="48.81799" lon="2.42419">
        <ele>34.599998474121</ele>
        <time>2015-12-28T20:15:19Z</time>
      </trkpt>
      <trkpt lat="48.81803" lon="2.42428">
        <ele>35.599998474121</ele>
        <time>2015-12-28T20:15:37Z</time>
      </trkpt>
      <trkpt lat="48.81797" lon="2.42412">
        <ele>34.20000076294</ele>
        <time>2015-12-28T20:16:10Z</time>
      </trkpt>
      <trkpt lat="48.81803" lon="2.42399">
        <ele>34.79999923706</ele>
        <time>2015-12-28T20:17:01Z</time>
      </trkpt>
      <trkpt lat="48.81799" lon="2.42418">
        <ele>34.400001525879</ele>
        <time>2015-12-28T20:18:05Z</time>
      </trkpt>
      <trkpt lat="48.81796" lon="2.4245">
        <ele>36</ele>
        <time>2015-12-28T20:18:12Z</time>
      </trkpt>
      <trkpt lat="48.81796" lon="2.4247">
        <ele>36</ele>
        <time>2015-12-28T20:18:15Z</time>
      </trkpt>
      <trkpt lat="48.81794" lon="2.42498">
        <ele>36.20000076294</ele>
        <time>2015-12-28T20:18:19Z</time>
      </trkpt>
      <trkpt lat="48.81792" lon="2.42525">
        <ele>35</ele>
        <time>2015-12-28T20:18:23Z</time>
      </trkpt>
      <trkpt lat="48.8179" lon="2.42558">
        <ele>35.20000076294</ele>
        <time>2015-12-28T20:18:28Z</time>
      </trkpt>
      <trkpt lat="48.81793" lon="2.42591">
        <ele>35.599998474121</ele>
        <time>2015-12-28T20:18:33Z</time>
      </trkpt>
      <trkpt lat="48.81797" lon="2.42622">
        <ele>36.20000076294</ele>
        <time>2015-12-28T20:18:38Z</time>
      </trkpt>
      <trkpt lat="48.81801" lon="2.42656">
        <ele>37.20000076294</ele>
        <time>2015-12-28T20:18:43Z</time>
      </trkpt>
      <trkpt lat="48.81802" lon="2.42684">
        <ele>38</ele>
        <time>2015-12-28T20:18:46Z</time>
      </trkpt>
      <trkpt lat="48.81802" lon="2.42719">
        <ele>37.599998474121</ele>
        <time>2015-12-28T20:18:50Z</time>
      </trkpt>
      <trkpt lat="48.81803" lon="2.42727">
        <ele>37.400001525879</ele>
        <time>2015-12-28T20:18:51Z</time>
      </trkpt>
      <trkpt lat="48.81803" lon="2.4276">
        <ele>36.599998474121</ele>
        <time>2015-12-28T20:18:55Z</time>
      </trkpt>
      <trkpt lat="48.81803" lon="2.42794">
        <ele>36.400001525879</ele>
        <time>2015-12-28T20:18:59Z</time>
      </trkpt>
      <trkpt lat="48.81801" lon="2.42821">
        <ele>36.599998474121</ele>
        <time>2015-12-28T20:19:02Z</time>
      </trkpt>
      <trkpt lat="48.81799" lon="2.42849">
        <ele>36.599998474121</ele>
        <time>2015-12-28T20:19:05Z</time>
      </trkpt>
      <trkpt lat="48.81798" lon="2.42879">
        <ele>36.400001525879</ele>
        <time>2015-12-28T20:19:08Z</time>
      </trkpt>
      <trkpt lat="48.81798" lon="2.4291">
        <ele>36.599998474121</ele>
        <time>2015-12-28T20:19:11Z</time>
      </trkpt>
      <trkpt lat="48.81799" lon="2.42942">
        <ele>36.20000076294</ele>
        <time>2015-12-28T20:19:14Z</time>
      </trkpt>
      <trkpt lat="48.81799" lon="2.42972">
        <ele>36.20000076294</ele>
        <time>2015-12-28T20:19:17Z</time>
      </trkpt>
      <trkpt lat="48.81799" lon="2.43003">
        <ele>36.20000076294</ele>
        <time>2015-12-28T20:19:20Z</time>
      </trkpt>
      <trkpt lat="48.818" lon="2.43036">
        <ele>36.400001525879</ele>
        <time>2015-12-28T20:19:23Z</time>
      </trkpt>
      <trkpt lat="48.81802" lon="2.43067">
        <ele>37</ele>
        <time>2015-12-28T20:19:26Z</time>
      </trkpt>
      <trkpt lat="48.81804" lon="2.43099">
        <ele>37.20000076294</ele>
        <time>2015-12-28T20:19:29Z</time>
      </trkpt>
      <trkpt lat="48.81807" lon="2.43132">
        <ele>37.20000076294</ele>
        <time>2015-12-28T20:19:32Z</time>
      </trkpt>
      <trkpt lat="48.81809" lon="2.43165">
        <ele>37.20000076294</ele>
        <time>2015-12-28T20:19:35Z</time>
      </trkpt>
      <trkpt lat="48.81811" lon="2.43197">
        <ele>37.79999923706</ele>
        <time>2015-12-28T20:19:38Z</time>
      </trkpt>
      <trkpt lat="48.81812" lon="2.43228">
        <ele>38.20000076294</ele>
        <time>2015-12-28T20:19:41Z</time>
      </trkpt>
      <trkpt lat="48.81813" lon="2.43258">
        <ele>38.599998474121</ele>
        <time>2015-12-28T20:19:44Z</time>
      </trkpt>
      <trkpt lat="48.81814" lon="2.43291">
        <ele>39.599998474121</ele>
        <time>2015-12-28T20:19:47Z</time>
      </trkpt>
      <trkpt lat="48.81816" lon="2.43323">
        <ele>39.20000076294</ele>
        <time>2015-12-28T20:19:50Z</time>
      </trkpt>
      <trkpt lat="48.81818" lon="2.43356">
        <ele>39.20000076294</ele>
        <time>2015-12-28T20:19:53Z</time>
      </trkpt>
      <trkpt lat="48.81819" lon="2.43389">
        <ele>39</ele>
        <time>2015-12-28T20:19:56Z</time>
      </trkpt>
      <trkpt lat="48.8182" lon="2.43421">
        <ele>39.20000076294</ele>
        <time>2015-12-28T20:19:59Z</time>
      </trkpt>
      <trkpt lat="48.8182" lon="2.43453">
        <ele>38.599998474121</ele>
        <time>2015-12-28T20:20:02Z</time>
      </trkpt>
      <trkpt lat="48.81821" lon="2.43485">
        <ele>38.20000076294</ele>
        <time>2015-12-28T20:20:05Z</time>
      </trkpt>
      <trkpt lat="48.81822" lon="2.43518">
        <ele>38.400001525879</ele>
        <time>2015-12-28T20:20:08Z</time>
      </trkpt>
      <trkpt lat="48.81823" lon="2.4355">
        <ele>39.400001525879</ele>
        <time>2015-12-28T20:20:11Z</time>
      </trkpt>
      <trkpt lat="48.81822" lon="2.43581">
        <ele>38.79999923706</ele>
        <time>2015-12-28T20:20:14Z</time>
      </trkpt>
      <trkpt lat="48.81821" lon="2.43612">
        <ele>38</ele>
        <time>2015-12-28T20:20:17Z</time>
      </trkpt>
      <trkpt lat="48.81819" lon="2.43645">
        <ele>37</ele>
        <time>2015-12-28T20:20:20Z</time>
      </trkpt>
      <trkpt lat="48.8182" lon="2.43677">
        <ele>36.79999923706</ele>
        <time>2015-12-28T20:20:23Z</time>
      </trkpt>
      <trkpt lat="48.8182" lon="2.43707">
        <ele>37.599998474121</ele>
        <time>2015-12-28T20:20:26Z</time>
      </trkpt>
      <trkpt lat="48.81819" lon="2.43737">
        <ele>37.79999923706</ele>
        <time>2015-12-28T20:20:29Z</time>
      </trkpt>
      <trkpt lat="48.81819" lon="2.43746">
        <ele>38</ele>
        <time>2015-12-28T20:20:30Z</time>
      </trkpt>
      <trkpt lat="48.8182" lon="2.43777">
        <ele>39.20000076294</ele>
        <time>2015-12-28T20:20:33Z</time>
      </trkpt>
      <trkpt lat="48.81821" lon="2.43786">
        <ele>39.599998474121</ele>
        <time>2015-12-28T20:20:34Z</time>
      </trkpt>
      <trkpt lat="48.81821" lon="2.43814">
        <ele>40.20000076294</ele>
        <time>2015-12-28T20:20:37Z</time>
      </trkpt>
      <trkpt lat="48.81823" lon="2.43849">
        <ele>41</ele>
        <time>2015-12-28T20:20:41Z</time>
      </trkpt>
      <trkpt lat="48.81826" lon="2.43884">
        <ele>41.79999923706</ele>
        <time>2015-12-28T20:20:45Z</time>
      </trkpt>
      <trkpt lat="48.81829" lon="2.43917">
        <ele>42.400001525879</ele>
        <time>2015-12-28T20:20:49Z</time>
      </trkpt>
      <trkpt lat="48.81829" lon="2.43949">
        <ele>43</ele>
        <time>2015-12-28T20:20:53Z</time>
      </trkpt>
      <trkpt lat="48.8183" lon="2.43983">
        <ele>43.400001525879</ele>
        <time>2015-12-28T20:20:57Z</time>
      </trkpt>
      <trkpt lat="48.81829" lon="2.44008">
        <ele>43.79999923706</ele>
        <time>2015-12-28T20:21:00Z</time>
      </trkpt>
      <trkpt lat="48.81825" lon="2.44035">
        <ele>43.79999923706</ele>
        <time>2015-12-28T20:21:03Z</time>
      </trkpt>
      <trkpt lat="48.8182" lon="2.44064">
        <ele>43</ele>
        <time>2015-12-28T20:21:06Z</time>
      </trkpt>
      <trkpt lat="48.81814" lon="2.44094">
        <ele>41.599998474121</ele>
        <time>2015-12-28T20:21:09Z</time>
      </trkpt>
      <trkpt lat="48.81807" lon="2.44122">
        <ele>41</ele>
        <time>2015-12-28T20:21:12Z</time>
      </trkpt>
      <trkpt lat="48.81801" lon="2.44151">
        <ele>40.599998474121</ele>
        <time>2015-12-28T20:21:15Z</time>
      </trkpt>
      <trkpt lat="48.81795" lon="2.44181">
        <ele>39.79999923706</ele>
        <time>2015-12-28T20:21:18Z</time>
      </trkpt>
      <trkpt lat="48.81791" lon="2.44213">
        <ele>39.20000076294</ele>
        <time>2015-12-28T20:21:21Z</time>
      </trkpt>
      <trkpt lat="48.81789" lon="2.44246">
        <ele>38.79999923706</ele>
        <time>2015-12-28T20:21:24Z</time>
      </trkpt>
      <trkpt lat="48.81788" lon="2.44279">
        <ele>39</ele>
        <time>2015-12-28T20:21:27Z</time>
      </trkpt>
      <trkpt lat="48.81786" lon="2.44313">
        <ele>39.20000076294</ele>
        <time>2015-12-28T20:21:30Z</time>
      </trkpt>
      <trkpt lat="48.81785" lon="2.44347">
        <ele>39.20000076294</ele>
        <time>2015-12-28T20:21:33Z</time>
      </trkpt>
      <trkpt lat="48.81785" lon="2.44378">
        <ele>38.400001525879</ele>
        <time>2015-12-28T20:21:36Z</time>
      </trkpt>
      <trkpt lat="48.81785" lon="2.44388">
        <ele>38.20000076294</ele>
        <time>2015-12-28T20:21:37Z</time>
      </trkpt>
      <trkpt lat="48.81783" lon="2.44418">
        <ele>37.20000076294</ele>
        <time>2015-12-28T20:21:40Z</time>
      </trkpt>
      <trkpt lat="48.81783" lon="2.44448">
        <ele>37.79999923706</ele>
        <time>2015-12-28T20:21:43Z</time>
      </trkpt>
      <trkpt lat="48.81783" lon="2.44478">
        <ele>39</ele>
        <time>2015-12-28T20:21:46Z</time>
      </trkpt>
      <trkpt lat="48.81785" lon="2.44506">
        <ele>39.79999923706</ele>
        <time>2015-12-28T20:21:49Z</time>
      </trkpt>
      <trkpt lat="48.81788" lon="2.44536">
        <ele>39.599998474121</ele>
        <time>2015-12-28T20:21:52Z</time>
      </trkpt>
      <trkpt lat="48.81788" lon="2.44546">
        <ele>39.599998474121</ele>
        <time>2015-12-28T20:21:53Z</time>
      </trkpt>
      <trkpt lat="48.81789" lon="2.44574">
        <ele>39.400001525879</ele>
        <time>2015-12-28T20:21:56Z</time>
      </trkpt>
      <trkpt lat="48.81789" lon="2.44602">
        <ele>39.20000076294</ele>
        <time>2015-12-28T20:21:59Z</time>
      </trkpt>
      <trkpt lat="48.81791" lon="2.44638">
        <ele>38.599998474121</ele>
        <time>2015-12-28T20:22:03Z</time>
      </trkpt>
      <trkpt lat="48.81791" lon="2.44657">
        <ele>38.20000076294</ele>
        <time>2015-12-28T20:22:05Z</time>
      </trkpt>
      <trkpt lat="48.81792" lon="2.44686">
        <ele>38.400001525879</ele>
        <time>2015-12-28T20:22:08Z</time>
      </trkpt>
      <trkpt lat="48.81793" lon="2.44717">
        <ele>39.400001525879</ele>
        <time>2015-12-28T20:22:11Z</time>
      </trkpt>
      <trkpt lat="48.81795" lon="2.44749">
        <ele>40.20000076294</ele>
        <time>2015-12-28T20:22:14Z</time>
      </trkpt>
      <trkpt lat="48.81795" lon="2.4478">
        <ele>40.599998474121</ele>
        <time>2015-12-28T20:22:17Z</time>
      </trkpt>
      <trkpt lat="48.81795" lon="2.44813">
        <ele>40.599998474121</ele>
        <time>2015-12-28T20:22:20Z</time>
      </trkpt>
      <trkpt lat="48.81796" lon="2.44846">
        <ele>40.599998474121</ele>
        <time>2015-12-28T20:22:23Z</time>
      </trkpt>
      <trkpt lat="48.81795" lon="2.44879">
        <ele>40</ele>
        <time>2015-12-28T20:22:26Z</time>
      </trkpt>
      <trkpt lat="48.81794" lon="2.44908">
        <ele>39.20000076294</ele>
        <time>2015-12-28T20:22:29Z</time>
      </trkpt>
      <trkpt lat="48.81793" lon="2.44941">
        <ele>39.400001525879</ele>
        <time>2015-12-28T20:22:32Z</time>
      </trkpt>
      <trkpt lat="48.81791" lon="2.44974">
        <ele>38.79999923706</ele>
        <time>2015-12-28T20:22:35Z</time>
      </trkpt>
      <trkpt lat="48.81787" lon="2.45006">
        <ele>37.599998474121</ele>
        <time>2015-12-28T20:22:38Z</time>
      </trkpt>
      <trkpt lat="48.81782" lon="2.45039">
        <ele>37.20000076294</ele>
        <time>2015-12-28T20:22:41Z</time>
      </trkpt>
      <trkpt lat="48.81776" lon="2.45073">
        <ele>36.79999923706</ele>
        <time>2015-12-28T20:22:44Z</time>
      </trkpt>
      <trkpt lat="48.81771" lon="2.45102">
        <ele>36.599998474121</ele>
        <time>2015-12-28T20:22:47Z</time>
      </trkpt>
      <trkpt lat="48.81765" lon="2.45128">
        <ele>37.400001525879</ele>
        <time>2015-12-28T20:22:50Z</time>
      </trkpt>
      <trkpt lat="48.81757" lon="2.45159">
        <ele>38.20000076294</ele>
        <time>2015-12-28T20:22:54Z</time>
      </trkpt>
      <trkpt lat="48.81748" lon="2.45188">
        <ele>39.599998474121</ele>
        <time>2015-12-28T20:22:58Z</time>
      </trkpt>
      <trkpt lat="48.8174" lon="2.45215">
        <ele>40.599998474121</ele>
        <time>2015-12-28T20:23:02Z</time>
      </trkpt>
      <trkpt lat="48.81732" lon="2.45241">
        <ele>43.20000076294</ele>
        <time>2015-12-28T20:23:07Z</time>
      </trkpt>
      <trkpt lat="48.81731" lon="2.45246">
        <ele>43.599998474121</ele>
        <time>2015-12-28T20:23:08Z</time>
      </trkpt>
      <trkpt lat="48.81729" lon="2.45263">
        <ele>44.79999923706</ele>
        <time>2015-12-28T20:23:14Z</time>
      </trkpt>
      <trkpt lat="48.81728" lon="2.45266">
        <ele>45</ele>
        <time>2015-12-28T20:24:37Z</time>
      </trkpt>
      <trkpt lat="48.81721" lon="2.45287">
        <ele>46.20000076294</ele>
        <time>2015-12-28T20:25:16Z</time>
      </trkpt>
      <trkpt lat="48.81721" lon="2.45293">
        <ele>46</ele>
        <time>2015-12-28T20:25:21Z</time>
      </trkpt>
      <trkpt lat="48.81729" lon="2.45314">
        <ele>46.20000076294</ele>
        <time>2015-12-28T20:25:59Z</time>
      </trkpt>
      <trkpt lat="48.8172" lon="2.4534">
        <ele>45.79999923706</ele>
        <time>2015-12-28T20:26:12Z</time>
      </trkpt>
      <trkpt lat="48.81721" lon="2.45372">
        <ele>46.400001525879</ele>
        <time>2015-12-28T20:26:16Z</time>
      </trkpt>
      <trkpt lat="48.81719" lon="2.45404">
        <ele>45</ele>
        <time>2015-12-28T20:26:21Z</time>
      </trkpt>
      <trkpt lat="48.81716" lon="2.45434">
        <ele>44.599998474121</ele>
        <time>2015-12-28T20:26:27Z</time>
      </trkpt>
      <trkpt lat="48.81699" lon="2.45481">
        <ele>41</ele>
        <time>2015-12-28T20:26:33Z</time>
      </trkpt>
      <trkpt lat="48.81701" lon="2.45515">
        <ele>41.20000076294</ele>
        <time>2015-12-28T20:26:36Z</time>
      </trkpt>
      <trkpt lat="48.81695" lon="2.45542">
        <ele>40.599998474121</ele>
        <time>2015-12-28T20:26:40Z</time>
      </trkpt>
      <trkpt lat="48.81689" lon="2.45568">
        <ele>40</ele>
        <time>2015-12-28T20:26:44Z</time>
      </trkpt>
      <trkpt lat="48.81682" lon="2.45593">
        <ele>40</ele>
        <time>2015-12-28T20:26:48Z</time>
      </trkpt>
      <trkpt lat="48.81674" lon="2.45619">
        <ele>39.79999923706</ele>
        <time>2015-12-28T20:26:51Z</time>
      </trkpt>
      <trkpt lat="48.81668" lon="2.45651">
        <ele>39.599998474121</ele>
        <time>2015-12-28T20:26:56Z</time>
      </trkpt>
      <trkpt lat="48.81666" lon="2.4566">
        <ele>39.400001525879</ele>
        <time>2015-12-28T20:26:57Z</time>
      </trkpt>
      <trkpt lat="48.81659" lon="2.45688">
        <ele>39.20000076294</ele>
        <time>2015-12-28T20:27:01Z</time>
      </trkpt>
      <trkpt lat="48.81656" lon="2.45701">
        <ele>39.20000076294</ele>
        <time>2015-12-28T20:27:03Z</time>
      </trkpt>
      <trkpt lat="48.81647" lon="2.4573">
        <ele>38.79999923706</ele>
        <time>2015-12-28T20:27:07Z</time>
      </trkpt>
      <trkpt lat="48.81641" lon="2.45752">
        <ele>38.400001525879</ele>
        <time>2015-12-28T20:27:10Z</time>
      </trkpt>
      <trkpt lat="48.81634" lon="2.45782">
        <ele>39.79999923706</ele>
        <time>2015-12-28T20:27:14Z</time>
      </trkpt>
      <trkpt lat="48.81629" lon="2.4581">
        <ele>40</ele>
        <time>2015-12-28T20:27:18Z</time>
      </trkpt>
      <trkpt lat="48.81626" lon="2.45841">
        <ele>41.20000076294</ele>
        <time>2015-12-28T20:27:23Z</time>
      </trkpt>
      <trkpt lat="48.81624" lon="2.45856">
        <ele>42.400001525879</ele>
        <time>2015-12-28T20:27:26Z</time>
      </trkpt>
      <trkpt lat="48.81618" lon="2.45874">
        <ele>43</ele>
        <time>2015-12-28T20:27:34Z</time>
      </trkpt>
      <trkpt lat="48.81614" lon="2.45887">
        <ele>43.599998474121</ele>
        <time>2015-12-28T20:27:41Z</time>
      </trkpt>
      <trkpt lat="48.81617" lon="2.45873">
        <ele>43</ele>
        <time>2015-12-28T20:27:48Z</time>
      </trkpt>
      <trkpt lat="48.81613" lon="2.45863">
        <ele>41.599998474121</ele>
        <time>2015-12-28T20:28:24Z</time>
      </trkpt>
      <trkpt lat="48.81629" lon="2.45866">
        <ele>44</ele>
        <time>2015-12-28T20:29:09Z</time>
      </trkpt>
      <trkpt lat="48.8164" lon="2.4589">
        <ele>47.400001525879</ele>
        <time>2015-12-28T20:29:41Z</time>
      </trkpt>
      <trkpt lat="48.81653" lon="2.45907">
        <ele>50.599998474121</ele>
        <time>2015-12-28T20:30:20Z</time>
      </trkpt>
      <trkpt lat="48.81666" lon="2.45925">
        <ele>53.599998474121</ele>
        <time>2015-12-28T20:30:49Z</time>
      </trkpt>
      <trkpt lat="48.81683" lon="2.45933">
        <ele>56.400001525879</ele>
        <time>2015-12-28T20:31:47Z</time>
      </trkpt>
      <trkpt lat="48.81687" lon="2.45939">
        <ele>57.400001525879</ele>
        <time>2015-12-28T20:33:17Z</time>
      </trkpt>
      <trkpt lat="48.81695" lon="2.45943">
        <ele>58</ele>
        <time>2015-12-28T20:33:22Z</time>
      </trkpt>
      <trkpt lat="48.81711" lon="2.45926">
        <ele>57.79999923706</ele>
        <time>2015-12-28T20:33:31Z</time>
      </trkpt>
      <trkpt lat="48.81725" lon="2.45926">
        <ele>58.79999923706</ele>
        <time>2015-12-28T20:33:35Z</time>
      </trkpt>
      <trkpt lat="48.81738" lon="2.4595">
        <ele>60.400001525879</ele>
        <time>2015-12-28T20:33:41Z</time>
      </trkpt>
      <trkpt lat="48.8175" lon="2.45972">
        <ele>61.79999923706</ele>
        <time>2015-12-28T20:33:46Z</time>
      </trkpt>
      <trkpt lat="48.81763" lon="2.45994">
        <ele>63.400001525879</ele>
        <time>2015-12-28T20:33:51Z</time>
      </trkpt>
      <trkpt lat="48.81773" lon="2.46023">
        <ele>65.400001525879</ele>
        <time>2015-12-28T20:33:56Z</time>
      </trkpt>
      <trkpt lat="48.81784" lon="2.46048">
        <ele>65.800003051758</ele>
        <time>2015-12-28T20:34:00Z</time>
      </trkpt>
      <trkpt lat="48.81794" lon="2.46075">
        <ele>66.400001525879</ele>
        <time>2015-12-28T20:34:04Z</time>
      </trkpt>
      <trkpt lat="48.81804" lon="2.46102">
        <ele>65.400001525879</ele>
        <time>2015-12-28T20:34:08Z</time>
      </trkpt>
      <trkpt lat="48.81815" lon="2.46126">
        <ele>63.79999923706</ele>
        <time>2015-12-28T20:34:12Z</time>
      </trkpt>
      <trkpt lat="48.81817" lon="2.46131">
        <ele>63.599998474121</ele>
        <time>2015-12-28T20:34:13Z</time>
      </trkpt>
      <trkpt lat="48.81821" lon="2.46138">
        <ele>63.20000076294</ele>
        <time>2015-12-28T20:34:15Z</time>
      </trkpt>
      <trkpt lat="48.81824" lon="2.46148">
        <ele>62.79999923706</ele>
        <time>2015-12-28T20:34:23Z</time>
      </trkpt>
      <trkpt lat="48.81824" lon="2.46154">
        <ele>63</ele>
        <time>2015-12-28T20:34:49Z</time>
      </trkpt>
      <trkpt lat="48.81829" lon="2.46165">
        <ele>62.400001525879</ele>
        <time>2015-12-28T20:34:53Z</time>
      </trkpt>
      <trkpt lat="48.81839" lon="2.46189">
        <ele>62.20000076294</ele>
        <time>2015-12-28T20:34:59Z</time>
      </trkpt>
      <trkpt lat="48.8185" lon="2.46211">
        <ele>61.79999923706</ele>
        <time>2015-12-28T20:35:04Z</time>
      </trkpt>
      <trkpt lat="48.81863" lon="2.46233">
        <ele>61.400001525879</ele>
        <time>2015-12-28T20:35:09Z</time>
      </trkpt>
      <trkpt lat="48.81873" lon="2.46258">
        <ele>61</ele>
        <time>2015-12-28T20:35:17Z</time>
      </trkpt>
      <trkpt lat="48.81875" lon="2.46261">
        <ele>60.79999923706</ele>
        <time>2015-12-28T20:35:18Z</time>
      </trkpt>
      <trkpt lat="48.81887" lon="2.46281">
        <ele>59.20000076294</ele>
        <time>2015-12-28T20:35:26Z</time>
      </trkpt>
      <trkpt lat="48.81898" lon="2.46302">
        <ele>57.599998474121</ele>
        <time>2015-12-28T20:35:32Z</time>
      </trkpt>
      <trkpt lat="48.8191" lon="2.46326">
        <ele>56</ele>
        <time>2015-12-28T20:35:40Z</time>
      </trkpt>
      <trkpt lat="48.81911" lon="2.46341">
        <ele>55.599998474121</ele>
        <time>2015-12-28T20:36:02Z</time>
      </trkpt>
      <trkpt lat="48.81926" lon="2.46331">
        <ele>54.20000076294</ele>
        <time>2015-12-28T20:36:34Z</time>
      </trkpt>
      <trkpt lat="48.81946" lon="2.46332">
        <ele>53</ele>
        <time>2015-12-28T20:37:15Z</time>
      </trkpt>
      <trkpt lat="48.81964" lon="2.46335">
        <ele>52.79999923706</ele>
        <time>2015-12-28T20:37:42Z</time>
      </trkpt>
      <trkpt lat="48.81982" lon="2.46337">
        <ele>52.599998474121</ele>
        <time>2015-12-28T20:38:01Z</time>
      </trkpt>
      <trkpt lat="48.82003" lon="2.46338">
        <ele>52.400001525879</ele>
        <time>2015-12-28T20:38:06Z</time>
      </trkpt>
      <trkpt lat="48.82023" lon="2.46339">
        <ele>52.20000076294</ele>
        <time>2015-12-28T20:38:11Z</time>
      </trkpt>
      <trkpt lat="48.82031" lon="2.46338">
        <ele>52.400001525879</ele>
        <time>2015-12-28T20:38:16Z</time>
      </trkpt>
      <trkpt lat="48.82032" lon="2.46325">
        <ele>52.599998474121</ele>
        <time>2015-12-28T20:38:28Z</time>
      </trkpt>
      <trkpt lat="48.82035" lon="2.46317">
        <ele>52.599998474121</ele>
        <time>2015-12-28T20:38:33Z</time>
      </trkpt>
      <trkpt lat="48.82042" lon="2.46293">
        <ele>53</ele>
        <time>2015-12-28T20:38:54Z</time>
      </trkpt>
      <trkpt lat="48.81991" lon="2.46462">
        <ele>54.79999923706</ele>
        <time>2015-12-28T20:39:55Z</time>
      </trkpt>
      <trkpt lat="48.81991" lon="2.46461">
        <ele>54.79999923706</ele>
        <time>2015-12-28T20:40:01Z</time>
      </trkpt>
      <trkpt lat="48.81993" lon="2.46457">
        <ele>54.599998474121</ele>
        <time>2015-12-28T20:40:08Z</time>
      </trkpt>
      <trkpt lat="48.82" lon="2.46457">
        <ele>54.79999923706</ele>
        <time>2015-12-28T20:40:13Z</time>
      </trkpt>
      <trkpt lat="48.8202" lon="2.46449">
        <ele>54.79999923706</ele>
        <time>2015-12-28T20:40:22Z</time>
      </trkpt>
      <trkpt lat="48.82038" lon="2.46441">
        <ele>54.20000076294</ele>
        <time>2015-12-28T20:40:27Z</time>
      </trkpt>
      <trkpt lat="48.82056" lon="2.46445">
        <ele>54.20000076294</ele>
        <time>2015-12-28T20:40:32Z</time>
      </trkpt>
      <trkpt lat="48.82075" lon="2.46442">
        <ele>54.599998474121</ele>
        <time>2015-12-28T20:40:37Z</time>
      </trkpt>
      <trkpt lat="48.82097" lon="2.4644">
        <ele>55.20000076294</ele>
        <time>2015-12-28T20:40:42Z</time>
      </trkpt>
      <trkpt lat="48.82118" lon="2.4644">
        <ele>55.20000076294</ele>
        <time>2015-12-28T20:40:47Z</time>
      </trkpt>
      <trkpt lat="48.82138" lon="2.46441">
        <ele>55</ele>
        <time>2015-12-28T20:40:52Z</time>
      </trkpt>
      <trkpt lat="48.8216" lon="2.46451">
        <ele>54.79999923706</ele>
        <time>2015-12-28T20:40:57Z</time>
      </trkpt>
      <trkpt lat="48.82176" lon="2.46464">
        <ele>54.20000076294</ele>
        <time>2015-12-28T20:41:00Z</time>
      </trkpt>
      <trkpt lat="48.82198" lon="2.46471">
        <ele>53.79999923706</ele>
        <time>2015-12-28T20:41:05Z</time>
      </trkpt>
      <trkpt lat="48.82212" lon="2.46478">
        <ele>53.20000076294</ele>
        <time>2015-12-28T20:41:08Z</time>
      </trkpt>
      <trkpt lat="48.8223" lon="2.46491">
        <ele>52.400001525879</ele>
        <time>2015-12-28T20:41:12Z</time>
      </trkpt>
      <trkpt lat="48.82248" lon="2.46504">
        <ele>51.400001525879</ele>
        <time>2015-12-28T20:41:16Z</time>
      </trkpt>
      <trkpt lat="48.82258" lon="2.46509">
        <ele>51.20000076294</ele>
        <time>2015-12-28T20:41:18Z</time>
      </trkpt>
      <trkpt lat="48.82278" lon="2.46515">
        <ele>50.400001525879</ele>
        <time>2015-12-28T20:41:22Z</time>
      </trkpt>
      <trkpt lat="48.82298" lon="2.46517">
        <ele>50.20000076294</ele>
        <time>2015-12-28T20:41:26Z</time>
      </trkpt>
      <trkpt lat="48.82317" lon="2.46516">
        <ele>50.599998474121</ele>
        <time>2015-12-28T20:41:30Z</time>
      </trkpt>
      <trkpt lat="48.82327" lon="2.46516">
        <ele>51</ele>
        <time>2015-12-28T20:41:32Z</time>
      </trkpt>
      <trkpt lat="48.82351" lon="2.46518">
        <ele>51.400001525879</ele>
        <time>2015-12-28T20:41:36Z</time>
      </trkpt>
      <trkpt lat="48.8237" lon="2.46517">
        <ele>51</ele>
        <time>2015-12-28T20:41:39Z</time>
      </trkpt>
      <trkpt lat="48.8239" lon="2.4652">
        <ele>50</ele>
        <time>2015-12-28T20:41:43Z</time>
      </trkpt>
      <trkpt lat="48.82411" lon="2.46518">
        <ele>49.400001525879</ele>
        <time>2015-12-28T20:41:47Z</time>
      </trkpt>
      <trkpt lat="48.82435" lon="2.46514">
        <ele>49</ele>
        <time>2015-12-28T20:41:50Z</time>
      </trkpt>
      <trkpt lat="48.8244" lon="2.46513">
        <ele>48.79999923706</ele>
        <time>2015-12-28T20:41:51Z</time>
      </trkpt>
      <trkpt lat="48.8246" lon="2.46508">
        <ele>49.20000076294</ele>
        <time>2015-12-28T20:41:55Z</time>
      </trkpt>
      <trkpt lat="48.82481" lon="2.46504">
        <ele>49.20000076294</ele>
        <time>2015-12-28T20:41:59Z</time>
      </trkpt>
      <trkpt lat="48.82502" lon="2.46501">
        <ele>49.20000076294</ele>
        <time>2015-12-28T20:42:03Z</time>
      </trkpt>
      <trkpt lat="48.82522" lon="2.46494">
        <ele>49</ele>
        <time>2015-12-28T20:42:07Z</time>
      </trkpt>
      <trkpt lat="48.82542" lon="2.46485">
        <ele>49.20000076294</ele>
        <time>2015-12-28T20:42:11Z</time>
      </trkpt>
      <trkpt lat="48.82563" lon="2.46479">
        <ele>49.400001525879</ele>
        <time>2015-12-28T20:42:15Z</time>
      </trkpt>
      <trkpt lat="48.82583" lon="2.46474">
        <ele>49.79999923706</ele>
        <time>2015-12-28T20:42:19Z</time>
      </trkpt>
      <trkpt lat="48.82602" lon="2.4647">
        <ele>50.20000076294</ele>
        <time>2015-12-28T20:42:23Z</time>
      </trkpt>
      <trkpt lat="48.82619" lon="2.46465">
        <ele>51.599998474121</ele>
        <time>2015-12-28T20:42:27Z</time>
      </trkpt>
      <trkpt lat="48.8264" lon="2.46461">
        <ele>53.400001525879</ele>
        <time>2015-12-28T20:42:32Z</time>
      </trkpt>
      <trkpt lat="48.82646" lon="2.46459">
        <ele>54</ele>
        <time>2015-12-28T20:42:34Z</time>
      </trkpt>
      <trkpt lat="48.82665" lon="2.46457">
        <ele>55.400001525879</ele>
        <time>2015-12-28T20:42:39Z</time>
      </trkpt>
      <trkpt lat="48.82685" lon="2.46454">
        <ele>57.20000076294</ele>
        <time>2015-12-28T20:42:45Z</time>
      </trkpt>
      <trkpt lat="48.82688" lon="2.46455">
        <ele>57.400001525879</ele>
        <time>2015-12-28T20:42:46Z</time>
      </trkpt>
      <trkpt lat="48.82695" lon="2.46455">
        <ele>58</ele>
        <time>2015-12-28T20:42:50Z</time>
      </trkpt>
      <trkpt lat="48.82696" lon="2.46454">
        <ele>58</ele>
        <time>2015-12-28T20:42:51Z</time>
      </trkpt>
      <trkpt lat="48.82701" lon="2.46451">
        <ele>58.400001525879</ele>
        <time>2015-12-28T20:42:57Z</time>
      </trkpt>
      <trkpt lat="48.82714" lon="2.46458">
        <ele>59</ele>
        <time>2015-12-28T20:44:08Z</time>
      </trkpt>
      <trkpt lat="48.82735" lon="2.46462">
        <ele>60.20000076294</ele>
        <time>2015-12-28T20:44:14Z</time>
      </trkpt>
      <trkpt lat="48.82753" lon="2.4647">
        <ele>60.79999923706</ele>
        <time>2015-12-28T20:44:19Z</time>
      </trkpt>
      <trkpt lat="48.82772" lon="2.46464">
        <ele>61.20000076294</ele>
        <time>2015-12-28T20:44:24Z</time>
      </trkpt>
      <trkpt lat="48.82794" lon="2.46455">
        <ele>60.599998474121</ele>
        <time>2015-12-28T20:44:29Z</time>
      </trkpt>
      <trkpt lat="48.82815" lon="2.46449">
        <ele>60.400001525879</ele>
        <time>2015-12-28T20:44:33Z</time>
      </trkpt>
      <trkpt lat="48.82833" lon="2.46447">
        <ele>60.400001525879</ele>
        <time>2015-12-28T20:44:36Z</time>
      </trkpt>
      <trkpt lat="48.82853" lon="2.4645">
        <ele>60.400001525879</ele>
        <time>2015-12-28T20:44:39Z</time>
      </trkpt>
      <trkpt lat="48.82875" lon="2.46456">
        <ele>60.20000076294</ele>
        <time>2015-12-28T20:44:43Z</time>
      </trkpt>
      <trkpt lat="48.82895" lon="2.46459">
        <ele>60</ele>
        <time>2015-12-28T20:44:47Z</time>
      </trkpt>
      <trkpt lat="48.8291" lon="2.46459">
        <ele>59.79999923706</ele>
        <time>2015-12-28T20:44:50Z</time>
      </trkpt>
      <trkpt lat="48.82931" lon="2.46463">
        <ele>59.400001525879</ele>
        <time>2015-12-28T20:44:54Z</time>
      </trkpt>
      <trkpt lat="48.82952" lon="2.46465">
        <ele>59.400001525879</ele>
        <time>2015-12-28T20:44:58Z</time>
      </trkpt>
      <trkpt lat="48.82972" lon="2.46465">
        <ele>60</ele>
        <time>2015-12-28T20:45:02Z</time>
      </trkpt>
      <trkpt lat="48.82984" lon="2.46467">
        <ele>60.20000076294</ele>
        <time>2015-12-28T20:45:04Z</time>
      </trkpt>
      <trkpt lat="48.83004" lon="2.46472">
        <ele>60.79999923706</ele>
        <time>2015-12-28T20:45:08Z</time>
      </trkpt>
      <trkpt lat="48.83025" lon="2.46475">
        <ele>61.20000076294</ele>
        <time>2015-12-28T20:45:12Z</time>
      </trkpt>
      <trkpt lat="48.83045" lon="2.46481">
        <ele>61.400001525879</ele>
        <time>2015-12-28T20:45:16Z</time>
      </trkpt>
      <trkpt lat="48.83068" lon="2.46488">
        <ele>61.599998474121</ele>
        <time>2015-12-28T20:45:20Z</time>
      </trkpt>
      <trkpt lat="48.83088" lon="2.46499">
        <ele>62</ele>
        <time>2015-12-28T20:45:24Z</time>
      </trkpt>
      <trkpt lat="48.83108" lon="2.46509">
        <ele>62</ele>
        <time>2015-12-28T20:45:28Z</time>
      </trkpt>
      <trkpt lat="48.83118" lon="2.46513">
        <ele>61.79999923706</ele>
        <time>2015-12-28T20:45:30Z</time>
      </trkpt>
      <trkpt lat="48.83133" lon="2.46524">
        <ele>61.599998474121</ele>
        <time>2015-12-28T20:45:33Z</time>
      </trkpt>
      <trkpt lat="48.8315" lon="2.46539">
        <ele>61.400001525879</ele>
        <time>2015-12-28T20:45:36Z</time>
      </trkpt>
      <trkpt lat="48.83171" lon="2.46556">
        <ele>61.20000076294</ele>
        <time>2015-12-28T20:45:40Z</time>
      </trkpt>
      <trkpt lat="48.83186" lon="2.46572">
        <ele>61</ele>
        <time>2015-12-28T20:45:43Z</time>
      </trkpt>
      <trkpt lat="48.83203" lon="2.46587">
        <ele>60.79999923706</ele>
        <time>2015-12-28T20:45:46Z</time>
      </trkpt>
      <trkpt lat="48.83208" lon="2.46594">
        <ele>60.79999923706</ele>
        <time>2015-12-28T20:45:47Z</time>
      </trkpt>
      <trkpt lat="48.83223" lon="2.46614">
        <ele>60.599998474121</ele>
        <time>2015-12-28T20:45:50Z</time>
      </trkpt>
      <trkpt lat="48.83238" lon="2.46635">
        <ele>60.400001525879</ele>
        <time>2015-12-28T20:45:53Z</time>
      </trkpt>
      <trkpt lat="48.83253" lon="2.46656">
        <ele>60.400001525879</ele>
        <time>2015-12-28T20:45:56Z</time>
      </trkpt>
      <trkpt lat="48.83266" lon="2.46678">
        <ele>60.20000076294</ele>
        <time>2015-12-28T20:45:59Z</time>
      </trkpt>
      <trkpt lat="48.83279" lon="2.46699">
        <ele>60.400001525879</ele>
        <time>2015-12-28T20:46:02Z</time>
      </trkpt>
      <trkpt lat="48.83292" lon="2.46725">
        <ele>60.79999923706</ele>
        <time>2015-12-28T20:46:05Z</time>
      </trkpt>
      <trkpt lat="48.83306" lon="2.46753">
        <ele>61</ele>
        <time>2015-12-28T20:46:09Z</time>
      </trkpt>
      <trkpt lat="48.83315" lon="2.46776">
        <ele>61</ele>
        <time>2015-12-28T20:46:13Z</time>
      </trkpt>
      <trkpt lat="48.83318" lon="2.46781">
        <ele>61</ele>
        <time>2015-12-28T20:46:14Z</time>
      </trkpt>
      <trkpt lat="48.83331" lon="2.46809">
        <ele>61</ele>
        <time>2015-12-28T20:46:19Z</time>
      </trkpt>
      <trkpt lat="48.83338" lon="2.46826">
        <ele>61.20000076294</ele>
        <time>2015-12-28T20:46:22Z</time>
      </trkpt>
      <trkpt lat="48.83351" lon="2.46847">
        <ele>61</ele>
        <time>2015-12-28T20:46:26Z</time>
      </trkpt>
      <trkpt lat="48.83364" lon="2.46866">
        <ele>61</ele>
        <time>2015-12-28T20:46:30Z</time>
      </trkpt>
      <trkpt lat="48.83374" lon="2.4688">
        <ele>61</ele>
        <time>2015-12-28T20:46:33Z</time>
      </trkpt>
      <trkpt lat="48.83391" lon="2.46894">
        <ele>61</ele>
        <time>2015-12-28T20:46:37Z</time>
      </trkpt>
      <trkpt lat="48.83409" lon="2.46907">
        <ele>61</ele>
        <time>2015-12-28T20:46:41Z</time>
      </trkpt>
      <trkpt lat="48.83429" lon="2.46919">
        <ele>61</ele>
        <time>2015-12-28T20:46:45Z</time>
      </trkpt>
      <trkpt lat="48.83447" lon="2.46932">
        <ele>61.400001525879</ele>
        <time>2015-12-28T20:46:49Z</time>
      </trkpt>
      <trkpt lat="48.83469" lon="2.46938">
        <ele>62.400001525879</ele>
        <time>2015-12-28T20:46:53Z</time>
      </trkpt>
      <trkpt lat="48.83487" lon="2.46944">
        <ele>63</ele>
        <time>2015-12-28T20:46:56Z</time>
      </trkpt>
      <trkpt lat="48.83506" lon="2.46948">
        <ele>63.79999923706</ele>
        <time>2015-12-28T20:46:59Z</time>
      </trkpt>
      <trkpt lat="48.83511" lon="2.4695">
        <ele>64</ele>
        <time>2015-12-28T20:47:00Z</time>
      </trkpt>
      <trkpt lat="48.83532" lon="2.46958">
        <ele>64.599998474121</ele>
        <time>2015-12-28T20:47:04Z</time>
      </trkpt>
      <trkpt lat="48.83554" lon="2.46963">
        <ele>64.599998474121</ele>
        <time>2015-12-28T20:47:08Z</time>
      </trkpt>
      <trkpt lat="48.83559" lon="2.46963">
        <ele>64.599998474121</ele>
        <time>2015-12-28T20:47:09Z</time>
      </trkpt>
      <trkpt lat="48.83579" lon="2.46965">
        <ele>64.599998474121</ele>
        <time>2015-12-28T20:47:14Z</time>
      </trkpt>
      <trkpt lat="48.83583" lon="2.46965">
        <ele>64.599998474121</ele>
        <time>2015-12-28T20:47:15Z</time>
      </trkpt>
      <trkpt lat="48.8359" lon="2.46965">
        <ele>64.599998474121</ele>
        <time>2015-12-28T20:47:17Z</time>
      </trkpt>
      <trkpt lat="48.83599" lon="2.46966">
        <ele>64.599998474121</ele>
        <time>2015-12-28T20:47:20Z</time>
      </trkpt>
      <trkpt lat="48.83609" lon="2.46968">
        <ele>64.599998474121</ele>
        <time>2015-12-28T20:47:26Z</time>
      </trkpt>
      <trkpt lat="48.83616" lon="2.46966">
        <ele>64.199996948242</ele>
        <time>2015-12-28T20:47:35Z</time>
      </trkpt>
      <trkpt lat="48.83628" lon="2.46982">
        <ele>64</ele>
        <time>2015-12-28T20:47:44Z</time>
      </trkpt>
      <trkpt lat="48.83634" lon="2.46996">
        <ele>64</ele>
        <time>2015-12-28T20:49:02Z</time>
      </trkpt>
      <trkpt lat="48.83653" lon="2.46983">
        <ele>63.20000076294</ele>
        <time>2015-12-28T20:49:12Z</time>
      </trkpt>
      <trkpt lat="48.8367" lon="2.4697">
        <ele>62.599998474121</ele>
        <time>2015-12-28T20:49:17Z</time>
      </trkpt>
      <trkpt lat="48.83689" lon="2.46959">
        <ele>62.400001525879</ele>
        <time>2015-12-28T20:49:22Z</time>
      </trkpt>
      <trkpt lat="48.83706" lon="2.46942">
        <ele>62.599998474121</ele>
        <time>2015-12-28T20:49:27Z</time>
      </trkpt>
      <trkpt lat="48.83722" lon="2.46924">
        <ele>63</ele>
        <time>2015-12-28T20:49:33Z</time>
      </trkpt>
      <trkpt lat="48.83739" lon="2.46905">
        <ele>62.79999923706</ele>
        <time>2015-12-28T20:49:38Z</time>
      </trkpt>
      <trkpt lat="48.83757" lon="2.46884">
        <ele>62.20000076294</ele>
        <time>2015-12-28T20:49:43Z</time>
      </trkpt>
      <trkpt lat="48.83773" lon="2.46867">
        <ele>61.79999923706</ele>
        <time>2015-12-28T20:49:48Z</time>
      </trkpt>
      <trkpt lat="48.8379" lon="2.46849">
        <ele>61.20000076294</ele>
        <time>2015-12-28T20:49:53Z</time>
      </trkpt>
      <trkpt lat="48.83805" lon="2.46833">
        <ele>61.400001525879</ele>
        <time>2015-12-28T20:49:58Z</time>
      </trkpt>
      <trkpt lat="48.83821" lon="2.46814">
        <ele>61.400001525879</ele>
        <time>2015-12-28T20:50:03Z</time>
      </trkpt>
      <trkpt lat="48.83836" lon="2.46796">
        <ele>61.599998474121</ele>
        <time>2015-12-28T20:50:08Z</time>
      </trkpt>
      <trkpt lat="48.83852" lon="2.46779">
        <ele>62</ele>
        <time>2015-12-28T20:50:12Z</time>
      </trkpt>
      <trkpt lat="48.83869" lon="2.46764">
        <ele>62.20000076294</ele>
        <time>2015-12-28T20:50:16Z</time>
      </trkpt>
      <trkpt lat="48.83886" lon="2.46746">
        <ele>61.599998474121</ele>
        <time>2015-12-28T20:50:21Z</time>
      </trkpt>
      <trkpt lat="48.83901" lon="2.4673">
        <ele>60.79999923706</ele>
        <time>2015-12-28T20:50:25Z</time>
      </trkpt>
      <trkpt lat="48.83911" lon="2.46719">
        <ele>60.20000076294</ele>
        <time>2015-12-28T20:50:28Z</time>
      </trkpt>
      <trkpt lat="48.83924" lon="2.46709">
        <ele>60</ele>
        <time>2015-12-28T20:50:32Z</time>
      </trkpt>
      <trkpt lat="48.83943" lon="2.46693">
        <ele>59.599998474121</ele>
        <time>2015-12-28T20:50:37Z</time>
      </trkpt>
      <trkpt lat="48.83962" lon="2.46678">
        <ele>59.79999923706</ele>
        <time>2015-12-28T20:50:42Z</time>
      </trkpt>
      <trkpt lat="48.83983" lon="2.46663">
        <ele>60.20000076294</ele>
        <time>2015-12-28T20:50:47Z</time>
      </trkpt>
      <trkpt lat="48.83999" lon="2.46649">
        <ele>60.79999923706</ele>
        <time>2015-12-28T20:50:51Z</time>
      </trkpt>
      <trkpt lat="48.84006" lon="2.46643">
        <ele>61.20000076294</ele>
        <time>2015-12-28T20:50:53Z</time>
      </trkpt>
      <trkpt lat="48.84012" lon="2.46636">
        <ele>61.400001525879</ele>
        <time>2015-12-28T20:50:55Z</time>
      </trkpt>
      <trkpt lat="48.8402" lon="2.46629">
        <ele>61.79999923706</ele>
        <time>2015-12-28T20:50:57Z</time>
      </trkpt>
      <trkpt lat="48.84034" lon="2.46614">
        <ele>62.599998474121</ele>
        <time>2015-12-28T20:51:01Z</time>
      </trkpt>
      <trkpt lat="48.8405" lon="2.46595">
        <ele>63</ele>
        <time>2015-12-28T20:51:05Z</time>
      </trkpt>
      <trkpt lat="48.84064" lon="2.46575">
        <ele>63</ele>
        <time>2015-12-28T20:51:09Z</time>
      </trkpt>
      <trkpt lat="48.84078" lon="2.46554">
        <ele>62.599998474121</ele>
        <time>2015-12-28T20:51:13Z</time>
      </trkpt>
      <trkpt lat="48.84093" lon="2.46533">
        <ele>62.79999923706</ele>
        <time>2015-12-28T20:51:17Z</time>
      </trkpt>
      <trkpt lat="48.84109" lon="2.46512">
        <ele>63</ele>
        <time>2015-12-28T20:51:21Z</time>
      </trkpt>
      <trkpt lat="48.84119" lon="2.46497">
        <ele>63</ele>
        <time>2015-12-28T20:51:24Z</time>
      </trkpt>
      <trkpt lat="48.84132" lon="2.46476">
        <ele>62.79999923706</ele>
        <time>2015-12-28T20:51:28Z</time>
      </trkpt>
      <trkpt lat="48.84144" lon="2.46452">
        <ele>62.400001525879</ele>
        <time>2015-12-28T20:51:32Z</time>
      </trkpt>
      <trkpt lat="48.84157" lon="2.46427">
        <ele>63.20000076294</ele>
        <time>2015-12-28T20:51:36Z</time>
      </trkpt>
      <trkpt lat="48.84171" lon="2.46402">
        <ele>62.79999923706</ele>
        <time>2015-12-28T20:51:40Z</time>
      </trkpt>
      <trkpt lat="48.84183" lon="2.46379">
        <ele>62.79999923706</ele>
        <time>2015-12-28T20:51:44Z</time>
      </trkpt>
      <trkpt lat="48.84194" lon="2.46357">
        <ele>62.599998474121</ele>
        <time>2015-12-28T20:51:48Z</time>
      </trkpt>
      <trkpt lat="48.84208" lon="2.46334">
        <ele>62</ele>
        <time>2015-12-28T20:51:53Z</time>
      </trkpt>
      <trkpt lat="48.84214" lon="2.46322">
        <ele>61.599998474121</ele>
        <time>2015-12-28T20:51:56Z</time>
      </trkpt>
      <trkpt lat="48.84214" lon="2.46312">
        <ele>61</ele>
        <time>2015-12-28T20:51:59Z</time>
      </trkpt>
      <trkpt lat="48.84221" lon="2.46308">
        <ele>60.79999923706</ele>
        <time>2015-12-28T20:52:05Z</time>
      </trkpt>
      <trkpt lat="48.84236" lon="2.46288">
        <ele>59.79999923706</ele>
        <time>2015-12-28T20:52:44Z</time>
      </trkpt>
      <trkpt lat="48.84245" lon="2.46261">
        <ele>58.599998474121</ele>
        <time>2015-12-28T20:52:50Z</time>
      </trkpt>
      <trkpt lat="48.84254" lon="2.46233">
        <ele>57.79999923706</ele>
        <time>2015-12-28T20:52:55Z</time>
      </trkpt>
      <trkpt lat="48.84261" lon="2.46204">
        <ele>58.20000076294</ele>
        <time>2015-12-28T20:52:59Z</time>
      </trkpt>
      <trkpt lat="48.84268" lon="2.46177">
        <ele>58.79999923706</ele>
        <time>2015-12-28T20:53:03Z</time>
      </trkpt>
      <trkpt lat="48.84275" lon="2.46145">
        <ele>59.599998474121</ele>
        <time>2015-12-28T20:53:08Z</time>
      </trkpt>
      <trkpt lat="48.84282" lon="2.46116">
        <ele>60.400001525879</ele>
        <time>2015-12-28T20:53:12Z</time>
      </trkpt>
      <trkpt lat="48.8429" lon="2.46084">
        <ele>60.20000076294</ele>
        <time>2015-12-28T20:53:16Z</time>
      </trkpt>
      <trkpt lat="48.84298" lon="2.46055">
        <ele>58.79999923706</ele>
        <time>2015-12-28T20:53:20Z</time>
      </trkpt>
      <trkpt lat="48.84305" lon="2.46028">
        <ele>57.599998474121</ele>
        <time>2015-12-28T20:53:24Z</time>
      </trkpt>
      <trkpt lat="48.8431" lon="2.46001">
        <ele>57.599998474121</ele>
        <time>2015-12-28T20:53:28Z</time>
      </trkpt>
      <trkpt lat="48.84317" lon="2.45972">
        <ele>57.400001525879</ele>
        <time>2015-12-28T20:53:32Z</time>
      </trkpt>
      <trkpt lat="48.84324" lon="2.45946">
        <ele>57.599998474121</ele>
        <time>2015-12-28T20:53:35Z</time>
      </trkpt>
      <trkpt lat="48.84332" lon="2.45914">
        <ele>58</ele>
        <time>2015-12-28T20:53:39Z</time>
      </trkpt>
      <trkpt lat="48.84338" lon="2.45882">
        <ele>58</ele>
        <time>2015-12-28T20:53:43Z</time>
      </trkpt>
      <trkpt lat="48.84339" lon="2.45875">
        <ele>58</ele>
        <time>2015-12-28T20:53:44Z</time>
      </trkpt>
      <trkpt lat="48.84345" lon="2.45843">
        <ele>57.400001525879</ele>
        <time>2015-12-28T20:53:48Z</time>
      </trkpt>
      <trkpt lat="48.8435" lon="2.4581">
        <ele>57.400001525879</ele>
        <time>2015-12-28T20:53:52Z</time>
      </trkpt>
      <trkpt lat="48.84355" lon="2.45778">
        <ele>57.599998474121</ele>
        <time>2015-12-28T20:53:56Z</time>
      </trkpt>
      <trkpt lat="48.8436" lon="2.45749">
        <ele>57.79999923706</ele>
        <time>2015-12-28T20:54:00Z</time>
      </trkpt>
      <trkpt lat="48.84365" lon="2.45718">
        <ele>57.79999923706</ele>
        <time>2015-12-28T20:54:04Z</time>
      </trkpt>
      <trkpt lat="48.8437" lon="2.45689">
        <ele>57.599998474121</ele>
        <time>2015-12-28T20:54:08Z</time>
      </trkpt>
      <trkpt lat="48.84371" lon="2.45682">
        <ele>57.599998474121</ele>
        <time>2015-12-28T20:54:09Z</time>
      </trkpt>
      <trkpt lat="48.84376" lon="2.45652">
        <ele>57.599998474121</ele>
        <time>2015-12-28T20:54:13Z</time>
      </trkpt>
      <trkpt lat="48.8438" lon="2.45624">
        <ele>57.400001525879</ele>
        <time>2015-12-28T20:54:17Z</time>
      </trkpt>
      <trkpt lat="48.84381" lon="2.45616">
        <ele>57.400001525879</ele>
        <time>2015-12-28T20:54:18Z</time>
      </trkpt>
      <trkpt lat="48.84383" lon="2.45586">
        <ele>57.599998474121</ele>
        <time>2015-12-28T20:54:22Z</time>
      </trkpt>
      <trkpt lat="48.84385" lon="2.45571">
        <ele>57.599998474121</ele>
        <time>2015-12-28T20:54:24Z</time>
      </trkpt>
      <trkpt lat="48.84387" lon="2.45537">
        <ele>57</ele>
        <time>2015-12-28T20:54:28Z</time>
      </trkpt>
      <trkpt lat="48.84392" lon="2.45504">
        <ele>56.20000076294</ele>
        <time>2015-12-28T20:54:32Z</time>
      </trkpt>
      <trkpt lat="48.84395" lon="2.45472">
        <ele>55.400001525879</ele>
        <time>2015-12-28T20:54:36Z</time>
      </trkpt>
      <trkpt lat="48.84398" lon="2.45441">
        <ele>54.79999923706</ele>
        <time>2015-12-28T20:54:40Z</time>
      </trkpt>
      <trkpt lat="48.84404" lon="2.45411">
        <ele>54.400001525879</ele>
        <time>2015-12-28T20:54:44Z</time>
      </trkpt>
      <trkpt lat="48.84408" lon="2.45382">
        <ele>54.400001525879</ele>
        <time>2015-12-28T20:54:48Z</time>
      </trkpt>
      <trkpt lat="48.84408" lon="2.45375">
        <ele>54.400001525879</ele>
        <time>2015-12-28T20:54:49Z</time>
      </trkpt>
      <trkpt lat="48.84412" lon="2.45346">
        <ele>54.400001525879</ele>
        <time>2015-12-28T20:54:53Z</time>
      </trkpt>
      <trkpt lat="48.84415" lon="2.45315">
        <ele>54</ele>
        <time>2015-12-28T20:54:57Z</time>
      </trkpt>
      <trkpt lat="48.84419" lon="2.45286">
        <ele>54.400001525879</ele>
        <time>2015-12-28T20:55:01Z</time>
      </trkpt>
      <trkpt lat="48.84424" lon="2.45251">
        <ele>54.79999923706</ele>
        <time>2015-12-28T20:55:06Z</time>
      </trkpt>
      <trkpt lat="48.84429" lon="2.45221">
        <ele>55</ele>
        <time>2015-12-28T20:55:10Z</time>
      </trkpt>
      <trkpt lat="48.84433" lon="2.45191">
        <ele>55</ele>
        <time>2015-12-28T20:55:14Z</time>
      </trkpt>
      <trkpt lat="48.84435" lon="2.45184">
        <ele>55</ele>
        <time>2015-12-28T20:55:15Z</time>
      </trkpt>
      <trkpt lat="48.84439" lon="2.45155">
        <ele>54.79999923706</ele>
        <time>2015-12-28T20:55:19Z</time>
      </trkpt>
      <trkpt lat="48.84445" lon="2.45129">
        <ele>54.599998474121</ele>
        <time>2015-12-28T20:55:23Z</time>
      </trkpt>
      <trkpt lat="48.84449" lon="2.45112">
        <ele>54.599998474121</ele>
        <time>2015-12-28T20:55:26Z</time>
      </trkpt>
      <trkpt lat="48.84453" lon="2.45092">
        <ele>54.400001525879</ele>
        <time>2015-12-28T20:55:31Z</time>
      </trkpt>
      <trkpt lat="48.84453" lon="2.45082">
        <ele>54.599998474121</ele>
        <time>2015-12-28T20:55:33Z</time>
      </trkpt>
      <trkpt lat="48.84455" lon="2.45068">
        <ele>54.400001525879</ele>
        <time>2015-12-28T20:55:36Z</time>
      </trkpt>
      <trkpt lat="48.84457" lon="2.4505">
        <ele>54.20000076294</ele>
        <time>2015-12-28T20:55:40Z</time>
      </trkpt>
      <trkpt lat="48.84458" lon="2.4504">
        <ele>54.20000076294</ele>
        <time>2015-12-28T20:55:42Z</time>
      </trkpt>
      <trkpt lat="48.84463" lon="2.45011">
        <ele>54.20000076294</ele>
        <time>2015-12-28T20:55:47Z</time>
      </trkpt>
      <trkpt lat="48.84465" lon="2.44991">
        <ele>54.400001525879</ele>
        <time>2015-12-28T20:55:50Z</time>
      </trkpt>
      <trkpt lat="48.84465" lon="2.4497">
        <ele>55</ele>
        <time>2015-12-28T20:55:54Z</time>
      </trkpt>
      <trkpt lat="48.84468" lon="2.4494">
        <ele>55.599998474121</ele>
        <time>2015-12-28T20:55:59Z</time>
      </trkpt>
      <trkpt lat="48.8447" lon="2.44914">
        <ele>55.400001525879</ele>
        <time>2015-12-28T20:56:03Z</time>
      </trkpt>
      <trkpt lat="48.84471" lon="2.44884">
        <ele>55.79999923706</ele>
        <time>2015-12-28T20:56:07Z</time>
      </trkpt>
      <trkpt lat="48.84474" lon="2.44852">
        <ele>55.599998474121</ele>
        <time>2015-12-28T20:56:11Z</time>
      </trkpt>
      <trkpt lat="48.84478" lon="2.44818">
        <ele>54.79999923706</ele>
        <time>2015-12-28T20:56:15Z</time>
      </trkpt>
      <trkpt lat="48.84481" lon="2.44791">
        <ele>54</ele>
        <time>2015-12-28T20:56:18Z</time>
      </trkpt>
      <trkpt lat="48.84487" lon="2.44762">
        <ele>53.599998474121</ele>
        <time>2015-12-28T20:56:21Z</time>
      </trkpt>
      <trkpt lat="48.84491" lon="2.44729">
        <ele>53.599998474121</ele>
        <time>2015-12-28T20:56:25Z</time>
      </trkpt>
      <trkpt lat="48.84492" lon="2.44722">
        <ele>53.599998474121</ele>
        <time>2015-12-28T20:56:26Z</time>
      </trkpt>
      <trkpt lat="48.84494" lon="2.44706">
        <ele>53.79999923706</ele>
        <time>2015-12-28T20:56:28Z</time>
      </trkpt>
      <trkpt lat="48.84496" lon="2.44678">
        <ele>54.20000076294</ele>
        <time>2015-12-28T20:56:32Z</time>
      </trkpt>
      <trkpt lat="48.845" lon="2.44658">
        <ele>54</ele>
        <time>2015-12-28T20:56:36Z</time>
      </trkpt>
      <trkpt lat="48.845" lon="2.44653">
        <ele>54</ele>
        <time>2015-12-28T20:56:38Z</time>
      </trkpt>
      <trkpt lat="48.84518" lon="2.44651">
        <ele>54</ele>
        <time>2015-12-28T20:57:02Z</time>
      </trkpt>
      <trkpt lat="48.84536" lon="2.44644">
        <ele>53.599998474121</ele>
        <time>2015-12-28T20:57:08Z</time>
      </trkpt>
      <trkpt lat="48.84555" lon="2.44639">
        <ele>53.20000076294</ele>
        <time>2015-12-28T20:57:15Z</time>
      </trkpt>
      <trkpt lat="48.84568" lon="2.44636">
        <ele>52.79999923706</ele>
        <time>2015-12-28T20:57:20Z</time>
      </trkpt>
      <trkpt lat="48.8457" lon="2.44625">
        <ele>53</ele>
        <time>2015-12-28T20:57:24Z</time>
      </trkpt>
      <trkpt lat="48.84572" lon="2.44595">
        <ele>53.599998474121</ele>
        <time>2015-12-28T20:57:31Z</time>
      </trkpt>
      <trkpt lat="48.84577" lon="2.44569">
        <ele>54.20000076294</ele>
        <time>2015-12-28T20:57:37Z</time>
      </trkpt>
      <trkpt lat="48.84577" lon="2.4454">
        <ele>54.79999923706</ele>
        <time>2015-12-28T20:57:42Z</time>
      </trkpt>
      <trkpt lat="48.84579" lon="2.44508">
        <ele>56</ele>
        <time>2015-12-28T20:57:48Z</time>
      </trkpt>
      <trkpt lat="48.84582" lon="2.44478">
        <ele>56.20000076294</ele>
        <time>2015-12-28T20:57:53Z</time>
      </trkpt>
      <trkpt lat="48.84585" lon="2.44448">
        <ele>55.599998474121</ele>
        <time>2015-12-28T20:57:57Z</time>
      </trkpt>
      <trkpt lat="48.84586" lon="2.44419">
        <ele>54.79999923706</ele>
        <time>2015-12-28T20:58:01Z</time>
      </trkpt>
      <trkpt lat="48.84586" lon="2.44388">
        <ele>54.20000076294</ele>
        <time>2015-12-28T20:58:05Z</time>
      </trkpt>
      <trkpt lat="48.84588" lon="2.44356">
        <ele>53.79999923706</ele>
        <time>2015-12-28T20:58:09Z</time>
      </trkpt>
      <trkpt lat="48.84591" lon="2.44328">
        <ele>53.599998474121</ele>
        <time>2015-12-28T20:58:13Z</time>
      </trkpt>
      <trkpt lat="48.84592" lon="2.44299">
        <ele>53.79999923706</ele>
        <time>2015-12-28T20:58:17Z</time>
      </trkpt>
      <trkpt lat="48.84592" lon="2.44271">
        <ele>54</ele>
        <time>2015-12-28T20:58:21Z</time>
      </trkpt>
      <trkpt lat="48.84593" lon="2.44265">
        <ele>54.20000076294</ele>
        <time>2015-12-28T20:58:22Z</time>
      </trkpt>
      <trkpt lat="48.8459" lon="2.44232">
        <ele>54.400001525879</ele>
        <time>2015-12-28T20:58:27Z</time>
      </trkpt>
      <trkpt lat="48.84591" lon="2.44205">
        <ele>54.400001525879</ele>
        <time>2015-12-28T20:58:30Z</time>
      </trkpt>
      <trkpt lat="48.8459" lon="2.44176">
        <ele>54.400001525879</ele>
        <time>2015-12-28T20:58:34Z</time>
      </trkpt>
      <trkpt lat="48.84592" lon="2.44146">
        <ele>54.79999923706</ele>
        <time>2015-12-28T20:58:38Z</time>
      </trkpt>
      <trkpt lat="48.84592" lon="2.44113">
        <ele>54</ele>
        <time>2015-12-28T20:58:43Z</time>
      </trkpt>
      <trkpt lat="48.84594" lon="2.44084">
        <ele>53.400001525879</ele>
        <time>2015-12-28T20:58:48Z</time>
      </trkpt>
      <trkpt lat="48.84595" lon="2.44061">
        <ele>53.20000076294</ele>
        <time>2015-12-28T20:58:51Z</time>
      </trkpt>
      <trkpt lat="48.84596" lon="2.44045">
        <ele>53.20000076294</ele>
        <time>2015-12-28T20:58:54Z</time>
      </trkpt>
      <trkpt lat="48.84601" lon="2.44018">
        <ele>53</ele>
        <time>2015-12-28T20:58:59Z</time>
      </trkpt>
      <trkpt lat="48.84603" lon="2.43989">
        <ele>53.20000076294</ele>
        <time>2015-12-28T20:59:11Z</time>
      </trkpt>
      <trkpt lat="48.84601" lon="2.43974">
        <ele>53.400001525879</ele>
        <time>2015-12-28T20:59:21Z</time>
      </trkpt>
      <trkpt lat="48.84597" lon="2.43965">
        <ele>53.599998474121</ele>
        <time>2015-12-28T20:59:29Z</time>
      </trkpt>
      <trkpt lat="48.84596" lon="2.43953">
        <ele>53.599998474121</ele>
        <time>2015-12-28T20:59:38Z</time>
      </trkpt>
      <trkpt lat="48.84593" lon="2.43935">
        <ele>54</ele>
        <time>2015-12-28T20:59:46Z</time>
      </trkpt>
      <trkpt lat="48.84591" lon="2.43929">
        <ele>54</ele>
        <time>2015-12-28T20:59:48Z</time>
      </trkpt>
      <trkpt lat="48.8459" lon="2.43925">
        <ele>54</ele>
        <time>2015-12-28T20:59:50Z</time>
      </trkpt>
      <trkpt lat="48.84593" lon="2.43907">
        <ele>54.20000076294</ele>
        <time>2015-12-28T21:00:02Z</time>
      </trkpt>
      <trkpt lat="48.84593" lon="2.43882">
        <ele>55.599998474121</ele>
        <time>2015-12-28T21:00:10Z</time>
      </trkpt>
      <trkpt lat="48.84594" lon="2.43877">
        <ele>56</ele>
        <time>2015-12-28T21:00:11Z</time>
      </trkpt>
      <trkpt lat="48.84598" lon="2.43849">
        <ele>57.79999923706</ele>
        <time>2015-12-28T21:00:18Z</time>
      </trkpt>
      <trkpt lat="48.84606" lon="2.43824">
        <ele>59</ele>
        <time>2015-12-28T21:00:24Z</time>
      </trkpt>
      <trkpt lat="48.84607" lon="2.43796">
        <ele>58.599998474121</ele>
        <time>2015-12-28T21:00:30Z</time>
      </trkpt>
      <trkpt lat="48.84613" lon="2.43769">
        <ele>58</ele>
        <time>2015-12-28T21:00:34Z</time>
      </trkpt>
      <trkpt lat="48.8462" lon="2.43733">
        <ele>57.599998474121</ele>
        <time>2015-12-28T21:00:39Z</time>
      </trkpt>
      <trkpt lat="48.84624" lon="2.43702">
        <ele>57.20000076294</ele>
        <time>2015-12-28T21:00:44Z</time>
      </trkpt>
      <trkpt lat="48.84628" lon="2.43687">
        <ele>57</ele>
        <time>2015-12-28T21:00:47Z</time>
      </trkpt>
      <trkpt lat="48.84634" lon="2.43657">
        <ele>56.20000076294</ele>
        <time>2015-12-28T21:00:53Z</time>
      </trkpt>
      <trkpt lat="48.84639" lon="2.4363">
        <ele>55.79999923706</ele>
        <time>2015-12-28T21:00:58Z</time>
      </trkpt>
      <trkpt lat="48.84642" lon="2.43603">
        <ele>55.599998474121</ele>
        <time>2015-12-28T21:01:03Z</time>
      </trkpt>
      <trkpt lat="48.84644" lon="2.43573">
        <ele>56</ele>
        <time>2015-12-28T21:01:09Z</time>
      </trkpt>
      <trkpt lat="48.84647" lon="2.43549">
        <ele>57.20000076294</ele>
        <time>2015-12-28T21:01:14Z</time>
      </trkpt>
      <trkpt lat="48.84653" lon="2.4353">
        <ele>58</ele>
        <time>2015-12-28T21:01:21Z</time>
      </trkpt>
      <trkpt lat="48.84672" lon="2.4352">
        <ele>58.20000076294</ele>
        <time>2015-12-28T21:01:28Z</time>
      </trkpt>
      <trkpt lat="48.84693" lon="2.43521">
        <ele>58</ele>
        <time>2015-12-28T21:01:34Z</time>
      </trkpt>
      <trkpt lat="48.84711" lon="2.43515">
        <ele>58.79999923706</ele>
        <time>2015-12-28T21:01:42Z</time>
      </trkpt>
      <trkpt lat="48.8472" lon="2.43488">
        <ele>58.599998474121</ele>
        <time>2015-12-28T21:01:48Z</time>
      </trkpt>
      <trkpt lat="48.84727" lon="2.43461">
        <ele>58.599998474121</ele>
        <time>2015-12-28T21:01:55Z</time>
      </trkpt>
      <trkpt lat="48.84739" lon="2.43445">
        <ele>58.599998474121</ele>
        <time>2015-12-28T21:02:02Z</time>
      </trkpt>
      <trkpt lat="48.84742" lon="2.43417">
        <ele>59</ele>
        <time>2015-12-28T21:02:09Z</time>
      </trkpt>
      <trkpt lat="48.8474" lon="2.43388">
        <ele>58.599998474121</ele>
        <time>2015-12-28T21:02:16Z</time>
      </trkpt>
      <trkpt lat="48.84739" lon="2.43357">
        <ele>58.400001525879</ele>
        <time>2015-12-28T21:02:23Z</time>
      </trkpt>
      <trkpt lat="48.84741" lon="2.43328">
        <ele>57.79999923706</ele>
        <time>2015-12-28T21:02:33Z</time>
      </trkpt>
      <trkpt lat="48.84742" lon="2.43297">
        <ele>56.79999923706</ele>
        <time>2015-12-28T21:02:42Z</time>
      </trkpt>
      <trkpt lat="48.84741" lon="2.43268">
        <ele>55.79999923706</ele>
        <time>2015-12-28T21:02:47Z</time>
      </trkpt>
      <trkpt lat="48.84742" lon="2.43236">
        <ele>54.599998474121</ele>
        <time>2015-12-28T21:02:52Z</time>
      </trkpt>
      <trkpt lat="48.84741" lon="2.43208">
        <ele>54.20000076294</ele>
        <time>2015-12-28T21:02:56Z</time>
      </trkpt>
      <trkpt lat="48.84744" lon="2.43177">
        <ele>53.79999923706</ele>
        <time>2015-12-28T21:03:00Z</time>
      </trkpt>
      <trkpt lat="48.84745" lon="2.43149">
        <ele>53.79999923706</ele>
        <time>2015-12-28T21:03:04Z</time>
      </trkpt>
      <trkpt lat="48.84746" lon="2.4312">
        <ele>53.79999923706</ele>
        <time>2015-12-28T21:03:08Z</time>
      </trkpt>
      <trkpt lat="48.84747" lon="2.43088">
        <ele>53.400001525879</ele>
        <time>2015-12-28T21:03:13Z</time>
      </trkpt>
      <trkpt lat="48.84747" lon="2.43058">
        <ele>53.599998474121</ele>
        <time>2015-12-28T21:03:18Z</time>
      </trkpt>
      <trkpt lat="48.84746" lon="2.43028">
        <ele>54</ele>
        <time>2015-12-28T21:03:22Z</time>
      </trkpt>
      <trkpt lat="48.84745" lon="2.42998">
        <ele>54.400001525879</ele>
        <time>2015-12-28T21:03:26Z</time>
      </trkpt>
      <trkpt lat="48.84743" lon="2.42964">
        <ele>53.599998474121</ele>
        <time>2015-12-28T21:03:30Z</time>
      </trkpt>
      <trkpt lat="48.8474" lon="2.42929">
        <ele>53.20000076294</ele>
        <time>2015-12-28T21:03:34Z</time>
      </trkpt>
      <trkpt lat="48.84735" lon="2.42897">
        <ele>52.79999923706</ele>
        <time>2015-12-28T21:03:38Z</time>
      </trkpt>
      <trkpt lat="48.84729" lon="2.42865">
        <ele>52.20000076294</ele>
        <time>2015-12-28T21:03:42Z</time>
      </trkpt>
      <trkpt lat="48.84727" lon="2.42833">
        <ele>51.599998474121</ele>
        <time>2015-12-28T21:03:46Z</time>
      </trkpt>
      <trkpt lat="48.84723" lon="2.42803">
        <ele>51.599998474121</ele>
        <time>2015-12-28T21:03:50Z</time>
      </trkpt>
      <trkpt lat="48.84723" lon="2.42795">
        <ele>51.599998474121</ele>
        <time>2015-12-28T21:03:51Z</time>
      </trkpt>
      <trkpt lat="48.84723" lon="2.42772">
        <ele>51.79999923706</ele>
        <time>2015-12-28T21:03:54Z</time>
      </trkpt>
      <trkpt lat="48.84719" lon="2.42744">
        <ele>52.400001525879</ele>
        <time>2015-12-28T21:03:59Z</time>
      </trkpt>
      <trkpt lat="48.84718" lon="2.42737">
        <ele>52.400001525879</ele>
        <time>2015-12-28T21:04:00Z</time>
      </trkpt>
      <trkpt lat="48.84716" lon="2.42712">
        <ele>52.79999923706</ele>
        <time>2015-12-28T21:04:04Z</time>
      </trkpt>
      <trkpt lat="48.84711" lon="2.42683">
        <ele>53.20000076294</ele>
        <time>2015-12-28T21:04:09Z</time>
      </trkpt>
      <trkpt lat="48.8471" lon="2.42679">
        <ele>53.20000076294</ele>
        <time>2015-12-28T21:04:10Z</time>
      </trkpt>
      <trkpt lat="48.84705" lon="2.42652">
        <ele>53.400001525879</ele>
        <time>2015-12-28T21:04:16Z</time>
      </trkpt>
      <trkpt lat="48.84703" lon="2.42642">
        <ele>53.400001525879</ele>
        <time>2015-12-28T21:04:18Z</time>
      </trkpt>
      <trkpt lat="48.84701" lon="2.42626">
        <ele>53.20000076294</ele>
        <time>2015-12-28T21:04:21Z</time>
      </trkpt>
      <trkpt lat="48.84694" lon="2.42597">
        <ele>53.20000076294</ele>
        <time>2015-12-28T21:04:26Z</time>
      </trkpt>
      <trkpt lat="48.84691" lon="2.42585">
        <ele>53</ele>
        <time>2015-12-28T21:04:28Z</time>
      </trkpt>
      <trkpt lat="48.84683" lon="2.42558">
        <ele>52.79999923706</ele>
        <time>2015-12-28T21:04:32Z</time>
      </trkpt>
      <trkpt lat="48.84678" lon="2.42545">
        <ele>52.599998474121</ele>
        <time>2015-12-28T21:04:34Z</time>
      </trkpt>
      <trkpt lat="48.84671" lon="2.42519">
        <ele>52.400001525879</ele>
        <time>2015-12-28T21:04:38Z</time>
      </trkpt>
      <trkpt lat="48.84669" lon="2.42513">
        <ele>52.400001525879</ele>
        <time>2015-12-28T21:04:39Z</time>
      </trkpt>
      <trkpt lat="48.84659" lon="2.42483">
        <ele>52.400001525879</ele>
        <time>2015-12-28T21:04:44Z</time>
      </trkpt>
      <trkpt lat="48.84649" lon="2.42454">
        <ele>52.599998474121</ele>
        <time>2015-12-28T21:04:49Z</time>
      </trkpt>
      <trkpt lat="48.84639" lon="2.42429">
        <ele>52.79999923706</ele>
        <time>2015-12-28T21:04:54Z</time>
      </trkpt>
      <trkpt lat="48.84627" lon="2.42406">
        <ele>53.20000076294</ele>
        <time>2015-12-28T21:04:59Z</time>
      </trkpt>
      <trkpt lat="48.84624" lon="2.42403">
        <ele>53.20000076294</ele>
        <time>2015-12-28T21:05:00Z</time>
      </trkpt>
      <trkpt lat="48.8462" lon="2.42397">
        <ele>53.20000076294</ele>
        <time>2015-12-28T21:05:02Z</time>
      </trkpt>
      <trkpt lat="48.84604" lon="2.42379">
        <ele>53.599998474121</ele>
        <time>2015-12-28T21:05:09Z</time>
      </trkpt>
      <trkpt lat="48.84599" lon="2.42371">
        <ele>53.79999923706</ele>
        <time>2015-12-28T21:05:14Z</time>
      </trkpt>
      <trkpt lat="48.84594" lon="2.42355">
        <ele>54.20000076294</ele>
        <time>2015-12-28T21:06:03Z</time>
      </trkpt>
      <trkpt lat="48.84586" lon="2.4233">
        <ele>55</ele>
        <time>2015-12-28T21:06:13Z</time>
      </trkpt>
      <trkpt lat="48.84572" lon="2.4231">
        <ele>55</ele>
        <time>2015-12-28T21:06:23Z</time>
      </trkpt>
      <trkpt lat="48.84558" lon="2.42289">
        <ele>55.20000076294</ele>
        <time>2015-12-28T21:06:30Z</time>
      </trkpt>
      <trkpt lat="48.84546" lon="2.42267">
        <ele>55.400001525879</ele>
        <time>2015-12-28T21:06:36Z</time>
      </trkpt>
      <trkpt lat="48.84533" lon="2.42241">
        <ele>55.599998474121</ele>
        <time>2015-12-28T21:06:41Z</time>
      </trkpt>
      <trkpt lat="48.8452" lon="2.42219">
        <ele>55.400001525879</ele>
        <time>2015-12-28T21:06:46Z</time>
      </trkpt>
      <trkpt lat="48.8451" lon="2.42193">
        <ele>55</ele>
        <time>2015-12-28T21:06:50Z</time>
      </trkpt>
      <trkpt lat="48.84495" lon="2.42167">
        <ele>54.599998474121</ele>
        <time>2015-12-28T21:06:55Z</time>
      </trkpt>
      <trkpt lat="48.84482" lon="2.42144">
        <ele>54.79999923706</ele>
        <time>2015-12-28T21:07:00Z</time>
      </trkpt>
      <trkpt lat="48.84471" lon="2.42116">
        <ele>54.599998474121</ele>
        <time>2015-12-28T21:07:05Z</time>
      </trkpt>
      <trkpt lat="48.84461" lon="2.42093">
        <ele>54.79999923706</ele>
        <time>2015-12-28T21:07:09Z</time>
      </trkpt>
      <trkpt lat="48.84454" lon="2.42072">
        <ele>54.599998474121</ele>
        <time>2015-12-28T21:07:12Z</time>
      </trkpt>
      <trkpt lat="48.84443" lon="2.42043">
        <ele>54</ele>
        <time>2015-12-28T21:07:16Z</time>
      </trkpt>
      <trkpt lat="48.84439" lon="2.42036">
        <ele>54</ele>
        <time>2015-12-28T21:07:17Z</time>
      </trkpt>
      <trkpt lat="48.84426" lon="2.42012">
        <ele>53.599998474121</ele>
        <time>2015-12-28T21:07:21Z</time>
      </trkpt>
      <trkpt lat="48.84415" lon="2.4199">
        <ele>53.599998474121</ele>
        <time>2015-12-28T21:07:24Z</time>
      </trkpt>
      <trkpt lat="48.84405" lon="2.41963">
        <ele>54.20000076294</ele>
        <time>2015-12-28T21:07:27Z</time>
      </trkpt>
      <trkpt lat="48.84394" lon="2.41941">
        <ele>54.79999923706</ele>
        <time>2015-12-28T21:07:30Z</time>
      </trkpt>
      <trkpt lat="48.84384" lon="2.41918">
        <ele>55.400001525879</ele>
        <time>2015-12-28T21:07:33Z</time>
      </trkpt>
      <trkpt lat="48.84373" lon="2.41886">
        <ele>54.599998474121</ele>
        <time>2015-12-28T21:07:37Z</time>
      </trkpt>
      <trkpt lat="48.84366" lon="2.41863">
        <ele>53.79999923706</ele>
        <time>2015-12-28T21:07:40Z</time>
      </trkpt>
      <trkpt lat="48.84365" lon="2.4183">
        <ele>53.400001525879</ele>
        <time>2015-12-28T21:07:44Z</time>
      </trkpt>
      <trkpt lat="48.84366" lon="2.41823">
        <ele>53.20000076294</ele>
        <time>2015-12-28T21:07:45Z</time>
      </trkpt>
      <trkpt lat="48.84372" lon="2.41797">
        <ele>52.79999923706</ele>
        <time>2015-12-28T21:07:49Z</time>
      </trkpt>
      <trkpt lat="48.84375" lon="2.41784">
        <ele>52.599998474121</ele>
        <time>2015-12-28T21:07:52Z</time>
      </trkpt>
      <trkpt lat="48.84376" lon="2.41773">
        <ele>52.400001525879</ele>
        <time>2015-12-28T21:07:56Z</time>
      </trkpt>
      <trkpt lat="48.84371" lon="2.41744">
        <ele>51.79999923706</ele>
        <time>2015-12-28T21:08:16Z</time>
      </trkpt>
      <trkpt lat="48.84372" lon="2.41714">
        <ele>52.79999923706</ele>
        <time>2015-12-28T21:08:21Z</time>
      </trkpt>
      <trkpt lat="48.84375" lon="2.41684">
        <ele>54</ele>
        <time>2015-12-28T21:08:25Z</time>
      </trkpt>
      <trkpt lat="48.84376" lon="2.41651">
        <ele>55</ele>
        <time>2015-12-28T21:08:29Z</time>
      </trkpt>
      <trkpt lat="48.84377" lon="2.41615">
        <ele>57.20000076294</ele>
        <time>2015-12-28T21:08:33Z</time>
      </trkpt>
      <trkpt lat="48.84378" lon="2.4158">
        <ele>58.400001525879</ele>
        <time>2015-12-28T21:08:37Z</time>
      </trkpt>
      <trkpt lat="48.8438" lon="2.41552">
        <ele>56.599998474121</ele>
        <time>2015-12-28T21:08:40Z</time>
      </trkpt>
      <trkpt lat="48.84383" lon="2.41517">
        <ele>54.400001525879</ele>
        <time>2015-12-28T21:08:44Z</time>
      </trkpt>
      <trkpt lat="48.84386" lon="2.41482">
        <ele>52.20000076294</ele>
        <time>2015-12-28T21:08:48Z</time>
      </trkpt>
      <trkpt lat="48.84389" lon="2.41466">
        <ele>50.79999923706</ele>
        <time>2015-12-28T21:08:50Z</time>
      </trkpt>
      <trkpt lat="48.84392" lon="2.41435">
        <ele>49</ele>
        <time>2015-12-28T21:08:54Z</time>
      </trkpt>
      <trkpt lat="48.84395" lon="2.41405">
        <ele>48.20000076294</ele>
        <time>2015-12-28T21:08:58Z</time>
      </trkpt>
      <trkpt lat="48.84399" lon="2.41374">
        <ele>48.599998474121</ele>
        <time>2015-12-28T21:09:02Z</time>
      </trkpt>
      <trkpt lat="48.84402" lon="2.41344">
        <ele>49.599998474121</ele>
        <time>2015-12-28T21:09:06Z</time>
      </trkpt>
      <trkpt lat="48.84405" lon="2.41313">
        <ele>50.599998474121</ele>
        <time>2015-12-28T21:09:10Z</time>
      </trkpt>
      <trkpt lat="48.84407" lon="2.41297">
        <ele>51</ele>
        <time>2015-12-28T21:09:12Z</time>
      </trkpt>
      <trkpt lat="48.84408" lon="2.41267">
        <ele>51.400001525879</ele>
        <time>2015-12-28T21:09:16Z</time>
      </trkpt>
      <trkpt lat="48.84411" lon="2.41235">
        <ele>52</ele>
        <time>2015-12-28T21:09:20Z</time>
      </trkpt>
      <trkpt lat="48.84414" lon="2.41203">
        <ele>52.20000076294</ele>
        <time>2015-12-28T21:09:24Z</time>
      </trkpt>
      <trkpt lat="48.84417" lon="2.41171">
        <ele>52.20000076294</ele>
        <time>2015-12-28T21:09:28Z</time>
      </trkpt>
      <trkpt lat="48.8442" lon="2.41138">
        <ele>53.599998474121</ele>
        <time>2015-12-28T21:09:32Z</time>
      </trkpt>
      <trkpt lat="48.84421" lon="2.41107">
        <ele>54.20000076294</ele>
        <time>2015-12-28T21:09:36Z</time>
      </trkpt>
      <trkpt lat="48.84422" lon="2.41099">
        <ele>54.400001525879</ele>
        <time>2015-12-28T21:09:37Z</time>
      </trkpt>
      <trkpt lat="48.84425" lon="2.41072">
        <ele>54.599998474121</ele>
        <time>2015-12-28T21:09:41Z</time>
      </trkpt>
      <trkpt lat="48.84427" lon="2.41059">
        <ele>54.79999923706</ele>
        <time>2015-12-28T21:09:44Z</time>
      </trkpt>
      <trkpt lat="48.84429" lon="2.41053">
        <ele>54.599998474121</ele>
        <time>2015-12-28T21:09:54Z</time>
      </trkpt>
      <trkpt lat="48.84438" lon="2.41049">
        <ele>54.400001525879</ele>
        <time>2015-12-28T21:10:25Z</time>
      </trkpt>
      <trkpt lat="48.84431" lon="2.41049">
        <ele>54.599998474121</ele>
        <time>2015-12-28T21:10:31Z</time>
      </trkpt>
      <trkpt lat="48.84423" lon="2.41022">
        <ele>55.20000076294</ele>
        <time>2015-12-28T21:10:40Z</time>
      </trkpt>
      <trkpt lat="48.8442" lon="2.41014">
        <ele>55.400001525879</ele>
        <time>2015-12-28T21:10:43Z</time>
      </trkpt>
      <trkpt lat="48.84412" lon="2.4101">
        <ele>55.79999923706</ele>
        <time>2015-12-28T21:10:48Z</time>
      </trkpt>
      <trkpt lat="48.84409" lon="2.41004">
        <ele>56</ele>
        <time>2015-12-28T21:10:50Z</time>
      </trkpt>
      <trkpt lat="48.84412" lon="2.40984">
        <ele>55.79999923706</ele>
        <time>2015-12-28T21:10:56Z</time>
      </trkpt>
      <trkpt lat="48.84421" lon="2.40956">
        <ele>55.79999923706</ele>
        <time>2015-12-28T21:11:03Z</time>
      </trkpt>
      <trkpt lat="48.8443" lon="2.40931">
        <ele>56</ele>
        <time>2015-12-28T21:11:08Z</time>
      </trkpt>
      <trkpt lat="48.84442" lon="2.40908">
        <ele>56.20000076294</ele>
        <time>2015-12-28T21:11:14Z</time>
      </trkpt>
      <trkpt lat="48.84441" lon="2.40896">
        <ele>56.20000076294</ele>
        <time>2015-12-28T21:11:18Z</time>
      </trkpt>
      <trkpt lat="48.84436" lon="2.40888">
        <ele>56</ele>
        <time>2015-12-28T21:11:22Z</time>
      </trkpt>
      <trkpt lat="48.84417" lon="2.40882">
        <ele>56.20000076294</ele>
        <time>2015-12-28T21:11:28Z</time>
      </trkpt>
      <trkpt lat="48.84408" lon="2.40884">
        <ele>56.400001525879</ele>
        <time>2015-12-28T21:11:31Z</time>
      </trkpt>
      <trkpt lat="48.84394" lon="2.40906">
        <ele>56.599998474121</ele>
        <time>2015-12-28T21:11:37Z</time>
      </trkpt>
      <trkpt lat="48.84393" lon="2.40908">
        <ele>56.599998474121</ele>
        <time>2015-12-28T21:11:38Z</time>
      </trkpt>
      <trkpt lat="48.84391" lon="2.40912">
        <ele>56.599998474121</ele>
        <time>2015-12-28T21:11:42Z</time>
      </trkpt>
      <trkpt lat="48.84383" lon="2.40906">
        <ele>56.599998474121</ele>
        <time>2015-12-28T21:11:52Z</time>
      </trkpt>
      <trkpt lat="48.84387" lon="2.40936">
        <ele>56.400001525879</ele>
        <time>2015-12-28T21:12:05Z</time>
      </trkpt>
      <trkpt lat="48.84389" lon="2.40957">
        <ele>56.400001525879</ele>
        <time>2015-12-28T21:12:09Z</time>
      </trkpt>
      <trkpt lat="48.84373" lon="2.40971">
        <ele>57</ele>
        <time>2015-12-28T21:12:12Z</time>
      </trkpt>
      <trkpt lat="48.84359" lon="2.40975">
        <ele>57.599998474121</ele>
        <time>2015-12-28T21:12:15Z</time>
      </trkpt>
      <trkpt lat="48.84336" lon="2.40987">
        <ele>57.79999923706</ele>
        <time>2015-12-28T21:12:21Z</time>
      </trkpt>
      <trkpt lat="48.84316" lon="2.40997">
        <ele>58</ele>
        <time>2015-12-28T21:12:26Z</time>
      </trkpt>
      <trkpt lat="48.84296" lon="2.40998">
        <ele>58</ele>
        <time>2015-12-28T21:12:32Z</time>
      </trkpt>
      <trkpt lat="48.84288" lon="2.40998">
        <ele>58</ele>
        <time>2015-12-28T21:12:37Z</time>
      </trkpt>
      <trkpt lat="48.84289" lon="2.41">
        <ele>58</ele>
        <time>2015-12-28T21:12:52Z</time>
      </trkpt>
      <trkpt lat="48.84292" lon="2.40993">
        <ele>58</ele>
        <time>2015-12-28T21:13:39Z</time>
      </trkpt>
      <trkpt lat="48.84312" lon="2.40986">
        <ele>57.79999923706</ele>
        <time>2015-12-28T21:13:46Z</time>
      </trkpt>
      <trkpt lat="48.84331" lon="2.40993">
        <ele>58</ele>
        <time>2015-12-28T21:13:53Z</time>
      </trkpt>
      <trkpt lat="48.8435" lon="2.40995">
        <ele>58</ele>
        <time>2015-12-28T21:14:01Z</time>
      </trkpt>
      <trkpt lat="48.84367" lon="2.40995">
        <ele>57.599998474121</ele>
        <time>2015-12-28T21:14:07Z</time>
      </trkpt>
      <trkpt lat="48.84388" lon="2.41001">
        <ele>56.79999923706</ele>
        <time>2015-12-28T21:14:16Z</time>
      </trkpt>
      <trkpt lat="48.84404" lon="2.40993">
        <ele>56.20000076294</ele>
        <time>2015-12-28T21:14:23Z</time>
      </trkpt>
      <trkpt lat="48.84404" lon="2.41007">
        <ele>56.20000076294</ele>
        <time>2015-12-28T21:14:36Z</time>
      </trkpt>
      <trkpt lat="48.84405" lon="2.4101">
        <ele>56</ele>
        <time>2015-12-28T21:14:40Z</time>
      </trkpt>
      <trkpt lat="48.84414" lon="2.41003">
        <ele>55.79999923706</ele>
        <time>2015-12-28T21:14:46Z</time>
      </trkpt>
      <trkpt lat="48.84424" lon="2.40998">
        <ele>55.599998474121</ele>
        <time>2015-12-28T21:14:53Z</time>
      </trkpt>
      <trkpt lat="48.84427" lon="2.40973">
        <ele>55.400001525879</ele>
        <time>2015-12-28T21:14:57Z</time>
      </trkpt>
      <trkpt lat="48.8443" lon="2.4095">
        <ele>55.599998474121</ele>
        <time>2015-12-28T21:15:00Z</time>
      </trkpt>
      <trkpt lat="48.8443" lon="2.40916">
        <ele>56</ele>
        <time>2015-12-28T21:15:04Z</time>
      </trkpt>
      <trkpt lat="48.8443" lon="2.40898">
        <ele>56.20000076294</ele>
        <time>2015-12-28T21:15:06Z</time>
      </trkpt>
      <trkpt lat="48.84433" lon="2.40866">
        <ele>56</ele>
        <time>2015-12-28T21:15:09Z</time>
      </trkpt>
      <trkpt lat="48.84433" lon="2.40836">
        <ele>56</ele>
        <time>2015-12-28T21:15:12Z</time>
      </trkpt>
      <trkpt lat="48.84434" lon="2.40805">
        <ele>55.79999923706</ele>
        <time>2015-12-28T21:15:15Z</time>
      </trkpt>
      <trkpt lat="48.84435" lon="2.40775">
        <ele>55.400001525879</ele>
        <time>2015-12-28T21:15:18Z</time>
      </trkpt>
      <trkpt lat="48.84435" lon="2.40765">
        <ele>55.20000076294</ele>
        <time>2015-12-28T21:15:19Z</time>
      </trkpt>
      <trkpt lat="48.84437" lon="2.40735">
        <ele>54.20000076294</ele>
        <time>2015-12-28T21:15:22Z</time>
      </trkpt>
      <trkpt lat="48.84442" lon="2.40705">
        <ele>52.400001525879</ele>
        <time>2015-12-28T21:15:25Z</time>
      </trkpt>
      <trkpt lat="48.84446" lon="2.40675">
        <ele>50.400001525879</ele>
        <time>2015-12-28T21:15:28Z</time>
      </trkpt>
      <trkpt lat="48.8445" lon="2.40643">
        <ele>50.599998474121</ele>
        <time>2015-12-28T21:15:31Z</time>
      </trkpt>
      <trkpt lat="48.84457" lon="2.40611">
        <ele>51</ele>
        <time>2015-12-28T21:15:34Z</time>
      </trkpt>
      <trkpt lat="48.84462" lon="2.40579">
        <ele>51</ele>
        <time>2015-12-28T21:15:37Z</time>
      </trkpt>
      <trkpt lat="48.84469" lon="2.40544">
        <ele>51</ele>
        <time>2015-12-28T21:15:40Z</time>
      </trkpt>
      <trkpt lat="48.84471" lon="2.4051">
        <ele>51</ele>
        <time>2015-12-28T21:15:43Z</time>
      </trkpt>
      <trkpt lat="48.84473" lon="2.40477">
        <ele>51.20000076294</ele>
        <time>2015-12-28T21:15:46Z</time>
      </trkpt>
      <trkpt lat="48.84478" lon="2.40444">
        <ele>51.20000076294</ele>
        <time>2015-12-28T21:15:49Z</time>
      </trkpt>
      <trkpt lat="48.84481" lon="2.4041">
        <ele>50.20000076294</ele>
        <time>2015-12-28T21:15:52Z</time>
      </trkpt>
      <trkpt lat="48.84484" lon="2.40378">
        <ele>51.20000076294</ele>
        <time>2015-12-28T21:15:55Z</time>
      </trkpt>
      <trkpt lat="48.84486" lon="2.40346">
        <ele>52.20000076294</ele>
        <time>2015-12-28T21:15:58Z</time>
      </trkpt>
      <trkpt lat="48.84489" lon="2.40314">
        <ele>52.400001525879</ele>
        <time>2015-12-28T21:16:01Z</time>
      </trkpt>
      <trkpt lat="48.84492" lon="2.40284">
        <ele>52.79999923706</ele>
        <time>2015-12-28T21:16:04Z</time>
      </trkpt>
      <trkpt lat="48.84493" lon="2.40276">
        <ele>53</ele>
        <time>2015-12-28T21:16:05Z</time>
      </trkpt>
      <trkpt lat="48.84498" lon="2.40257">
        <ele>53.599998474121</ele>
        <time>2015-12-28T21:16:09Z</time>
      </trkpt>
      <trkpt lat="48.84504" lon="2.40261">
        <ele>53.599998474121</ele>
        <time>2015-12-28T21:16:45Z</time>
      </trkpt>
      <trkpt lat="48.84508" lon="2.40253">
        <ele>53.79999923706</ele>
        <time>2015-12-28T21:16:51Z</time>
      </trkpt>
      <trkpt lat="48.84515" lon="2.40235">
        <ele>53.599998474121</ele>
        <time>2015-12-28T21:16:55Z</time>
      </trkpt>
      <trkpt lat="48.84516" lon="2.40222">
        <ele>53.599998474121</ele>
        <time>2015-12-28T21:16:59Z</time>
      </trkpt>
      <trkpt lat="48.84508" lon="2.40195">
        <ele>53.400001525879</ele>
        <time>2015-12-28T21:17:07Z</time>
      </trkpt>
      <trkpt lat="48.845" lon="2.4017">
        <ele>53</ele>
        <time>2015-12-28T21:17:12Z</time>
      </trkpt>
      <trkpt lat="48.84494" lon="2.40144">
        <ele>53.20000076294</ele>
        <time>2015-12-28T21:17:16Z</time>
      </trkpt>
      <trkpt lat="48.84494" lon="2.40111">
        <ele>53.599998474121</ele>
        <time>2015-12-28T21:17:20Z</time>
      </trkpt>
      <trkpt lat="48.84494" lon="2.40092">
        <ele>53.79999923706</ele>
        <time>2015-12-28T21:17:22Z</time>
      </trkpt>
      <trkpt lat="48.84498" lon="2.40061">
        <ele>54.79999923706</ele>
        <time>2015-12-28T21:17:25Z</time>
      </trkpt>
      <trkpt lat="48.84501" lon="2.40026">
        <ele>55.400001525879</ele>
        <time>2015-12-28T21:17:28Z</time>
      </trkpt>
      <trkpt lat="48.84503" lon="2.39991">
        <ele>55.599998474121</ele>
        <time>2015-12-28T21:17:31Z</time>
      </trkpt>
      <trkpt lat="48.84506" lon="2.39955">
        <ele>55.20000076294</ele>
        <time>2015-12-28T21:17:34Z</time>
      </trkpt>
      <trkpt lat="48.84511" lon="2.3992">
        <ele>55</ele>
        <time>2015-12-28T21:17:37Z</time>
      </trkpt>
      <trkpt lat="48.84514" lon="2.39886">
        <ele>54.79999923706</ele>
        <time>2015-12-28T21:17:40Z</time>
      </trkpt>
      <trkpt lat="48.84518" lon="2.39846">
        <ele>55.599998474121</ele>
        <time>2015-12-28T21:17:43Z</time>
      </trkpt>
      <trkpt lat="48.84519" lon="2.39834">
        <ele>55.79999923706</ele>
        <time>2015-12-28T21:17:44Z</time>
      </trkpt>
      <trkpt lat="48.84523" lon="2.398">
        <ele>54.400001525879</ele>
        <time>2015-12-28T21:17:47Z</time>
      </trkpt>
      <trkpt lat="48.84528" lon="2.39765">
        <ele>52.79999923706</ele>
        <time>2015-12-28T21:17:50Z</time>
      </trkpt>
      <trkpt lat="48.84531" lon="2.39742">
        <ele>53</ele>
        <time>2015-12-28T21:17:52Z</time>
      </trkpt>
      <trkpt lat="48.84534" lon="2.39706">
        <ele>54.599998474121</ele>
        <time>2015-12-28T21:17:55Z</time>
      </trkpt>
      <trkpt lat="48.84536" lon="2.39672">
        <ele>56</ele>
        <time>2015-12-28T21:17:58Z</time>
      </trkpt>
      <trkpt lat="48.84539" lon="2.39639">
        <ele>57</ele>
        <time>2015-12-28T21:18:01Z</time>
      </trkpt>
      <trkpt lat="48.84543" lon="2.39607">
        <ele>58.20000076294</ele>
        <time>2015-12-28T21:18:04Z</time>
      </trkpt>
      <trkpt lat="48.84547" lon="2.3958">
        <ele>58.400001525879</ele>
        <time>2015-12-28T21:18:07Z</time>
      </trkpt>
      <trkpt lat="48.84551" lon="2.3955">
        <ele>59.20000076294</ele>
        <time>2015-12-28T21:18:11Z</time>
      </trkpt>
      <trkpt lat="48.84553" lon="2.39521">
        <ele>59</ele>
        <time>2015-12-28T21:18:16Z</time>
      </trkpt>
      <trkpt lat="48.84557" lon="2.39507">
        <ele>58.20000076294</ele>
        <time>2015-12-28T21:18:20Z</time>
      </trkpt>
      <trkpt lat="48.84553" lon="2.3952">
        <ele>59</ele>
        <time>2015-12-28T21:18:30Z</time>
      </trkpt>
      <trkpt lat="48.84553" lon="2.39522">
        <ele>59</ele>
        <time>2015-12-28T21:18:31Z</time>
      </trkpt>
      <trkpt lat="48.84556" lon="2.3951">
        <ele>58.20000076294</ele>
        <time>2015-12-28T21:19:19Z</time>
      </trkpt>
      <trkpt lat="48.84569" lon="2.39491">
        <ele>57.79999923706</ele>
        <time>2015-12-28T21:19:33Z</time>
      </trkpt>
      <trkpt lat="48.84589" lon="2.39474">
        <ele>57.79999923706</ele>
        <time>2015-12-28T21:19:39Z</time>
      </trkpt>
      <trkpt lat="48.84603" lon="2.39459">
        <ele>56.599998474121</ele>
        <time>2015-12-28T21:19:42Z</time>
      </trkpt>
      <trkpt lat="48.84622" lon="2.39443">
        <ele>57.400001525879</ele>
        <time>2015-12-28T21:19:49Z</time>
      </trkpt>
      <trkpt lat="48.84641" lon="2.3943">
        <ele>57.599998474121</ele>
        <time>2015-12-28T21:19:54Z</time>
      </trkpt>
      <trkpt lat="48.84657" lon="2.39412">
        <ele>57.20000076294</ele>
        <time>2015-12-28T21:20:01Z</time>
      </trkpt>
      <trkpt lat="48.84671" lon="2.39392">
        <ele>57.79999923706</ele>
        <time>2015-12-28T21:20:07Z</time>
      </trkpt>
      <trkpt lat="48.84694" lon="2.39383">
        <ele>57.599998474121</ele>
        <time>2015-12-28T21:20:11Z</time>
      </trkpt>
      <trkpt lat="48.84713" lon="2.39366">
        <ele>56.400001525879</ele>
        <time>2015-12-28T21:20:15Z</time>
      </trkpt>
      <trkpt lat="48.84728" lon="2.39348">
        <ele>55.400001525879</ele>
        <time>2015-12-28T21:20:19Z</time>
      </trkpt>
      <trkpt lat="48.84744" lon="2.3933">
        <ele>54.599998474121</ele>
        <time>2015-12-28T21:20:23Z</time>
      </trkpt>
      <trkpt lat="48.84762" lon="2.39313">
        <ele>53.400001525879</ele>
        <time>2015-12-28T21:20:27Z</time>
      </trkpt>
      <trkpt lat="48.84776" lon="2.39296">
        <ele>54</ele>
        <time>2015-12-28T21:20:31Z</time>
      </trkpt>
      <trkpt lat="48.84787" lon="2.39284">
        <ele>54.599998474121</ele>
        <time>2015-12-28T21:20:35Z</time>
      </trkpt>
      <trkpt lat="48.84794" lon="2.3928">
        <ele>55</ele>
        <time>2015-12-28T21:20:39Z</time>
      </trkpt>
      <trkpt lat="48.84805" lon="2.39268">
        <ele>55</ele>
        <time>2015-12-28T21:20:58Z</time>
      </trkpt>
      <trkpt lat="48.8482" lon="2.39246">
        <ele>54.20000076294</ele>
        <time>2015-12-28T21:21:05Z</time>
      </trkpt>
      <trkpt lat="48.84833" lon="2.39234">
        <ele>53</ele>
        <time>2015-12-28T21:21:08Z</time>
      </trkpt>
      <trkpt lat="48.8485" lon="2.39216">
        <ele>52.400001525879</ele>
        <time>2015-12-28T21:21:12Z</time>
      </trkpt>
      <trkpt lat="48.84866" lon="2.39195">
        <ele>51</ele>
        <time>2015-12-28T21:21:17Z</time>
      </trkpt>
      <trkpt lat="48.84887" lon="2.39176">
        <ele>50.20000076294</ele>
        <time>2015-12-28T21:21:21Z</time>
      </trkpt>
      <trkpt lat="48.84907" lon="2.3916">
        <ele>49.79999923706</ele>
        <time>2015-12-28T21:21:25Z</time>
      </trkpt>
      <trkpt lat="48.84924" lon="2.39149">
        <ele>49.400001525879</ele>
        <time>2015-12-28T21:21:29Z</time>
      </trkpt>
      <trkpt lat="48.84941" lon="2.39134">
        <ele>49.400001525879</ele>
        <time>2015-12-28T21:21:34Z</time>
      </trkpt>
      <trkpt lat="48.84957" lon="2.39116">
        <ele>49.79999923706</ele>
        <time>2015-12-28T21:21:39Z</time>
      </trkpt>
      <trkpt lat="48.84975" lon="2.39097">
        <ele>50.79999923706</ele>
        <time>2015-12-28T21:21:44Z</time>
      </trkpt>
      <trkpt lat="48.84986" lon="2.39083">
        <ele>51.400001525879</ele>
        <time>2015-12-28T21:21:47Z</time>
      </trkpt>
      <trkpt lat="48.85" lon="2.39067">
        <ele>52.400001525879</ele>
        <time>2015-12-28T21:21:51Z</time>
      </trkpt>
      <trkpt lat="48.85016" lon="2.39049">
        <ele>53</ele>
        <time>2015-12-28T21:21:54Z</time>
      </trkpt>
      <trkpt lat="48.85019" lon="2.39044">
        <ele>53</ele>
        <time>2015-12-28T21:21:55Z</time>
      </trkpt>
      <trkpt lat="48.85036" lon="2.39034">
        <ele>53</ele>
        <time>2015-12-28T21:21:59Z</time>
      </trkpt>
      <trkpt lat="48.85042" lon="2.39028">
        <ele>53</ele>
        <time>2015-12-28T21:22:00Z</time>
      </trkpt>
      <trkpt lat="48.85057" lon="2.39009">
        <ele>53.599998474121</ele>
        <time>2015-12-28T21:22:04Z</time>
      </trkpt>
      <trkpt lat="48.8506" lon="2.39007">
        <ele>53.79999923706</ele>
        <time>2015-12-28T21:22:05Z</time>
      </trkpt>
      <trkpt lat="48.85071" lon="2.38991">
        <ele>54</ele>
        <time>2015-12-28T21:22:08Z</time>
      </trkpt>
      <trkpt lat="48.85095" lon="2.38978">
        <ele>54.79999923706</ele>
        <time>2015-12-28T21:22:11Z</time>
      </trkpt>
      <trkpt lat="48.85102" lon="2.38973">
        <ele>55.20000076294</ele>
        <time>2015-12-28T21:22:12Z</time>
      </trkpt>
      <trkpt lat="48.85107" lon="2.38968">
        <ele>55.20000076294</ele>
        <time>2015-12-28T21:22:13Z</time>
      </trkpt>
      <trkpt lat="48.85123" lon="2.38951">
        <ele>54.79999923706</ele>
        <time>2015-12-28T21:22:16Z</time>
      </trkpt>
      <trkpt lat="48.8514" lon="2.38939">
        <ele>54.599998474121</ele>
        <time>2015-12-28T21:22:19Z</time>
      </trkpt>
      <trkpt lat="48.85158" lon="2.38925">
        <ele>54.20000076294</ele>
        <time>2015-12-28T21:22:23Z</time>
      </trkpt>
      <trkpt lat="48.85167" lon="2.38918">
        <ele>54</ele>
        <time>2015-12-28T21:22:25Z</time>
      </trkpt>
      <trkpt lat="48.85184" lon="2.38908">
        <ele>53.599998474121</ele>
        <time>2015-12-28T21:22:28Z</time>
      </trkpt>
      <trkpt lat="48.85204" lon="2.38897">
        <ele>52.20000076294</ele>
        <time>2015-12-28T21:22:31Z</time>
      </trkpt>
      <trkpt lat="48.85219" lon="2.389">
        <ele>52.20000076294</ele>
        <time>2015-12-28T21:22:35Z</time>
      </trkpt>
      <trkpt lat="48.85222" lon="2.38901">
        <ele>52.20000076294</ele>
        <time>2015-12-28T21:22:37Z</time>
      </trkpt>
      <trkpt lat="48.85227" lon="2.38895">
        <ele>51.599998474121</ele>
        <time>2015-12-28T21:22:41Z</time>
      </trkpt>
      <trkpt lat="48.8524" lon="2.38874">
        <ele>50</ele>
        <time>2015-12-28T21:22:47Z</time>
      </trkpt>
      <trkpt lat="48.85249" lon="2.3886">
        <ele>49.79999923706</ele>
        <time>2015-12-28T21:22:51Z</time>
      </trkpt>
      <trkpt lat="48.85265" lon="2.3884">
        <ele>50</ele>
        <time>2015-12-28T21:22:58Z</time>
      </trkpt>
      <trkpt lat="48.85279" lon="2.38821">
        <ele>49.20000076294</ele>
        <time>2015-12-28T21:23:03Z</time>
      </trkpt>
      <trkpt lat="48.85296" lon="2.38803">
        <ele>47.400001525879</ele>
        <time>2015-12-28T21:23:07Z</time>
      </trkpt>
      <trkpt lat="48.85313" lon="2.38782">
        <ele>46.20000076294</ele>
        <time>2015-12-28T21:23:11Z</time>
      </trkpt>
      <trkpt lat="48.85325" lon="2.38759">
        <ele>47.79999923706</ele>
        <time>2015-12-28T21:23:15Z</time>
      </trkpt>
      <trkpt lat="48.85337" lon="2.38736">
        <ele>49.400001525879</ele>
        <time>2015-12-28T21:23:19Z</time>
      </trkpt>
      <trkpt lat="48.85352" lon="2.38711">
        <ele>50.599998474121</ele>
        <time>2015-12-28T21:23:23Z</time>
      </trkpt>
      <trkpt lat="48.85365" lon="2.3869">
        <ele>50.79999923706</ele>
        <time>2015-12-28T21:23:27Z</time>
      </trkpt>
      <trkpt lat="48.85377" lon="2.38665">
        <ele>50.599998474121</ele>
        <time>2015-12-28T21:23:31Z</time>
      </trkpt>
      <trkpt lat="48.85394" lon="2.38641">
        <ele>48.20000076294</ele>
        <time>2015-12-28T21:23:35Z</time>
      </trkpt>
      <trkpt lat="48.85412" lon="2.38619">
        <ele>47</ele>
        <time>2015-12-28T21:23:39Z</time>
      </trkpt>
      <trkpt lat="48.85428" lon="2.38594">
        <ele>47</ele>
        <time>2015-12-28T21:23:43Z</time>
      </trkpt>
      <trkpt lat="48.85441" lon="2.38566">
        <ele>46.79999923706</ele>
        <time>2015-12-28T21:23:47Z</time>
      </trkpt>
      <trkpt lat="48.85452" lon="2.38539">
        <ele>46.79999923706</ele>
        <time>2015-12-28T21:23:51Z</time>
      </trkpt>
      <trkpt lat="48.85467" lon="2.3851">
        <ele>47</ele>
        <time>2015-12-28T21:23:55Z</time>
      </trkpt>
      <trkpt lat="48.85479" lon="2.38487">
        <ele>47.400001525879</ele>
        <time>2015-12-28T21:23:58Z</time>
      </trkpt>
      <trkpt lat="48.8549" lon="2.38464">
        <ele>47.79999923706</ele>
        <time>2015-12-28T21:24:01Z</time>
      </trkpt>
      <trkpt lat="48.85503" lon="2.38437">
        <ele>47.79999923706</ele>
        <time>2015-12-28T21:24:04Z</time>
      </trkpt>
      <trkpt lat="48.85518" lon="2.38412">
        <ele>48</ele>
        <time>2015-12-28T21:24:07Z</time>
      </trkpt>
      <trkpt lat="48.85535" lon="2.38386">
        <ele>47.400001525879</ele>
        <time>2015-12-28T21:24:10Z</time>
      </trkpt>
      <trkpt lat="48.85552" lon="2.38361">
        <ele>46.599998474121</ele>
        <time>2015-12-28T21:24:13Z</time>
      </trkpt>
      <trkpt lat="48.85567" lon="2.38333">
        <ele>45.79999923706</ele>
        <time>2015-12-28T21:24:16Z</time>
      </trkpt>
      <trkpt lat="48.85583" lon="2.38308">
        <ele>44.20000076294</ele>
        <time>2015-12-28T21:24:19Z</time>
      </trkpt>
      <trkpt lat="48.85595" lon="2.38287">
        <ele>45</ele>
        <time>2015-12-28T21:24:22Z</time>
      </trkpt>
      <trkpt lat="48.85613" lon="2.38263">
        <ele>46</ele>
        <time>2015-12-28T21:24:25Z</time>
      </trkpt>
      <trkpt lat="48.85625" lon="2.38239">
        <ele>46.599998474121</ele>
        <time>2015-12-28T21:24:28Z</time>
      </trkpt>
      <trkpt lat="48.85639" lon="2.38215">
        <ele>47.599998474121</ele>
        <time>2015-12-28T21:24:31Z</time>
      </trkpt>
      <trkpt lat="48.85652" lon="2.38195">
        <ele>48</ele>
        <time>2015-12-28T21:24:33Z</time>
      </trkpt>
      <trkpt lat="48.85666" lon="2.38167">
        <ele>48</ele>
        <time>2015-12-28T21:24:36Z</time>
      </trkpt>
      <trkpt lat="48.85685" lon="2.38138">
        <ele>47.400001525879</ele>
        <time>2015-12-28T21:24:39Z</time>
      </trkpt>
      <trkpt lat="48.85702" lon="2.38115">
        <ele>46.79999923706</ele>
        <time>2015-12-28T21:24:42Z</time>
      </trkpt>
      <trkpt lat="48.85718" lon="2.38094">
        <ele>46.400001525879</ele>
        <time>2015-12-28T21:24:45Z</time>
      </trkpt>
      <trkpt lat="48.85731" lon="2.38074">
        <ele>46.400001525879</ele>
        <time>2015-12-28T21:24:48Z</time>
      </trkpt>
      <trkpt lat="48.85743" lon="2.3805">
        <ele>46.20000076294</ele>
        <time>2015-12-28T21:24:52Z</time>
      </trkpt>
      <trkpt lat="48.85755" lon="2.38036">
        <ele>45.599998474121</ele>
        <time>2015-12-28T21:24:57Z</time>
      </trkpt>
      <trkpt lat="48.85758" lon="2.38035">
        <ele>45.599998474121</ele>
        <time>2015-12-28T21:25:01Z</time>
      </trkpt>
      <trkpt lat="48.85776" lon="2.38037">
        <ele>45.400001525879</ele>
        <time>2015-12-28T21:25:32Z</time>
      </trkpt>
      <trkpt lat="48.85792" lon="2.38025">
        <ele>45</ele>
        <time>2015-12-28T21:25:44Z</time>
      </trkpt>
      <trkpt lat="48.85794" lon="2.38014">
        <ele>44.599998474121</ele>
        <time>2015-12-28T21:25:46Z</time>
      </trkpt>
      <trkpt lat="48.85797" lon="2.37983">
        <ele>43.79999923706</ele>
        <time>2015-12-28T21:25:50Z</time>
      </trkpt>
      <trkpt lat="48.85802" lon="2.37963">
        <ele>43.599998474121</ele>
        <time>2015-12-28T21:25:53Z</time>
      </trkpt>
      <trkpt lat="48.85818" lon="2.37936">
        <ele>44.20000076294</ele>
        <time>2015-12-28T21:25:57Z</time>
      </trkpt>
      <trkpt lat="48.85833" lon="2.37913">
        <ele>45.20000076294</ele>
        <time>2015-12-28T21:26:00Z</time>
      </trkpt>
      <trkpt lat="48.85846" lon="2.3789">
        <ele>45.79999923706</ele>
        <time>2015-12-28T21:26:03Z</time>
      </trkpt>
      <trkpt lat="48.85859" lon="2.37868">
        <ele>46</ele>
        <time>2015-12-28T21:26:06Z</time>
      </trkpt>
      <trkpt lat="48.85873" lon="2.37845">
        <ele>46.400001525879</ele>
        <time>2015-12-28T21:26:09Z</time>
      </trkpt>
      <trkpt lat="48.85886" lon="2.37822">
        <ele>46.20000076294</ele>
        <time>2015-12-28T21:26:12Z</time>
      </trkpt>
      <trkpt lat="48.85898" lon="2.37802">
        <ele>46.20000076294</ele>
        <time>2015-12-28T21:26:15Z</time>
      </trkpt>
      <trkpt lat="48.85909" lon="2.37779">
        <ele>46.20000076294</ele>
        <time>2015-12-28T21:26:18Z</time>
      </trkpt>
      <trkpt lat="48.85922" lon="2.37757">
        <ele>46.599998474121</ele>
        <time>2015-12-28T21:26:21Z</time>
      </trkpt>
      <trkpt lat="48.85936" lon="2.37735">
        <ele>46.400001525879</ele>
        <time>2015-12-28T21:26:24Z</time>
      </trkpt>
      <trkpt lat="48.85953" lon="2.37707">
        <ele>46</ele>
        <time>2015-12-28T21:26:27Z</time>
      </trkpt>
      <trkpt lat="48.85967" lon="2.3768">
        <ele>45.599998474121</ele>
        <time>2015-12-28T21:26:30Z</time>
      </trkpt>
      <trkpt lat="48.85981" lon="2.37653">
        <ele>45.79999923706</ele>
        <time>2015-12-28T21:26:33Z</time>
      </trkpt>
      <trkpt lat="48.85997" lon="2.37628">
        <ele>46</ele>
        <time>2015-12-28T21:26:36Z</time>
      </trkpt>
      <trkpt lat="48.86013" lon="2.37604">
        <ele>46.599998474121</ele>
        <time>2015-12-28T21:26:39Z</time>
      </trkpt>
      <trkpt lat="48.86029" lon="2.37581">
        <ele>46.79999923706</ele>
        <time>2015-12-28T21:26:42Z</time>
      </trkpt>
      <trkpt lat="48.86047" lon="2.37565">
        <ele>45.20000076294</ele>
        <time>2015-12-28T21:26:45Z</time>
      </trkpt>
      <trkpt lat="48.8606" lon="2.37546">
        <ele>44</ele>
        <time>2015-12-28T21:26:48Z</time>
      </trkpt>
      <trkpt lat="48.86061" lon="2.37541">
        <ele>43.79999923706</ele>
        <time>2015-12-28T21:26:49Z</time>
      </trkpt>
      <trkpt lat="48.86072" lon="2.37512">
        <ele>43</ele>
        <time>2015-12-28T21:26:54Z</time>
      </trkpt>
      <trkpt lat="48.86081" lon="2.37495">
        <ele>42.599998474121</ele>
        <time>2015-12-28T21:26:57Z</time>
      </trkpt>
      <trkpt lat="48.86087" lon="2.37484">
        <ele>42.20000076294</ele>
        <time>2015-12-28T21:26:59Z</time>
      </trkpt>
      <trkpt lat="48.86103" lon="2.37459">
        <ele>42.79999923706</ele>
        <time>2015-12-28T21:27:03Z</time>
      </trkpt>
      <trkpt lat="48.86115" lon="2.37438">
        <ele>43.79999923706</ele>
        <time>2015-12-28T21:27:06Z</time>
      </trkpt>
      <trkpt lat="48.86128" lon="2.37413">
        <ele>44.20000076294</ele>
        <time>2015-12-28T21:27:09Z</time>
      </trkpt>
      <trkpt lat="48.86142" lon="2.37387">
        <ele>44.79999923706</ele>
        <time>2015-12-28T21:27:12Z</time>
      </trkpt>
      <trkpt lat="48.86158" lon="2.3736">
        <ele>45.599998474121</ele>
        <time>2015-12-28T21:27:15Z</time>
      </trkpt>
      <trkpt lat="48.86172" lon="2.37337">
        <ele>46.400001525879</ele>
        <time>2015-12-28T21:27:18Z</time>
      </trkpt>
      <trkpt lat="48.86188" lon="2.37314">
        <ele>46.599998474121</ele>
        <time>2015-12-28T21:27:21Z</time>
      </trkpt>
      <trkpt lat="48.86204" lon="2.37294">
        <ele>46</ele>
        <time>2015-12-28T21:27:25Z</time>
      </trkpt>
      <trkpt lat="48.86207" lon="2.37288">
        <ele>45.79999923706</ele>
        <time>2015-12-28T21:27:26Z</time>
      </trkpt>
      <trkpt lat="48.86218" lon="2.37262">
        <ele>45.20000076294</ele>
        <time>2015-12-28T21:27:30Z</time>
      </trkpt>
      <trkpt lat="48.86219" lon="2.37256">
        <ele>45</ele>
        <time>2015-12-28T21:27:31Z</time>
      </trkpt>
      <trkpt lat="48.86233" lon="2.37232">
        <ele>44.79999923706</ele>
        <time>2015-12-28T21:27:35Z</time>
      </trkpt>
      <trkpt lat="48.86245" lon="2.37208">
        <ele>44.599998474121</ele>
        <time>2015-12-28T21:27:39Z</time>
      </trkpt>
      <trkpt lat="48.86256" lon="2.37193">
        <ele>44.400001525879</ele>
        <time>2015-12-28T21:27:42Z</time>
      </trkpt>
      <trkpt lat="48.8627" lon="2.37169">
        <ele>44</ele>
        <time>2015-12-28T21:27:46Z</time>
      </trkpt>
      <trkpt lat="48.8629" lon="2.37142">
        <ele>43.79999923706</ele>
        <time>2015-12-28T21:27:50Z</time>
      </trkpt>
      <trkpt lat="48.86305" lon="2.37121">
        <ele>43.400001525879</ele>
        <time>2015-12-28T21:27:53Z</time>
      </trkpt>
      <trkpt lat="48.86316" lon="2.37099">
        <ele>43.599998474121</ele>
        <time>2015-12-28T21:27:56Z</time>
      </trkpt>
      <trkpt lat="48.86329" lon="2.3708">
        <ele>43.599998474121</ele>
        <time>2015-12-28T21:27:59Z</time>
      </trkpt>
      <trkpt lat="48.86343" lon="2.37058">
        <ele>44</ele>
        <time>2015-12-28T21:28:02Z</time>
      </trkpt>
      <trkpt lat="48.86355" lon="2.37035">
        <ele>45</ele>
        <time>2015-12-28T21:28:06Z</time>
      </trkpt>
      <trkpt lat="48.86367" lon="2.37017">
        <ele>45.20000076294</ele>
        <time>2015-12-28T21:28:13Z</time>
      </trkpt>
      <trkpt lat="48.86376" lon="2.37008">
        <ele>45.20000076294</ele>
        <time>2015-12-28T21:28:18Z</time>
      </trkpt>
      <trkpt lat="48.86383" lon="2.37001">
        <ele>45.20000076294</ele>
        <time>2015-12-28T21:28:20Z</time>
      </trkpt>
      <trkpt lat="48.86386" lon="2.36996">
        <ele>45.20000076294</ele>
        <time>2015-12-28T21:28:22Z</time>
      </trkpt>
      <trkpt lat="48.86394" lon="2.3698">
        <ele>44.79999923706</ele>
        <time>2015-12-28T21:28:27Z</time>
      </trkpt>
      <trkpt lat="48.86396" lon="2.36971">
        <ele>44.79999923706</ele>
        <time>2015-12-28T21:28:31Z</time>
      </trkpt>
      <trkpt lat="48.86397" lon="2.36968">
        <ele>44.599998474121</ele>
        <time>2015-12-28T21:28:32Z</time>
      </trkpt>
      <trkpt lat="48.864" lon="2.36958">
        <ele>44.400001525879</ele>
        <time>2015-12-28T21:28:34Z</time>
      </trkpt>
      <trkpt lat="48.86412" lon="2.36931">
        <ele>45.20000076294</ele>
        <time>2015-12-28T21:28:39Z</time>
      </trkpt>
      <trkpt lat="48.86422" lon="2.36908">
        <ele>45.599998474121</ele>
        <time>2015-12-28T21:28:43Z</time>
      </trkpt>
      <trkpt lat="48.86434" lon="2.36883">
        <ele>45.79999923706</ele>
        <time>2015-12-28T21:28:47Z</time>
      </trkpt>
      <trkpt lat="48.86441" lon="2.36872">
        <ele>46</ele>
        <time>2015-12-28T21:28:49Z</time>
      </trkpt>
      <trkpt lat="48.86452" lon="2.3685">
        <ele>46.20000076294</ele>
        <time>2015-12-28T21:28:52Z</time>
      </trkpt>
      <trkpt lat="48.8647" lon="2.36816">
        <ele>46.79999923706</ele>
        <time>2015-12-28T21:28:56Z</time>
      </trkpt>
      <trkpt lat="48.86486" lon="2.36794">
        <ele>47.20000076294</ele>
        <time>2015-12-28T21:28:59Z</time>
      </trkpt>
      <trkpt lat="48.86503" lon="2.36777">
        <ele>46.79999923706</ele>
        <time>2015-12-28T21:29:02Z</time>
      </trkpt>
      <trkpt lat="48.86516" lon="2.36757">
        <ele>46.20000076294</ele>
        <time>2015-12-28T21:29:05Z</time>
      </trkpt>
      <trkpt lat="48.86529" lon="2.36736">
        <ele>46</ele>
        <time>2015-12-28T21:29:08Z</time>
      </trkpt>
      <trkpt lat="48.86546" lon="2.36709">
        <ele>45.79999923706</ele>
        <time>2015-12-28T21:29:12Z</time>
      </trkpt>
      <trkpt lat="48.86562" lon="2.36685">
        <ele>45.79999923706</ele>
        <time>2015-12-28T21:29:14Z</time>
      </trkpt>
      <trkpt lat="48.86576" lon="2.36659">
        <ele>45.79999923706</ele>
        <time>2015-12-28T21:29:18Z</time>
      </trkpt>
      <trkpt lat="48.86597" lon="2.36632">
        <ele>46.400001525879</ele>
        <time>2015-12-28T21:29:21Z</time>
      </trkpt>
      <trkpt lat="48.86601" lon="2.36626">
        <ele>46.400001525879</ele>
        <time>2015-12-28T21:29:22Z</time>
      </trkpt>
      <trkpt lat="48.86611" lon="2.36604">
        <ele>46.599998474121</ele>
        <time>2015-12-28T21:29:25Z</time>
      </trkpt>
      <trkpt lat="48.86624" lon="2.36584">
        <ele>46.400001525879</ele>
        <time>2015-12-28T21:29:28Z</time>
      </trkpt>
      <trkpt lat="48.8664" lon="2.36559">
        <ele>46</ele>
        <time>2015-12-28T21:29:32Z</time>
      </trkpt>
      <trkpt lat="48.86654" lon="2.36539">
        <ele>45.400001525879</ele>
        <time>2015-12-28T21:29:37Z</time>
      </trkpt>
      <trkpt lat="48.8666" lon="2.36529">
        <ele>44.400001525879</ele>
        <time>2015-12-28T21:29:39Z</time>
      </trkpt>
      <trkpt lat="48.86669" lon="2.3652">
        <ele>43</ele>
        <time>2015-12-28T21:29:58Z</time>
      </trkpt>
      <trkpt lat="48.86674" lon="2.36517">
        <ele>42.400001525879</ele>
        <time>2015-12-28T21:30:02Z</time>
      </trkpt>
      <trkpt lat="48.8668" lon="2.36506">
        <ele>41.20000076294</ele>
        <time>2015-12-28T21:30:05Z</time>
      </trkpt>
      <trkpt lat="48.86691" lon="2.36492">
        <ele>40.20000076294</ele>
        <time>2015-12-28T21:30:10Z</time>
      </trkpt>
      <trkpt lat="48.867" lon="2.3647">
        <ele>41.20000076294</ele>
        <time>2015-12-28T21:30:26Z</time>
      </trkpt>
      <trkpt lat="48.86704" lon="2.3646">
        <ele>41.599998474121</ele>
        <time>2015-12-28T21:30:32Z</time>
      </trkpt>
      <trkpt lat="48.86707" lon="2.36429">
        <ele>42.599998474121</ele>
        <time>2015-12-28T21:30:50Z</time>
      </trkpt>
      <trkpt lat="48.86716" lon="2.3642">
        <ele>41.79999923706</ele>
        <time>2015-12-28T21:30:57Z</time>
      </trkpt>
      <trkpt lat="48.86717" lon="2.3642">
        <ele>41.79999923706</ele>
        <time>2015-12-28T21:31:00Z</time>
      </trkpt>
      <trkpt lat="48.86737" lon="2.36409">
        <ele>41.20000076294</ele>
        <time>2015-12-28T21:31:11Z</time>
      </trkpt>
      <trkpt lat="48.86737" lon="2.36402">
        <ele>41.599998474121</ele>
        <time>2015-12-28T21:31:14Z</time>
      </trkpt>
      <trkpt lat="48.86736" lon="2.36396">
        <ele>42.20000076294</ele>
        <time>2015-12-28T21:31:17Z</time>
      </trkpt>
      <trkpt lat="48.86734" lon="2.36368">
        <ele>43.79999923706</ele>
        <time>2015-12-28T21:31:30Z</time>
      </trkpt>
      <trkpt lat="48.86739" lon="2.36354">
        <ele>43.599998474121</ele>
        <time>2015-12-28T21:31:39Z</time>
      </trkpt>
      <trkpt lat="48.86743" lon="2.36328">
        <ele>43.79999923706</ele>
        <time>2015-12-28T21:32:06Z</time>
      </trkpt>
      <trkpt lat="48.86735" lon="2.36299">
        <ele>43.79999923706</ele>
        <time>2015-12-28T21:32:14Z</time>
      </trkpt>
      <trkpt lat="48.86724" lon="2.36274">
        <ele>45.20000076294</ele>
        <time>2015-12-28T21:32:19Z</time>
      </trkpt>
      <trkpt lat="48.86714" lon="2.3625">
        <ele>46.79999923706</ele>
        <time>2015-12-28T21:32:23Z</time>
      </trkpt>
      <trkpt lat="48.86704" lon="2.36225">
        <ele>46.79999923706</ele>
        <time>2015-12-28T21:32:28Z</time>
      </trkpt>
      <trkpt lat="48.86694" lon="2.36201">
        <ele>46.400001525879</ele>
        <time>2015-12-28T21:32:32Z</time>
      </trkpt>
      <trkpt lat="48.86684" lon="2.36173">
        <ele>46</ele>
        <time>2015-12-28T21:32:36Z</time>
      </trkpt>
      <trkpt lat="48.86677" lon="2.36144">
        <ele>45.599998474121</ele>
        <time>2015-12-28T21:32:40Z</time>
      </trkpt>
      <trkpt lat="48.8667" lon="2.36115">
        <ele>45.20000076294</ele>
        <time>2015-12-28T21:32:44Z</time>
      </trkpt>
      <trkpt lat="48.86658" lon="2.36084">
        <ele>44.79999923706</ele>
        <time>2015-12-28T21:32:47Z</time>
      </trkpt>
      <trkpt lat="48.86648" lon="2.36056">
        <ele>44.79999923706</ele>
        <time>2015-12-28T21:32:49Z</time>
      </trkpt>
      <trkpt lat="48.86639" lon="2.36032">
        <ele>44.79999923706</ele>
        <time>2015-12-28T21:32:51Z</time>
      </trkpt>
      <trkpt lat="48.86633" lon="2.35998">
        <ele>44</ele>
        <time>2015-12-28T21:32:54Z</time>
      </trkpt>
      <trkpt lat="48.86628" lon="2.3596">
        <ele>44.400001525879</ele>
        <time>2015-12-28T21:32:57Z</time>
      </trkpt>
      <trkpt lat="48.86621" lon="2.35924">
        <ele>44.79999923706</ele>
        <time>2015-12-28T21:33:00Z</time>
      </trkpt>
      <trkpt lat="48.86616" lon="2.3589">
        <ele>44.400001525879</ele>
        <time>2015-12-28T21:33:03Z</time>
      </trkpt>
      <trkpt lat="48.8661" lon="2.35857">
        <ele>44.20000076294</ele>
        <time>2015-12-28T21:33:06Z</time>
      </trkpt>
      <trkpt lat="48.86604" lon="2.35827">
        <ele>44</ele>
        <time>2015-12-28T21:33:09Z</time>
      </trkpt>
      <trkpt lat="48.86597" lon="2.358">
        <ele>44.400001525879</ele>
        <time>2015-12-28T21:33:12Z</time>
      </trkpt>
      <trkpt lat="48.86591" lon="2.35771">
        <ele>44.79999923706</ele>
        <time>2015-12-28T21:33:15Z</time>
      </trkpt>
      <trkpt lat="48.8658" lon="2.35742">
        <ele>45</ele>
        <time>2015-12-28T21:33:18Z</time>
      </trkpt>
      <trkpt lat="48.86572" lon="2.35715">
        <ele>45.400001525879</ele>
        <time>2015-12-28T21:33:21Z</time>
      </trkpt>
      <trkpt lat="48.86561" lon="2.35684">
        <ele>45</ele>
        <time>2015-12-28T21:33:25Z</time>
      </trkpt>
      <trkpt lat="48.8656" lon="2.35677">
        <ele>45</ele>
        <time>2015-12-28T21:33:26Z</time>
      </trkpt>
      <trkpt lat="48.86556" lon="2.3565">
        <ele>44.79999923706</ele>
        <time>2015-12-28T21:33:31Z</time>
      </trkpt>
      <trkpt lat="48.86553" lon="2.35638">
        <ele>45</ele>
        <time>2015-12-28T21:33:35Z</time>
      </trkpt>
      <trkpt lat="48.86549" lon="2.35628">
        <ele>45</ele>
        <time>2015-12-28T21:33:41Z</time>
      </trkpt>
      <trkpt lat="48.86547" lon="2.35625">
        <ele>45.20000076294</ele>
        <time>2015-12-28T21:33:43Z</time>
      </trkpt>
      <trkpt lat="48.86548" lon="2.35624">
        <ele>45</ele>
        <time>2015-12-28T21:33:46Z</time>
      </trkpt>
      <trkpt lat="48.86543" lon="2.35596">
        <ele>45.20000076294</ele>
        <time>2015-12-28T21:34:04Z</time>
      </trkpt>
      <trkpt lat="48.8654" lon="2.35583">
        <ele>45</ele>
        <time>2015-12-28T21:34:09Z</time>
      </trkpt>
      <trkpt lat="48.86522" lon="2.35576">
        <ele>46.20000076294</ele>
        <time>2015-12-28T21:34:25Z</time>
      </trkpt>
      <trkpt lat="48.86502" lon="2.35568">
        <ele>45.79999923706</ele>
        <time>2015-12-28T21:34:33Z</time>
      </trkpt>
      <trkpt lat="48.86485" lon="2.35559">
        <ele>45.599998474121</ele>
        <time>2015-12-28T21:34:41Z</time>
      </trkpt>
      <trkpt lat="48.86467" lon="2.35551">
        <ele>45.400001525879</ele>
        <time>2015-12-28T21:34:46Z</time>
      </trkpt>
      <trkpt lat="48.8645" lon="2.35535">
        <ele>45.20000076294</ele>
        <time>2015-12-28T21:34:49Z</time>
      </trkpt>
      <trkpt lat="48.86431" lon="2.35529">
        <ele>44.79999923706</ele>
        <time>2015-12-28T21:34:56Z</time>
      </trkpt>
      <trkpt lat="48.86411" lon="2.35521">
        <ele>44.599998474121</ele>
        <time>2015-12-28T21:35:05Z</time>
      </trkpt>
      <trkpt lat="48.86392" lon="2.35512">
        <ele>44.400001525879</ele>
        <time>2015-12-28T21:35:11Z</time>
      </trkpt>
      <trkpt lat="48.86374" lon="2.35504">
        <ele>44.20000076294</ele>
        <time>2015-12-28T21:35:16Z</time>
      </trkpt>
      <trkpt lat="48.86352" lon="2.35488">
        <ele>44.20000076294</ele>
        <time>2015-12-28T21:35:20Z</time>
      </trkpt>
      <trkpt lat="48.86329" lon="2.35468">
        <ele>44.599998474121</ele>
        <time>2015-12-28T21:35:24Z</time>
      </trkpt>
      <trkpt lat="48.86311" lon="2.35454">
        <ele>45.20000076294</ele>
        <time>2015-12-28T21:35:26Z</time>
      </trkpt>
      <trkpt lat="48.86294" lon="2.35443">
        <ele>45.599998474121</ele>
        <time>2015-12-28T21:35:28Z</time>
      </trkpt>
      <trkpt lat="48.86271" lon="2.35428">
        <ele>46.20000076294</ele>
        <time>2015-12-28T21:35:31Z</time>
      </trkpt>
      <trkpt lat="48.86252" lon="2.35414">
        <ele>46.20000076294</ele>
        <time>2015-12-28T21:35:34Z</time>
      </trkpt>
      <trkpt lat="48.86252" lon="2.35412">
        <ele>46.20000076294</ele>
        <time>2015-12-28T21:35:35Z</time>
      </trkpt>
      <trkpt lat="48.86234" lon="2.354">
        <ele>46.79999923706</ele>
        <time>2015-12-28T21:35:39Z</time>
      </trkpt>
      <trkpt lat="48.86216" lon="2.35392">
        <ele>47.20000076294</ele>
        <time>2015-12-28T21:35:41Z</time>
      </trkpt>
      <trkpt lat="48.86213" lon="2.35389">
        <ele>47.400001525879</ele>
        <time>2015-12-28T21:35:42Z</time>
      </trkpt>
      <trkpt lat="48.86194" lon="2.35378">
        <ele>47.79999923706</ele>
        <time>2015-12-28T21:35:45Z</time>
      </trkpt>
      <trkpt lat="48.86184" lon="2.35372">
        <ele>48.400001525879</ele>
        <time>2015-12-28T21:35:46Z</time>
      </trkpt>
      <trkpt lat="48.86163" lon="2.3536">
        <ele>50.599998474121</ele>
        <time>2015-12-28T21:35:48Z</time>
      </trkpt>
      <trkpt lat="48.86152" lon="2.35355">
        <ele>51.599998474121</ele>
        <time>2015-12-28T21:35:49Z</time>
      </trkpt>
      <trkpt lat="48.86129" lon="2.35341">
        <ele>53.79999923706</ele>
        <time>2015-12-28T21:35:51Z</time>
      </trkpt>
      <trkpt lat="48.86105" lon="2.35329">
        <ele>56</ele>
        <time>2015-12-28T21:35:54Z</time>
      </trkpt>
      <trkpt lat="48.86092" lon="2.35327">
        <ele>55.20000076294</ele>
        <time>2015-12-28T21:35:56Z</time>
      </trkpt>
      <trkpt lat="48.86079" lon="2.35324">
        <ele>54.400001525879</ele>
        <time>2015-12-28T21:35:58Z</time>
      </trkpt>
      <trkpt lat="48.86067" lon="2.35317">
        <ele>53.79999923706</ele>
        <time>2015-12-28T21:36:00Z</time>
      </trkpt>
      <trkpt lat="48.86043" lon="2.35306">
        <ele>52.599998474121</ele>
        <time>2015-12-28T21:36:03Z</time>
      </trkpt>
      <trkpt lat="48.86036" lon="2.35304">
        <ele>52.20000076294</ele>
        <time>2015-12-28T21:36:04Z</time>
      </trkpt>
      <trkpt lat="48.86029" lon="2.35299">
        <ele>52</ele>
        <time>2015-12-28T21:36:05Z</time>
      </trkpt>
      <trkpt lat="48.86017" lon="2.35291">
        <ele>51.400001525879</ele>
        <time>2015-12-28T21:36:07Z</time>
      </trkpt>
      <trkpt lat="48.86001" lon="2.35278">
        <ele>50.79999923706</ele>
        <time>2015-12-28T21:36:10Z</time>
      </trkpt>
      <trkpt lat="48.85996" lon="2.35275">
        <ele>50.400001525879</ele>
        <time>2015-12-28T21:36:11Z</time>
      </trkpt>
      <trkpt lat="48.85971" lon="2.35266">
        <ele>48.79999923706</ele>
        <time>2015-12-28T21:36:15Z</time>
      </trkpt>
      <trkpt lat="48.85964" lon="2.35263">
        <ele>48.400001525879</ele>
        <time>2015-12-28T21:36:16Z</time>
      </trkpt>
      <trkpt lat="48.85941" lon="2.35251">
        <ele>47</ele>
        <time>2015-12-28T21:36:21Z</time>
      </trkpt>
      <trkpt lat="48.85916" lon="2.35236">
        <ele>47.599998474121</ele>
        <time>2015-12-28T21:36:23Z</time>
      </trkpt>
      <trkpt lat="48.85892" lon="2.35222">
        <ele>48</ele>
        <time>2015-12-28T21:36:26Z</time>
      </trkpt>
      <trkpt lat="48.85874" lon="2.35211">
        <ele>48.400001525879</ele>
        <time>2015-12-28T21:36:28Z</time>
      </trkpt>
      <trkpt lat="48.85855" lon="2.352">
        <ele>48.79999923706</ele>
        <time>2015-12-28T21:36:31Z</time>
      </trkpt>
      <trkpt lat="48.85849" lon="2.35198">
        <ele>48.20000076294</ele>
        <time>2015-12-28T21:36:33Z</time>
      </trkpt>
      <trkpt lat="48.85836" lon="2.35192">
        <ele>47</ele>
        <time>2015-12-28T21:36:37Z</time>
      </trkpt>
      <trkpt lat="48.85825" lon="2.35188">
        <ele>46</ele>
        <time>2015-12-28T21:36:40Z</time>
      </trkpt>
      <trkpt lat="48.85808" lon="2.35182">
        <ele>44.400001525879</ele>
        <time>2015-12-28T21:36:44Z</time>
      </trkpt>
      <trkpt lat="48.85771" lon="2.35168">
        <ele>41.20000076294</ele>
        <time>2015-12-28T21:36:48Z</time>
      </trkpt>
      <trkpt lat="48.85755" lon="2.35165">
        <ele>40.599998474121</ele>
        <time>2015-12-28T21:36:50Z</time>
      </trkpt>
      <trkpt lat="48.85738" lon="2.35141">
        <ele>39.599998474121</ele>
        <time>2015-12-28T21:36:54Z</time>
      </trkpt>
      <trkpt lat="48.85737" lon="2.35128">
        <ele>39.400001525879</ele>
        <time>2015-12-28T21:36:56Z</time>
      </trkpt>
      <trkpt lat="48.85737" lon="2.35116">
        <ele>40</ele>
        <time>2015-12-28T21:36:58Z</time>
      </trkpt>
      <trkpt lat="48.85739" lon="2.35087">
        <ele>41.400001525879</ele>
        <time>2015-12-28T21:37:03Z</time>
      </trkpt>
      <trkpt lat="48.8575" lon="2.35054">
        <ele>44.20000076294</ele>
        <time>2015-12-28T21:37:08Z</time>
      </trkpt>
      <trkpt lat="48.85756" lon="2.35043">
        <ele>45</ele>
        <time>2015-12-28T21:37:11Z</time>
      </trkpt>
      <trkpt lat="48.85773" lon="2.35012">
        <ele>47.599998474121</ele>
        <time>2015-12-28T21:37:16Z</time>
      </trkpt>
      <trkpt lat="48.85776" lon="2.35007">
        <ele>47.79999923706</ele>
        <time>2015-12-28T21:37:18Z</time>
      </trkpt>
      <trkpt lat="48.85789" lon="2.34981">
        <ele>46.400001525879</ele>
        <time>2015-12-28T21:37:22Z</time>
      </trkpt>
      <trkpt lat="48.85797" lon="2.3496">
        <ele>44.599998474121</ele>
        <time>2015-12-28T21:37:24Z</time>
      </trkpt>
      <trkpt lat="48.85808" lon="2.34932">
        <ele>43.79999923706</ele>
        <time>2015-12-28T21:37:29Z</time>
      </trkpt>
      <trkpt lat="48.8581" lon="2.34917">
        <ele>44.20000076294</ele>
        <time>2015-12-28T21:37:31Z</time>
      </trkpt>
      <trkpt lat="48.85819" lon="2.34886">
        <ele>43.79999923706</ele>
        <time>2015-12-28T21:37:34Z</time>
      </trkpt>
      <trkpt lat="48.85831" lon="2.3485">
        <ele>45</ele>
        <time>2015-12-28T21:37:39Z</time>
      </trkpt>
      <trkpt lat="48.85836" lon="2.34828">
        <ele>45.599998474121</ele>
        <time>2015-12-28T21:37:44Z</time>
      </trkpt>
      <trkpt lat="48.85845" lon="2.34799">
        <ele>46.599998474121</ele>
        <time>2015-12-28T21:37:49Z</time>
      </trkpt>
      <trkpt lat="48.85849" lon="2.34794">
        <ele>47</ele>
        <time>2015-12-28T21:37:50Z</time>
      </trkpt>
      <trkpt lat="48.85861" lon="2.34769">
        <ele>47.20000076294</ele>
        <time>2015-12-28T21:37:54Z</time>
      </trkpt>
      <trkpt lat="48.85871" lon="2.34748">
        <ele>46.400001525879</ele>
        <time>2015-12-28T21:37:58Z</time>
      </trkpt>
      <trkpt lat="48.85878" lon="2.34738">
        <ele>46.400001525879</ele>
        <time>2015-12-28T21:38:01Z</time>
      </trkpt>
      <trkpt lat="48.85892" lon="2.34722">
        <ele>46.400001525879</ele>
        <time>2015-12-28T21:38:06Z</time>
      </trkpt>
      <trkpt lat="48.85895" lon="2.34719">
        <ele>46.20000076294</ele>
        <time>2015-12-28T21:38:08Z</time>
      </trkpt>
      <trkpt lat="48.85908" lon="2.34698">
        <ele>46.599998474121</ele>
        <time>2015-12-28T21:38:15Z</time>
      </trkpt>
      <trkpt lat="48.85915" lon="2.34694">
        <ele>46.400001525879</ele>
        <time>2015-12-28T21:38:18Z</time>
      </trkpt>
      <trkpt lat="48.85931" lon="2.34713">
        <ele>45.400001525879</ele>
        <time>2015-12-28T21:38:26Z</time>
      </trkpt>
      <trkpt lat="48.8595" lon="2.34721">
        <ele>45</ele>
        <time>2015-12-28T21:38:35Z</time>
      </trkpt>
      <trkpt lat="48.85952" lon="2.3472">
        <ele>45.20000076294</ele>
        <time>2015-12-28T21:38:38Z</time>
      </trkpt>
      <trkpt lat="48.85957" lon="2.34713">
        <ele>45.400001525879</ele>
        <time>2015-12-28T21:39:01Z</time>
      </trkpt>
      <trkpt lat="48.85961" lon="2.34709">
        <ele>45.599998474121</ele>
        <time>2015-12-28T21:39:21Z</time>
      </trkpt>
      <trkpt lat="48.85961" lon="2.34708">
        <ele>45.79999923706</ele>
        <time>2015-12-28T21:39:23Z</time>
      </trkpt>
    </trkseg>
  </trk>
</gpx>